Osage River (Missouri), Taberville (06918250)

StateMissouriLatestPoor (244 cfs)
RiverOsage RiverRatingObservedEstimated
Updated2021-02-27 15:45 (40 minutes ago)Flood - The river is flooding. Obstacles can be treacherous or deadly. The river should be avoided at this stage for casual trips and definitely for the inexperienced. Trips should be attempted only with protective gear and equipment.Flood(none)38403
Discharge244 cfs (median: 668 cfs)High - The river is high and potentially dangerous, especially for the young and / or inexperienced. Normal stream obstacles are sometimes difficult to navigate. Extended distances can be attempted, but canoe travel may not be advisable.High(none)7197
Height9.36 feetGood - Conditions are ideal for a canoe or kayak. Boats typically will drag on fewer than one-quarter of riffles, if at all, and portages are unnecessary or rare. Normal float lengths can be attempted without a problem.Good(none)4305
TrendSteady (falling over 24 hours)Low - River is low but can still be floated. Some riffles are okay but most come with significant dragging and might need a portage. Float lengths should be reduced to accommodate low flow, dragging, and portages.Low(none)1188
USGSExternal icon USGS Site (External icon Google Maps)Poor - River is too low to float comfortably. Most or all riffles will drag or must be portaged and some obstacles (such as slick shelf rock) cause undue problems. Avoid the river at this stage for casual paddling trips.Poor(none)50

Trending Data

Plot Image

Trips for Osage River (Missouri), Taberville (06918250)

DateStartEndDistanceConditionDischargeHeightFishingDetails

A total of 0 rows are displayed.

Condition Descriptions

Fishing Conditions

Fish Species

Notes

Classic Trip List

The classic River Trips application is still available for use. It is updated with the new system using a data retrofit. It is no longer maintained. The original River Trips application is no longer updated (as of 1 Dec 2016) but can be checked for errors or for the condition of the data before it was converted to the new system.

Gauge Data Table

ObservationHeightDischargeMaximum
Discharge
Minimum
Discharge
Mean
Discharge
P05P10P20P25P50
(Median)
P75P80P90P95
2021-02-27 15:45 9.36 244 21200 (2011) 137 (2017) 5330 137 443 467 668 11300 11800 21200
2021-02-27 14:45 9.36 244 21200 (2011) 137 (2017) 5330 137 443 467 668 11300 11800 21200
2021-02-27 13:45 9.34 239 21200 (2011) 137 (2017) 5330 137 443 467 668 11300 11800 21200
2021-02-27 12:45 9.31 232 21200 (2011) 137 (2017) 5330 137 443 467 668 11300 11800 21200
2021-02-27 11:45 9.32 234 21200 (2011) 137 (2017) 5330 137 443 467 668 11300 11800 21200
2021-02-27 10:45 9.31 232 21200 (2011) 137 (2017) 5330 137 443 467 668 11300 11800 21200
2021-02-27 09:45 9.38 249 21200 (2011) 137 (2017) 5330 137 443 467 668 11300 11800 21200
2021-02-27 08:45 9.40 254 21200 (2011) 137 (2017) 5330 137 443 467 668 11300 11800 21200
2021-02-27 07:45 9.40 254 21200 (2011) 137 (2017) 5330 137 443 467 668 11300 11800 21200
2021-02-27 06:45 9.40 254 21200 (2011) 137 (2017) 5330 137 443 467 668 11300 11800 21200
2021-02-27 05:45 9.39 251 21200 (2011) 137 (2017) 5330 137 443 467 668 11300 11800 21200
2021-02-27 04:45 9.39 251 21200 (2011) 137 (2017) 5330 137 443 467 668 11300 11800 21200
2021-02-27 03:45 9.39 251 21200 (2011) 137 (2017) 5330 137 443 467 668 11300 11800 21200
2021-02-27 02:45 9.38 249 21200 (2011) 137 (2017) 5330 137 443 467 668 11300 11800 21200
2021-02-27 01:45 9.39 251 21200 (2011) 137 (2017) 5330 137 443 467 668 11300 11800 21200
2021-02-27 00:45 9.38 249 21200 (2011) 137 (2017) 5330 137 443 467 668 11300 11800 21200
2021-02-26 23:45 9.39 251 20300 (2011) 147 (2017) 5730 147 408 473 600 14200 15200 20300
2021-02-26 22:45 9.40 254 20300 (2011) 147 (2017) 5730 147 408 473 600 14200 15200 20300
2021-02-26 21:45 9.41 256 20300 (2011) 147 (2017) 5730 147 408 473 600 14200 15200 20300
2021-02-26 20:45 9.42 259 20300 (2011) 147 (2017) 5730 147 408 473 600 14200 15200 20300
2021-02-26 19:45 9.44 264 20300 (2011) 147 (2017) 5730 147 408 473 600 14200 15200 20300
2021-02-26 18:45 9.45 266 20300 (2011) 147 (2017) 5730 147 408 473 600 14200 15200 20300
2021-02-26 17:45 9.45 266 20300 (2011) 147 (2017) 5730 147 408 473 600 14200 15200 20300
2021-02-26 16:45 9.46 269 20300 (2011) 147 (2017) 5730 147 408 473 600 14200 15200 20300
2021-02-26 15:45 9.48 274 20300 (2011) 147 (2017) 5730 147 408 473 600 14200 15200 20300
2021-02-26 14:45 9.49 277 20300 (2011) 147 (2017) 5730 147 408 473 600 14200 15200 20300
2021-02-26 13:45 9.50 280 20300 (2011) 147 (2017) 5730 147 408 473 600 14200 15200 20300
2021-02-26 12:45 9.50 280 20300 (2011) 147 (2017) 5730 147 408 473 600 14200 15200 20300
2021-02-26 11:45 9.52 285 20300 (2011) 147 (2017) 5730 147 408 473 600 14200 15200 20300
2021-02-26 10:45 9.53 288 20300 (2011) 147 (2017) 5730 147 408 473 600 14200 15200 20300
2021-02-26 09:45 9.54 290 20300 (2011) 147 (2017) 5730 147 408 473 600 14200 15200 20300
2021-02-26 08:45 9.55 293 20300 (2011) 147 (2017) 5730 147 408 473 600 14200 15200 20300
2021-02-26 07:45 9.56 296 20300 (2011) 147 (2017) 5730 147 408 473 600 14200 15200 20300
2021-02-26 06:45 9.58 301 20300 (2011) 147 (2017) 5730 147 408 473 600 14200 15200 20300
2021-02-26 05:45 9.58 301 20300 (2011) 147 (2017) 5730 147 408 473 600 14200 15200 20300
2021-02-26 04:45 9.59 304 20300 (2011) 147 (2017) 5730 147 408 473 600 14200 15200 20300
2021-02-26 03:45 9.60 307 20300 (2011) 147 (2017) 5730 147 408 473 600 14200 15200 20300
2021-02-26 02:45 9.61 310 20300 (2011) 147 (2017) 5730 147 408 473 600 14200 15200 20300
2021-02-26 01:45 9.62 313 20300 (2011) 147 (2017) 5730 147 408 473 600 14200 15200 20300
2021-02-26 00:45 9.63 316 20300 (2011) 147 (2017) 5730 147 408 473 600 14200 15200 20300
2021-02-25 23:45 9.64 318 17300 (2011) 195 (2017) 5490 195 316 427 584 14600 16600 17300
2021-02-25 22:45 9.65 321 17300 (2011) 195 (2017) 5490 195 316 427 584 14600 16600 17300
2021-02-25 21:45 9.66 324 17300 (2011) 195 (2017) 5490 195 316 427 584 14600 16600 17300
2021-02-25 20:45 9.68 330 17300 (2011) 195 (2017) 5490 195 316 427 584 14600 16600 17300
2021-02-25 19:45 9.70 336 17300 (2011) 195 (2017) 5490 195 316 427 584 14600 16600 17300
2021-02-25 18:45 9.70 336 17300 (2011) 195 (2017) 5490 195 316 427 584 14600 16600 17300
2021-02-25 17:45 9.72 342 17300 (2011) 195 (2017) 5490 195 316 427 584 14600 16600 17300
2021-02-25 16:45 9.73 345 17300 (2011) 195 (2017) 5490 195 316 427 584 14600 16600 17300
2021-02-25 15:45 9.75 351 17300 (2011) 195 (2017) 5490 195 316 427 584 14600 16600 17300
2021-02-25 14:45 9.76 354 17300 (2011) 195 (2017) 5490 195 316 427 584 14600 16600 17300
2021-02-25 13:45 9.75 351 17300 (2011) 195 (2017) 5490 195 316 427 584 14600 16600 17300
2021-02-25 12:45 9.74 348 17300 (2011) 195 (2017) 5490 195 316 427 584 14600 16600 17300
2021-02-25 11:45 9.74 348 17300 (2011) 195 (2017) 5490 195 316 427 584 14600 16600 17300
2021-02-25 10:45 9.75 351 17300 (2011) 195 (2017) 5490 195 316 427 584 14600 16600 17300
2021-02-25 09:45 9.73 345 17300 (2011) 195 (2017) 5490 195 316 427 584 14600 16600 17300
2021-02-25 08:45 9.73 345 17300 (2011) 195 (2017) 5490 195 316 427 584 14600 16600 17300
2021-02-25 07:45 9.72 342 17300 (2011) 195 (2017) 5490 195 316 427 584 14600 16600 17300
2021-02-25 06:45 9.72 342 17300 (2011) 195 (2017) 5490 195 316 427 584 14600 16600 17300
2021-02-25 05:45 9.71 339 17300 (2011) 195 (2017) 5490 195 316 427 584 14600 16600 17300
2021-02-25 04:45 9.70 336 17300 (2011) 195 (2017) 5490 195 316 427 584 14600 16600 17300
2021-02-25 03:45 9.67 327 17300 (2011) 195 (2017) 5490 195 316 427 584 14600 16600 17300
2021-02-25 02:45 9.65 321 17300 (2011) 195 (2017) 5490 195 316 427 584 14600 16600 17300
2021-02-25 01:45 9.63 316 17300 (2011) 195 (2017) 5490 195 316 427 584 14600 16600 17300
2021-02-25 00:45 9.60 307 17300 (2011) 195 (2017) 5490 195 316 427 584 14600 16600 17300
2021-02-24 23:45 9.58 301 10100 (2019) 205 (2013) 3380 205 287 382 661 8630 8910 10100
2021-02-24 22:45 9.57 299 10100 (2019) 205 (2013) 3380 205 287 382 661 8630 8910 10100
2021-02-24 21:45 9.54 290 10100 (2019) 205 (2013) 3380 205 287 382 661 8630 8910 10100
2021-02-24 20:45 9.50 280 10100 (2019) 205 (2013) 3380 205 287 382 661 8630 8910 10100
2021-02-24 19:45 9.48 274 10100 (2019) 205 (2013) 3380 205 287 382 661 8630 8910 10100
2021-02-24 18:45 9.43 261 10100 (2019) 205 (2013) 3380 205 287 382 661 8630 8910 10100
2021-02-24 17:45 9.41 256 10100 (2019) 205 (2013) 3380 205 287 382 661 8630 8910 10100
2021-02-24 16:45 9.38 249 10100 (2019) 205 (2013) 3380 205 287 382 661 8630 8910 10100
2021-02-24 15:45 9.32 234 10100 (2019) 205 (2013) 3380 205 287 382 661 8630 8910 10100
2021-02-24 14:45 9.28 225 10100 (2019) 205 (2013) 3380 205 287 382 661 8630 8910 10100
2021-02-24 13:45 9.23 214 10100 (2019) 205 (2013) 3380 205 287 382 661 8630 8910 10100
2021-02-24 12:45 9.19 205 10100 (2019) 205 (2013) 3380 205 287 382 661 8630 8910 10100
2021-02-24 11:45 9.14 195 10100 (2019) 205 (2013) 3380 205 287 382 661 8630 8910 10100
2021-02-24 10:45 9.12 192 10100 (2019) 205 (2013) 3380 205 287 382 661 8630 8910 10100
2021-02-24 09:45 9.08 184 10100 (2019) 205 (2013) 3380 205 287 382 661 8630 8910 10100
2021-02-24 08:45 9.06 180 10100 (2019) 205 (2013) 3380 205 287 382 661 8630 8910 10100
2021-02-24 07:45 9.03 175 10100 (2019) 205 (2013) 3380 205 287 382 661 8630 8910 10100
2021-02-24 06:45 9.00 169 10100 (2019) 205 (2013) 3380 205 287 382 661 8630 8910 10100
2021-02-24 05:45 8.96 162 10100 (2019) 205 (2013) 3380 205 287 382 661 8630 8910 10100
2021-02-24 04:45 8.93 157 10100 (2019) 205 (2013) 3380 205 287 382 661 8630 8910 10100
2021-02-24 03:45 8.90 152 10100 (2019) 205 (2013) 3380 205 287 382 661 8630 8910 10100
2021-02-24 02:45 8.87 147 10100 (2019) 205 (2013) 3380 205 287 382 661 8630 8910 10100
2021-02-24 01:45 8.84 142 10100 (2019) 205 (2013) 3380 205 287 382 661 8630 8910 10100
2021-02-24 00:45 8.81 138 10100 (2019) 205 (2013) 3380 205 287 382 661 8630 8910 10100
2021-02-23 23:45 8.76 130 8570 (2018) 150 (2013) 2790 150 409 424 742 6600 8510 8570
2021-02-23 22:45 8.73 126 8570 (2018) 150 (2013) 2790 150 409 424 742 6600 8510 8570
2021-02-23 21:45 8.71 123 8570 (2018) 150 (2013) 2790 150 409 424 742 6600 8510 8570
2021-02-23 20:45 8.70 122 8570 (2018) 150 (2013) 2790 150 409 424 742 6600 8510 8570
2021-02-23 19:45 8.70 122 8570 (2018) 150 (2013) 2790 150 409 424 742 6600 8510 8570
2021-02-23 18:45 8.68 119 8570 (2018) 150 (2013) 2790 150 409 424 742 6600 8510 8570
2021-02-23 17:45 8.64 114 8570 (2018) 150 (2013) 2790 150 409 424 742 6600 8510 8570
2021-02-23 16:45 8.59 107 8570 (2018) 150 (2013) 2790 150 409 424 742 6600 8510 8570
2021-02-23 15:45 8.57 104 8570 (2018) 150 (2013) 2790 150 409 424 742 6600 8510 8570
2021-02-23 14:45 8.58 106 8570 (2018) 150 (2013) 2790 150 409 424 742 6600 8510 8570
2021-02-23 13:45 8.60 108 8570 (2018) 150 (2013) 2790 150 409 424 742 6600 8510 8570
2021-02-23 12:45 8.59 107 8570 (2018) 150 (2013) 2790 150 409 424 742 6600 8510 8570
2021-02-23 11:45 8.59 107 8570 (2018) 150 (2013) 2790 150 409 424 742 6600 8510 8570
2021-02-23 10:45 8.63 112 8570 (2018) 150 (2013) 2790 150 409 424 742 6600 8510 8570
2021-02-23 09:45 8.60 108 8570 (2018) 150 (2013) 2790 150 409 424 742 6600 8510 8570
2021-02-23 08:45 8.59 107 8570 (2018) 150 (2013) 2790 150 409 424 742 6600 8510 8570
2021-02-23 07:45 8.58 106 8570 (2018) 150 (2013) 2790 150 409 424 742 6600 8510 8570
2021-02-23 06:45 8.52 98 8570 (2018) 150 (2013) 2790 150 409 424 742 6600 8510 8570
2021-02-23 05:45 8.46 91 8570 (2018) 150 (2013) 2790 150 409 424 742 6600 8510 8570
2021-02-23 04:45 8.44 90 8570 (2018) 150 (2013) 2790 150 409 424 742 6600 8510 8570
2021-02-23 03:45 8.43 89 8570 (2018) 150 (2013) 2790 150 409 424 742 6600 8510 8570
2021-02-23 02:45 8.36 82 8570 (2018) 150 (2013) 2790 150 409 424 742 6600 8510 8570
2021-02-23 01:45 8.34 81 8570 (2018) 150 (2013) 2790 150 409 424 742 6600 8510 8570
2021-02-23 00:45 8.31 78 8570 (2018) 150 (2013) 2790 150 409 424 742 6600 8510 8570
2021-02-22 23:45 8.29 76 12200 (2018) 123 (2013) 3070 123 324 416 770 6070 9140 12200
2021-02-22 22:45 8.27 75 12200 (2018) 123 (2013) 3070 123 324 416 770 6070 9140 12200
2021-02-22 21:45 8.24 74 12200 (2018) 123 (2013) 3070 123 324 416 770 6070 9140 12200
2021-02-22 20:45 8.22 73 12200 (2018) 123 (2013) 3070 123 324 416 770 6070 9140 12200
2021-02-22 19:45 8.19 72 12200 (2018) 123 (2013) 3070 123 324 416 770 6070 9140 12200
2021-02-22 18:45 8.18 71 12200 (2018) 123 (2013) 3070 123 324 416 770 6070 9140 12200
2021-02-22 17:45 8.18 71 12200 (2018) 123 (2013) 3070 123 324 416 770 6070 9140 12200
2021-02-22 16:45 8.20 72 12200 (2018) 123 (2013) 3070 123 324 416 770 6070 9140 12200
2021-02-22 15:45 8.22 73 12200 (2018) 123 (2013) 3070 123 324 416 770 6070 9140 12200
2021-02-22 14:45 8.22 73 12200 (2018) 123 (2013) 3070 123 324 416 770 6070 9140 12200
2021-02-22 13:45 8.24 74 12200 (2018) 123 (2013) 3070 123 324 416 770 6070 9140 12200
2021-02-22 12:45 8.25 74 12200 (2018) 123 (2013) 3070 123 324 416 770 6070 9140 12200
2021-02-22 11:45 8.26 74 12200 (2018) 123 (2013) 3070 123 324 416 770 6070 9140 12200
2021-02-22 10:45 8.26 74 12200 (2018) 123 (2013) 3070 123 324 416 770 6070 9140 12200
2021-02-22 09:45 8.26 74 12200 (2018) 123 (2013) 3070 123 324 416 770 6070 9140 12200
2021-02-22 08:45 8.27 75 12200 (2018) 123 (2013) 3070 123 324 416 770 6070 9140 12200
2021-02-22 07:45 8.29 76 12200 (2018) 123 (2013) 3070 123 324 416 770 6070 9140 12200
2021-02-22 06:45 8.33 80 12200 (2018) 123 (2013) 3070 123 324 416 770 6070 9140 12200
2021-02-22 05:45 8.35 81 12200 (2018) 123 (2013) 3070 123 324 416 770 6070 9140 12200
2021-02-22 04:45 8.38 84 12200 (2018) 123 (2013) 3070 123 324 416 770 6070 9140 12200
2021-02-22 03:45 8.37 83 12200 (2018) 123 (2013) 3070 123 324 416 770 6070 9140 12200
2021-02-22 02:45 8.37 83 12200 (2018) 123 (2013) 3070 123 324 416 770 6070 9140 12200
2021-02-22 01:45 8.36 82 12200 (2018) 123 (2013) 3070 123 324 416 770 6070 9140 12200
2021-02-22 00:45 8.34 81 12200 (2018) 123 (2013) 3070 123 324 416 770 6070 9140 12200
2021-02-21 23:45 8.33 80 7560 (2018) 181 (2013) 2160 181 390 457 808 4270 6100 7560
2021-02-21 22:45 8.34 81 7560 (2018) 181 (2013) 2160 181 390 457 808 4270 6100 7560
2021-02-21 21:45 8.34 81 7560 (2018) 181 (2013) 2160 181 390 457 808 4270 6100 7560
2021-02-21 20:45 8.32 79 7560 (2018) 181 (2013) 2160 181 390 457 808 4270 6100 7560
2021-02-21 19:45 8.33 80 7560 (2018) 181 (2013) 2160 181 390 457 808 4270 6100 7560
2021-02-21 18:45 8.33 80 7560 (2018) 181 (2013) 2160 181 390 457 808 4270 6100 7560
2021-02-21 17:45 8.34 81 7560 (2018) 181 (2013) 2160 181 390 457 808 4270 6100 7560
2021-02-21 16:45 8.35 81 7560 (2018) 181 (2013) 2160 181 390 457 808 4270 6100 7560
2021-02-21 15:45 8.37 83 7560 (2018) 181 (2013) 2160 181 390 457 808 4270 6100 7560
2021-02-21 14:45 8.38 84 7560 (2018) 181 (2013) 2160 181 390 457 808 4270 6100 7560
2021-02-21 13:45 8.37 83 7560 (2018) 181 (2013) 2160 181 390 457 808 4270 6100 7560
2021-02-21 12:45 8.35 81 7560 (2018) 181 (2013) 2160 181 390 457 808 4270 6100 7560
2021-02-21 11:45 8.38 84 7560 (2018) 181 (2013) 2160 181 390 457 808 4270 6100 7560
2021-02-21 10:45 8.13 69 7560 (2018) 181 (2013) 2160 181 390 457 808 4270 6100 7560
2021-02-21 09:45 8.16 70 7560 (2018) 181 (2013) 2160 181 390 457 808 4270 6100 7560
2021-02-21 08:45 8.18 71 7560 (2018) 181 (2013) 2160 181 390 457 808 4270 6100 7560
2021-02-21 07:45 8.15 70 7560 (2018) 181 (2013) 2160 181 390 457 808 4270 6100 7560
2021-02-21 06:45 8.10 68 7560 (2018) 181 (2013) 2160 181 390 457 808 4270 6100 7560
2021-02-21 05:45 8.09 67 7560 (2018) 181 (2013) 2160 181 390 457 808 4270 6100 7560
2021-02-21 04:45 8.08 67 7560 (2018) 181 (2013) 2160 181 390 457 808 4270 6100 7560
2021-02-21 03:45 8.12 69 7560 (2018) 181 (2013) 2160 181 390 457 808 4270 6100 7560
2021-02-21 02:45 8.20 72 7560 (2018) 181 (2013) 2160 181 390 457 808 4270 6100 7560
2021-02-21 01:45 8.23 73 7560 (2018) 181 (2013) 2160 181 390 457 808 4270 6100 7560
2021-02-21 00:45 8.24 74 7560 (2018) 181 (2013) 2160 181 390 457 808 4270 6100 7560
2021-02-20 23:45 8.24 74 8260 (2011) 153 (2013) 1620 153 349 379 725 1720 2460 8260
2021-02-20 22:45 8.23 73 8260 (2011) 153 (2013) 1620 153 349 379 725 1720 2460 8260
2021-02-20 21:45 8.24 74 8260 (2011) 153 (2013) 1620 153 349 379 725 1720 2460 8260
2021-02-20 20:45 8.25 74 8260 (2011) 153 (2013) 1620 153 349 379 725 1720 2460 8260
2021-02-20 19:45 8.26 74 8260 (2011) 153 (2013) 1620 153 349 379 725 1720 2460 8260
2021-02-20 18:45 8.29 76 8260 (2011) 153 (2013) 1620 153 349 379 725 1720 2460 8260
2021-02-20 17:45 8.10 68 8260 (2011) 153 (2013) 1620 153 349 379 725 1720 2460 8260
2021-02-20 16:45 8.15 70 8260 (2011) 153 (2013) 1620 153 349 379 725 1720 2460 8260
2021-02-20 15:45 8.25 74 8260 (2011) 153 (2013) 1620 153 349 379 725 1720 2460 8260
2021-02-20 14:45 8.31 78 8260 (2011) 153 (2013) 1620 153 349 379 725 1720 2460 8260
2021-02-20 13:45 8.30 77 8260 (2011) 153 (2013) 1620 153 349 379 725 1720 2460 8260
2021-02-20 12:45 8.31 78 8260 (2011) 153 (2013) 1620 153 349 379 725 1720 2460 8260
2021-02-20 11:45 8.31 78 8260 (2011) 153 (2013) 1620 153 349 379 725 1720 2460 8260
2021-02-20 10:45 8.29 76 8260 (2011) 153 (2013) 1620 153 349 379 725 1720 2460 8260
2021-02-20 09:45 8.28 75 8260 (2011) 153 (2013) 1620 153 349 379 725 1720 2460 8260
2021-02-20 08:45 8.13 69 8260 (2011) 153 (2013) 1620 153 349 379 725 1720 2460 8260
2021-02-20 07:45 8.11 68 8260 (2011) 153 (2013) 1620 153 349 379 725 1720 2460 8260
2021-02-20 06:45 8.10 68 8260 (2011) 153 (2013) 1620 153 349 379 725 1720 2460 8260
2021-02-20 05:45 8.11 68 8260 (2011) 153 (2013) 1620 153 349 379 725 1720 2460 8260
2021-02-20 04:45 8.15 70 8260 (2011) 153 (2013) 1620 153 349 379 725 1720 2460 8260
2021-02-20 03:45 8.20 72 8260 (2011) 153 (2013) 1620 153 349 379 725 1720 2460 8260
2021-02-20 02:45 8.17 71 8260 (2011) 153 (2013) 1620 153 349 379 725 1720 2460 8260
2021-02-20 01:45 8.22 73 8260 (2011) 153 (2013) 1620 153 349 379 725 1720 2460 8260
2021-02-20 00:45 8.36 82 8260 (2011) 153 (2013) 1620 153 349 379 725 1720 2460 8260
2021-02-19 23:45 8.41 87 12500 (2011) 136 (2013) 2110 136 259 288 512 1970 2710 12500
2021-02-19 22:45 8.40 86 12500 (2011) 136 (2013) 2110 136 259 288 512 1970 2710 12500
2021-02-19 21:45 8.38 84 12500 (2011) 136 (2013) 2110 136 259 288 512 1970 2710 12500
2021-02-19 20:45 8.35 81 12500 (2011) 136 (2013) 2110 136 259 288 512 1970 2710 12500
2021-02-19 19:45 8.33 80 12500 (2011) 136 (2013) 2110 136 259 288 512 1970 2710 12500
2021-02-19 18:45 8.31 78 12500 (2011) 136 (2013) 2110 136 259 288 512 1970 2710 12500
2021-02-19 17:45 8.30 77 12500 (2011) 136 (2013) 2110 136 259 288 512 1970 2710 12500
2021-02-19 16:45 8.29 76 12500 (2011) 136 (2013) 2110 136 259 288 512 1970 2710 12500
2021-02-19 15:45 8.32 79 12500 (2011) 136 (2013) 2110 136 259 288 512 1970 2710 12500
2021-02-19 14:45 8.37 83 12500 (2011) 136 (2013) 2110 136 259 288 512 1970 2710 12500
2021-02-19 13:45 8.43 89 12500 (2011) 136 (2013) 2110 136 259 288 512 1970 2710 12500
2021-02-19 12:45 8.59 107 12500 (2011) 136 (2013) 2110 136 259 288 512 1970 2710 12500
2021-02-19 11:45 8.49 95 12500 (2011) 136 (2013) 2110 136 259 288 512 1970 2710 12500
2021-02-19 10:45 8.52 98 12500 (2011) 136 (2013) 2110 136 259 288 512 1970 2710 12500
2021-02-19 09:45 8.53 99 12500 (2011) 136 (2013) 2110 136 259 288 512 1970 2710 12500
2021-02-19 08:45 8.52 98 12500 (2011) 136 (2013) 2110 136 259 288 512 1970 2710 12500
2021-02-19 07:45 8.51 97 12500 (2011) 136 (2013) 2110 136 259 288 512 1970 2710 12500
2021-02-19 06:45 8.47 92 12500 (2011) 136 (2013) 2110 136 259 288 512 1970 2710 12500
2021-02-19 05:45 8.46 91 12500 (2011) 136 (2013) 2110 136 259 288 512 1970 2710 12500
2021-02-19 04:45 8.48 93 12500 (2011) 136 (2013) 2110 136 259 288 512 1970 2710 12500
2021-02-19 03:45 8.51 97 12500 (2011) 136 (2013) 2110 136 259 288 512 1970 2710 12500
2021-02-19 02:45 8.46 91 12500 (2011) 136 (2013) 2110 136 259 288 512 1970 2710 12500
2021-02-19 01:45 8.44 90 12500 (2011) 136 (2013) 2110 136 259 288 512 1970 2710 12500
2021-02-19 00:45 8.46 91 12500 (2011) 136 (2013) 2110 136 259 288 512 1970 2710 12500
2021-02-18 23:45 8.39 85 14500 (2011) 128 (2013) 2410 128 253 258 473 2340 3270 14500
2021-02-18 22:45 8.31 78 14500 (2011) 128 (2013) 2410 128 253 258 473 2340 3270 14500
2021-02-18 21:45 8.36 82 14500 (2011) 128 (2013) 2410 128 253 258 473 2340 3270 14500
2021-02-18 20:45 8.39 85 14500 (2011) 128 (2013) 2410 128 253 258 473 2340 3270 14500
2021-02-18 19:45 8.38 84 14500 (2011) 128 (2013) 2410 128 253 258 473 2340 3270 14500
2021-02-18 18:45 8.42 88 14500 (2011) 128 (2013) 2410 128 253 258 473 2340 3270 14500
2021-02-18 17:45 8.49 95 14500 (2011) 128 (2013) 2410 128 253 258 473 2340 3270 14500
2021-02-18 16:45 8.33 80 14500 (2011) 128 (2013) 2410 128 253 258 473 2340 3270 14500
2021-02-18 15:45 8.15 70 14500 (2011) 128 (2013) 2410 128 253 258 473 2340 3270 14500
2021-02-18 14:45 8.47 92 14500 (2011) 128 (2013) 2410 128 253 258 473 2340 3270 14500
2021-02-18 13:45 8.48 93 14500 (2011) 128 (2013) 2410 128 253 258 473 2340 3270 14500
2021-02-18 12:45 8.55 102 14500 (2011) 128 (2013) 2410 128 253 258 473 2340 3270 14500
2021-02-18 11:45 8.54 101 14500 (2011) 128 (2013) 2410 128 253 258 473 2340 3270 14500
2021-02-18 10:45 8.58 106 14500 (2011) 128 (2013) 2410 128 253 258 473 2340 3270 14500
2021-02-18 09:45 8.59 107 14500 (2011) 128 (2013) 2410 128 253 258 473 2340 3270 14500
2021-02-18 08:45 8.58 106 14500 (2011) 128 (2013) 2410 128 253 258 473 2340 3270 14500
2021-02-18 07:45 8.60 108 14500 (2011) 128 (2013) 2410 128 253 258 473 2340 3270 14500
2021-02-18 06:45 8.62 111 14500 (2011) 128 (2013) 2410 128 253 258 473 2340 3270 14500
2021-02-18 05:45 8.65 115 14500 (2011) 128 (2013) 2410 128 253 258 473 2340 3270 14500
2021-02-18 04:45 8.67 118 14500 (2011) 128 (2013) 2410 128 253 258 473 2340 3270 14500
2021-02-18 03:45 8.66 116 14500 (2011) 128 (2013) 2410 128 253 258 473 2340 3270 14500
2021-02-18 02:45 8.63 112 14500 (2011) 128 (2013) 2410 128 253 258 473 2340 3270 14500
2021-02-18 01:45 8.62 111 14500 (2011) 128 (2013) 2410 128 253 258 473 2340 3270 14500
2021-02-18 00:45 8.65 115 14500 (2011) 128 (2013) 2410 128 253 258 473 2340 3270 14500
2021-02-17 23:45 8.69 120 4020 (2019) 197 (2013) 977 204 213 465 1210 1840
2021-02-17 22:45 8.78 133 4020 (2019) 197 (2013) 977 204 213 465 1210 1840
2021-02-17 21:45 8.91 153 4020 (2019) 197 (2013) 977 204 213 465 1210 1840
2021-02-17 20:45 8.88 148 4020 (2019) 197 (2013) 977 204 213 465 1210 1840
2021-02-17 19:45 8.87 147 4020 (2019) 197 (2013) 977 204 213 465 1210 1840
2021-02-17 18:45 8.89 150 4020 (2019) 197 (2013) 977 204 213 465 1210 1840
2021-02-17 17:45 8.92 155 4020 (2019) 197 (2013) 977 204 213 465 1210 1840
2021-02-17 16:45 8.70 122 4020 (2019) 197 (2013) 977 204 213 465 1210 1840
2021-02-17 15:45 8.76 130 4020 (2019) 197 (2013) 977 204 213 465 1210 1840
2021-02-17 14:45 8.73 126 4020 (2019) 197 (2013) 977 204 213 465 1210 1840
2021-02-17 13:45 8.81 138 4020 (2019) 197 (2013) 977 204 213 465 1210 1840
2021-02-17 12:45 8.94 159 4020 (2019) 197 (2013) 977 204 213 465 1210 1840
2021-02-17 11:45 9.01 171 4020 (2019) 197 (2013) 977 204 213 465 1210 1840
2021-02-17 10:45 9.04 176 4020 (2019) 197 (2013) 977 204 213 465 1210 1840
2021-02-17 09:45 9.05 178 4020 (2019) 197 (2013) 977 204 213 465 1210 1840
2021-02-17 08:45 9.05 178 4020 (2019) 197 (2013) 977 204 213 465 1210 1840
2021-02-17 07:45 9.05 178 4020 (2019) 197 (2013) 977 204 213 465 1210 1840
2021-02-17 06:45 9.09 186 4020 (2019) 197 (2013) 977 204 213 465 1210 1840
2021-02-17 05:45 9.06 180 4020 (2019) 197 (2013) 977 204 213 465 1210 1840
2021-02-17 04:45 9.08 184 4020 (2019) 197 (2013) 977 204 213 465 1210 1840
2021-02-17 03:45 9.08 184 4020 (2019) 197 (2013) 977 204 213 465 1210 1840
2021-02-17 02:45 9.06 180 4020 (2019) 197 (2013) 977 204 213 465 1210 1840
2021-02-17 01:45 8.56 103 4020 (2019) 197 (2013) 977 204 213 465 1210 1840
2021-02-17 00:45 9.06 180 4020 (2019) 197 (2013) 977 204 213 465 1210 1840
2021-02-16 23:45 9.06 180 5110 (2019) 110 (2014) 1070 180 212 535 914 1760
2021-02-16 22:45 9.04 176 5110 (2019) 110 (2014) 1070 180 212 535 914 1760
2021-02-16 21:45 9.02 173 5110 (2019) 110 (2014) 1070 180 212 535 914 1760
2021-02-16 20:45 9.01 171 5110 (2019) 110 (2014) 1070 180 212 535 914 1760
2021-02-16 19:45 9.01 171 5110 (2019) 110 (2014) 1070 180 212 535 914 1760
2021-02-16 18:45 8.65 115 5110 (2019) 110 (2014) 1070 180 212 535 914 1760
2021-02-16 17:45 8.55 102 5110 (2019) 110 (2014) 1070 180 212 535 914 1760
2021-02-16 16:45 9.11 190 5110 (2019) 110 (2014) 1070 180 212 535 914 1760
2021-02-16 15:45 9.15 197 5110 (2019) 110 (2014) 1070 180 212 535 914 1760
2021-02-16 14:45 9.20 207 5110 (2019) 110 (2014) 1070 180 212 535 914 1760
2021-02-16 13:45 9.27 222 5110 (2019) 110 (2014) 1070 180 212 535 914 1760
2021-02-16 12:45 9.30 229 5110 (2019) 110 (2014) 1070 180 212 535 914 1760
2021-02-16 11:45 9.33 236 5110 (2019) 110 (2014) 1070 180 212 535 914 1760
2021-02-16 10:45 9.36 244 5110 (2019) 110 (2014) 1070 180 212 535 914 1760
2021-02-16 09:45 9.38 249 5110 (2019) 110 (2014) 1070 180 212 535 914 1760
2021-02-16 08:45 9.38 249 5110 (2019) 110 (2014) 1070 180 212 535 914 1760
2021-02-16 07:45 9.37 246 5110 (2019) 110 (2014) 1070 180 212 535 914 1760
2021-02-16 06:45 9.36 244 5110 (2019) 110 (2014) 1070 180 212 535 914 1760
2021-02-16 05:45 9.35 241 5110 (2019) 110 (2014) 1070 180 212 535 914 1760
2021-02-16 04:45 9.33 236 5110 (2019) 110 (2014) 1070 180 212 535 914 1760
2021-02-16 03:45 9.30 229 5110 (2019) 110 (2014) 1070 180 212 535 914 1760
2021-02-16 02:45 9.28 225 5110 (2019) 110 (2014) 1070 180 212 535 914 1760
2021-02-16 01:45 9.30 229 5110 (2019) 110 (2014) 1070 180 212 535 914 1760
2021-02-16 00:45 9.30 229 5110 (2019) 110 (2014) 1070 180 212 535 914 1760
2021-02-15 23:45 8.87 147 5950 (2019) 109 (2014) 1160 280 324 511 859 1940
2021-02-15 21:45 9.33 236 5950 (2019) 109 (2014) 1160 280 324 511 859 1940
2021-02-15 20:45 9.33 236 5950 (2019) 109 (2014) 1160 280 324 511 859 1940
2021-02-15 19:45 9.32 234 5950 (2019) 109 (2014) 1160 280 324 511 859 1940
2021-02-15 18:45 9.32 234 5950 (2019) 109 (2014) 1160 280 324 511 859 1940
2021-02-15 17:45 9.37 246 5950 (2019) 109 (2014) 1160 280 324 511 859 1940
2021-02-15 16:45 9.37 246 5950 (2019) 109 (2014) 1160 280 324 511 859 1940
2021-02-15 15:45 9.17 201 5950 (2019) 109 (2014) 1160 280 324 511 859 1940
2021-02-15 14:45 9.15 197 5950 (2019) 109 (2014) 1160 280 324 511 859 1940
2021-02-15 13:45 9.28 225 5950 (2019) 109 (2014) 1160 280 324 511 859 1940
2021-02-15 12:45 9.32 234 5950 (2019) 109 (2014) 1160 280 324 511 859 1940
2021-02-15 11:45 9.46 269 5950 (2019) 109 (2014) 1160 280 324 511 859 1940
2021-02-15 10:45 9.40 254 5950 (2019) 109 (2014) 1160 280 324 511 859 1940
2021-02-15 09:45 9.57 299 5950 (2019) 109 (2014) 1160 280 324 511 859 1940
2021-02-15 08:45 9.42 259 5950 (2019) 109 (2014) 1160 280 324 511 859 1940
2021-02-15 07:45 9.45 266 5950 (2019) 109 (2014) 1160 280 324 511 859 1940
2021-02-15 06:45 9.55 293 5950 (2019) 109 (2014) 1160 280 324 511 859 1940
2021-02-15 04:45 9.57 299 5950 (2019) 109 (2014) 1160 280 324 511 859 1940
2021-02-15 03:45 9.60 307 5950 (2019) 109 (2014) 1160 280 324 511 859 1940
2021-02-15 02:45 9.55 293 5950 (2019) 109 (2014) 1160 280 324 511 859 1940
2021-02-15 01:45 9.56 296 5950 (2019) 109 (2014) 1160 280 324 511 859 1940
2021-02-15 00:45 9.45 266 5950 (2019) 109 (2014) 1160 280 324 511 859 1940
2021-02-14 23:45 9.54 290 6480 (2019) 84 (2014) 1250 209 291 545 971 2180
2021-02-14 22:45 9.53 288 6480 (2019) 84 (2014) 1250 209 291 545 971 2180
2021-02-14 21:45 9.55 293 6480 (2019) 84 (2014) 1250 209 291 545 971 2180
2021-02-14 20:45 9.54 290 6480 (2019) 84 (2014) 1250 209 291 545 971 2180
2021-02-14 19:45 9.53 288 6480 (2019) 84 (2014) 1250 209 291 545 971 2180
2021-02-14 18:45 9.52 285 6480 (2019) 84 (2014) 1250 209 291 545 971 2180
2021-02-14 17:45 9.53 288 6480 (2019) 84 (2014) 1250 209 291 545 971 2180
2021-02-14 16:45 9.56 296 6480 (2019) 84 (2014) 1250 209 291 545 971 2180
2021-02-14 15:45 9.61 310 6480 (2019) 84 (2014) 1250 209 291 545 971 2180
2021-02-14 14:45 9.66 324 6480 (2019) 84 (2014) 1250 209 291 545 971 2180
2021-02-14 13:45 9.69 333 6480 (2019) 84 (2014) 1250 209 291 545 971 2180
2021-02-14 12:45 9.71 339 6480 (2019) 84 (2014) 1250 209 291 545 971 2180
2021-02-14 11:45 9.70 336 6480 (2019) 84 (2014) 1250 209 291 545 971 2180
2021-02-14 10:45 9.70 336 6480 (2019) 84 (2014) 1250 209 291 545 971 2180
2021-02-14 09:45 9.71 339 6480 (2019) 84 (2014) 1250 209 291 545 971 2180
2021-02-14 08:45 9.71 339 6480 (2019) 84 (2014) 1250 209 291 545 971 2180
2021-02-14 07:45 9.71 339 6480 (2019) 84 (2014) 1250 209 291 545 971 2180
2021-02-14 06:45 9.72 342 6480 (2019) 84 (2014) 1250 209 291 545 971 2180
2021-02-14 05:45 9.73 345 6480 (2019) 84 (2014) 1250 209 291 545 971 2180
2021-02-14 04:45 9.71 339 6480 (2019) 84 (2014) 1250 209 291 545 971 2180
2021-02-14 03:45 9.70 336 6480 (2019) 84 (2014) 1250 209 291 545 971 2180
2021-02-14 02:45 9.68 330 6480 (2019) 84 (2014) 1250 209 291 545 971 2180
2021-02-14 01:45 9.69 333 6480 (2019) 84 (2014) 1250 209 291 545 971 2180
2021-02-14 00:45 9.71 339 6480 (2019) 84 (2014) 1250 209 291 545 971 2180
2021-02-13 23:45 9.73 345 5180 (2019) 95 (2014) 1180 286 396 617 1190 2120
2021-02-13 22:45 9.75 351 5180 (2019) 95 (2014) 1180 286 396 617 1190 2120
2021-02-13 21:45 9.75 351 5180 (2019) 95 (2014) 1180 286 396 617 1190 2120
2021-02-13 20:45 9.73 345 5180 (2019) 95 (2014) 1180 286 396 617 1190 2120
2021-02-13 19:45 9.71 339 5180 (2019) 95 (2014) 1180 286 396 617 1190 2120
2021-02-13 18:45 9.68 330 5180 (2019) 95 (2014) 1180 286 396 617 1190 2120
2021-02-13 17:45 9.67 327 5180 (2019) 95 (2014) 1180 286 396 617 1190 2120
2021-02-13 16:45 9.67 327 5180 (2019) 95 (2014) 1180 286 396 617 1190 2120
2021-02-13 15:45 9.70 336 5180 (2019) 95 (2014) 1180 286 396 617 1190 2120
2021-02-13 14:45 9.74 348 5180 (2019) 95 (2014) 1180 286 396 617 1190 2120
2021-02-13 13:45 9.80 367 5180 (2019) 95 (2014) 1180 286 396 617 1190 2120
2021-02-13 12:45 9.84 380 5180 (2019) 95 (2014) 1180 286 396 617 1190 2120
2021-02-13 11:45 9.85 383 5180 (2019) 95 (2014) 1180 286 396 617 1190 2120
2021-02-13 10:45 9.88 393 5180 (2019) 95 (2014) 1180 286 396 617 1190 2120
2021-02-13 09:45 9.88 393 5180 (2019) 95 (2014) 1180 286 396 617 1190 2120
2021-02-13 08:45 9.89 396 5180 (2019) 95 (2014) 1180 286 396 617 1190 2120
2021-02-13 07:45 9.91 403 5180 (2019) 95 (2014) 1180 286 396 617 1190 2120
2021-02-13 06:45 9.92 406 5180 (2019) 95 (2014) 1180 286 396 617 1190 2120
2021-02-13 05:45 9.95 416 5180 (2019) 95 (2014) 1180 286 396 617 1190 2120
2021-02-13 04:45 9.95 416 5180 (2019) 95 (2014) 1180 286 396 617 1190 2120
2021-02-13 03:45 9.94 413 5180 (2019) 95 (2014) 1180 286 396 617 1190 2120
2021-02-13 02:45 9.92 406 5180 (2019) 95 (2014) 1180 286 396 617 1190 2120
2021-02-13 01:45 9.93 410 5180 (2019) 95 (2014) 1180 286 396 617 1190 2120
2021-02-13 00:45 9.97 423 5180 (2019) 95 (2014) 1180 286 396 617 1190 2120
2021-02-12 23:45 10.02 441 2980 (2019) 74 (2014) 957 251 349 711 1400 1890
2021-02-12 22:45 10.05 451 2980 (2019) 74 (2014) 957 251 349 711 1400 1890
2021-02-12 21:45 10.03 444 2980 (2019) 74 (2014) 957 251 349 711 1400 1890
2021-02-12 20:45 9.99 430 2980 (2019) 74 (2014) 957 251 349 711 1400 1890
2021-02-12 19:45 9.94 413 2980 (2019) 74 (2014) 957 251 349 711 1400 1890
2021-02-12 18:45 9.90 399 2980 (2019) 74 (2014) 957 251 349 711 1400 1890
2021-02-12 17:45 9.92 406 2980 (2019) 74 (2014) 957 251 349 711 1400 1890
2021-02-12 16:45 9.96 420 2980 (2019) 74 (2014) 957 251 349 711 1400 1890
2021-02-12 15:45 1 434 2980 (2019) 74 (2014) 957 251 349 711 1400 1890
2021-02-12 14:45 10.04 448 2980 (2019) 74 (2014) 957 251 349 711 1400 1890
2021-02-12 13:45 10.05 451 2980 (2019) 74 (2014) 957 251 349 711 1400 1890
2021-02-12 12:45 10.13 481 2980 (2019) 74 (2014) 957 251 349 711 1400 1890
2021-02-12 11:45 10.17 496 2980 (2019) 74 (2014) 957 251 349 711 1400 1890
2021-02-12 10:45 10.21 511 2980 (2019) 74 (2014) 957 251 349 711 1400 1890
2021-02-12 09:45 10.21 511 2980 (2019) 74 (2014) 957 251 349 711 1400 1890
2021-02-12 08:45 10.23 519 2980 (2019) 74 (2014) 957 251 349 711 1400 1890
2021-02-12 07:45 10.24 523 2980 (2019) 74 (2014) 957 251 349 711 1400 1890
2021-02-12 06:45 10.27 535 2980 (2019) 74 (2014) 957 251 349 711 1400 1890
2021-02-12 05:45 10.28 539 2980 (2019) 74 (2014) 957 251 349 711 1400 1890
2021-02-12 04:45 10.28 539 2980 (2019) 74 (2014) 957 251 349 711 1400 1890
2021-02-12 03:45 10.25 527 2980 (2019) 74 (2014) 957 251 349 711 1400 1890
2021-02-12 02:45 10.22 515 2980 (2019) 74 (2014) 957 251 349 711 1400 1890
2021-02-12 01:45 10.24 523 2980 (2019) 74 (2014) 957 251 349 711 1400 1890
2021-02-12 00:45 10.28 539 2980 (2019) 74 (2014) 957 251 349 711 1400 1890
2021-02-11 23:45 10.33 559 2360 (2019) 91 (2014) 953 285 402 773 1560 1900
2021-02-11 22:45 10.36 572 2360 (2019) 91 (2014) 953 285 402 773 1560 1900
2021-02-11 21:45 10.35 568 2360 (2019) 91 (2014) 953 285 402 773 1560 1900
2021-02-11 20:45 10.31 551 2360 (2019) 91 (2014) 953 285 402 773 1560 1900
2021-02-11 19:45 10.23 519 2360 (2019) 91 (2014) 953 285 402 773 1560 1900
2021-02-11 18:45 10.19 504 2360 (2019) 91 (2014) 953 285 402 773 1560 1900
2021-02-11 17:45 10.20 508 2360 (2019) 91 (2014) 953 285 402 773 1560 1900
2021-02-11 16:45 10.22 515 2360 (2019) 91 (2014) 953 285 402 773 1560 1900
2021-02-11 15:45 10.25 527 2360 (2019) 91 (2014) 953 285 402 773 1560 1900
2021-02-11 14:45 10.29 543 2360 (2019) 91 (2014) 953 285 402 773 1560 1900
2021-02-11 13:45 10.33 559 2360 (2019) 91 (2014) 953 285 402 773 1560 1900
2021-02-11 12:45 10.39 585 2360 (2019) 91 (2014) 953 285 402 773 1560 1900
2021-02-11 11:45 10.46 618 2360 (2019) 91 (2014) 953 285 402 773 1560 1900
2021-02-11 10:45 10.50 638 2360 (2019) 91 (2014) 953 285 402 773 1560 1900
2021-02-11 09:45 10.51 643 2360 (2019) 91 (2014) 953 285 402 773 1560 1900
2021-02-11 08:45 10.52 647 2360 (2019) 91 (2014) 953 285 402 773 1560 1900
2021-02-11 07:45 10.55 662 2360 (2019) 91 (2014) 953 285 402 773 1560 1900
2021-02-11 06:45 10.58 678 2360 (2019) 91 (2014) 953 285 402 773 1560 1900
2021-02-11 05:45 10.60 688 2360 (2019) 91 (2014) 953 285 402 773 1560 1900
2021-02-11 04:45 10.59 683 2360 (2019) 91 (2014) 953 285 402 773 1560 1900
2021-02-11 03:45 10.56 667 2360 (2019) 91 (2014) 953 285 402 773 1560 1900
2021-02-11 02:45 10.53 652 2360 (2019) 91 (2014) 953 285 402 773 1560 1900
2021-02-11 01:45 10.53 652 2360 (2019) 91 (2014) 953 285 402 773 1560 1900
2021-02-11 00:45 10.56 667 2360 (2019) 91 (2014) 953 285 402 773 1560 1900
2021-02-10 23:45 10.59 683 2860 (2020) 105 (2014) 1280 105 471 608 882 2300 2650 2860
2021-02-10 22:45 10.61 693 2860 (2020) 105 (2014) 1280 105 471 608 882 2300 2650 2860
2021-02-10 21:45 10.60 688 2860 (2020) 105 (2014) 1280 105 471 608 882 2300 2650 2860
2021-02-10 20:45 10.58 678 2860 (2020) 105 (2014) 1280 105 471 608 882 2300 2650 2860
2021-02-10 19:45 10.55 662 2860 (2020) 105 (2014) 1280 105 471 608 882 2300 2650 2860
2021-02-10 18:45 10.51 643 2860 (2020) 105 (2014) 1280 105 471 608 882 2300 2650 2860
2021-02-10 17:45 10.45 613 2860 (2020) 105 (2014) 1280 105 471 608 882 2300 2650 2860
2021-02-10 16:45 10.43 604 2860 (2020) 105 (2014) 1280 105 471 608 882 2300 2650 2860
2021-02-10 15:45 10.45 613 2860 (2020) 105 (2014) 1280 105 471 608 882 2300 2650 2860
2021-02-10 14:45 10.50 638 2860 (2020) 105 (2014) 1280 105 471 608 882 2300 2650 2860
2021-02-10 13:45 10.55 662 2860 (2020) 105 (2014) 1280 105 471 608 882 2300 2650 2860
2021-02-10 12:45 10.59 683 2860 (2020) 105 (2014) 1280 105 471 608 882 2300 2650 2860
2021-02-10 11:45 10.67 724 2860 (2020) 105 (2014) 1280 105 471 608 882 2300 2650 2860
2021-02-10 10:45 10.72 751 2860 (2020) 105 (2014) 1280 105 471 608 882 2300 2650 2860
2021-02-10 09:45 10.74 762 2860 (2020) 105 (2014) 1280 105 471 608 882 2300 2650 2860
2021-02-10 08:45 10.73 757 2860 (2020) 105 (2014) 1280 105 471 608 882 2300 2650 2860
2021-02-10 07:45 10.75 768 2860 (2020) 105 (2014) 1280 105 471 608 882 2300 2650 2860
2021-02-10 06:45 10.78 784 2860 (2020) 105 (2014) 1280 105 471 608 882 2300 2650 2860
2021-02-10 05:45 10.81 801 2860 (2020) 105 (2014) 1280 105 471 608 882 2300 2650 2860
2021-02-10 04:45 10.81 801 2860 (2020) 105 (2014) 1280 105 471 608 882 2300 2650 2860
2021-02-10 03:45 10.79 790 2860 (2020) 105 (2014) 1280 105 471 608 882 2300 2650 2860
2021-02-10 02:45 10.75 768 2860 (2020) 105 (2014) 1280 105 471 608 882 2300 2650 2860
2021-02-10 01:45 10.74 762 2860 (2020) 105 (2014) 1280 105 471 608 882 2300 2650 2860
2021-02-10 00:45 10.76 773 2860 (2020) 105 (2014) 1280 105 471 608 882 2300 2650 2860
2021-02-09 23:45 10.82 807 3650 (2019) 84 (2014) 1470 84 499 505 935 2540 3080 3650
2021-02-09 22:45 10.86 830 3650 (2019) 84 (2014) 1470 84 499 505 935 2540 3080 3650
2021-02-09 21:45 10.88 842 3650 (2019) 84 (2014) 1470 84 499 505 935 2540 3080 3650
2021-02-09 20:45 10.85 824 3650 (2019) 84 (2014) 1470 84 499 505 935 2540 3080 3650
2021-02-09 19:45 10.80 796 3650 (2019) 84 (2014) 1470 84 499 505 935 2540 3080 3650
2021-02-09 18:45 10.76 773 3650 (2019) 84 (2014) 1470 84 499 505 935 2540 3080 3650
2021-02-09 17:45 10.75 768 3650 (2019) 84 (2014) 1470 84 499 505 935 2540 3080 3650
2021-02-09 16:45 10.76 773 3650 (2019) 84 (2014) 1470 84 499 505 935 2540 3080 3650
2021-02-09 15:45 10.82 807 3650 (2019) 84 (2014) 1470 84 499 505 935 2540 3080 3650
2021-02-09 14:45 10.88 842 3650 (2019) 84 (2014) 1470 84 499 505 935 2540 3080 3650
2021-02-09 13:45 10.92 865 3650 (2019) 84 (2014) 1470 84 499 505 935 2540 3080 3650
2021-02-09 12:45 10.96 890 3650 (2019) 84 (2014) 1470 84 499 505 935 2540 3080 3650
2021-02-09 11:45 11.01 920 3650 (2019) 84 (2014) 1470 84 499 505 935 2540 3080 3650
2021-02-09 10:45 11.08 965 3650 (2019) 84 (2014) 1470 84 499 505 935 2540 3080 3650
2021-02-09 09:45 11.10 977 3650 (2019) 84 (2014) 1470 84 499 505 935 2540 3080 3650
2021-02-09 08:45 11.12 990 3650 (2019) 84 (2014) 1470 84 499 505 935 2540 3080 3650
2021-02-09 07:45 11.12 990 3650 (2019) 84 (2014) 1470 84 499 505 935 2540 3080 3650
2021-02-09 06:45 11.13 997 3650 (2019) 84 (2014) 1470 84 499 505 935 2540 3080 3650
2021-02-09 05:45 11.11 984 3650 (2019) 84 (2014) 1470 84 499 505 935 2540 3080 3650
2021-02-09 04:45 11.08 965 3650 (2019) 84 (2014) 1470 84 499 505 935 2540 3080 3650
2021-02-09 03:45 11.07 958 3650 (2019) 84 (2014) 1470 84 499 505 935 2540 3080 3650
2021-02-09 02:45 11.10 977 3650 (2019) 84 (2014) 1470 84 499 505 935 2540 3080 3650
2021-02-09 01:45 11.14 1000 3650 (2019) 84 (2014) 1470 84 499 505 935 2540 3080 3650
2021-02-09 00:45 11.18 1030 3650 (2019) 84 (2014) 1470 84 499 505 935 2540 3080 3650
2021-02-08 23:45 11.22 1060 3170 (2020) 62 (2014) 1500 62 399 460 1040 2630 3110 3170
2021-02-08 22:45 11.24 1070 3170 (2020) 62 (2014) 1500 62 399 460 1040 2630 3110 3170
2021-02-08 21:45 11.25 1080 3170 (2020) 62 (2014) 1500 62 399 460 1040 2630 3110 3170
2021-02-08 20:45 11.26 1080 3170 (2020) 62 (2014) 1500 62 399 460 1040 2630 3110 3170
2021-02-08 19:45 11.28 1100 3170 (2020) 62 (2014) 1500 62 399 460 1040 2630 3110 3170
2021-02-08 18:45 11.29 1110 3170 (2020) 62 (2014) 1500 62 399 460 1040 2630 3110 3170
2021-02-08 17:45 11.30 1110 3170 (2020) 62 (2014) 1500 62 399 460 1040 2630 3110 3170
2021-02-08 16:45 11.32 1130 3170 (2020) 62 (2014) 1500 62 399 460 1040 2630 3110 3170
2021-02-08 15:45 11.35 1150 3170 (2020) 62 (2014) 1500 62 399 460 1040 2630 3110 3170
2021-02-08 14:45 11.40 1180 3170 (2020) 62 (2014) 1500 62 399 460 1040 2630 3110 3170
2021-02-08 13:45 11.43 1210 3170 (2020) 62 (2014) 1500 62 399 460 1040 2630 3110 3170
2021-02-08 12:45 11.49 1250 3170 (2020) 62 (2014) 1500 62 399 460 1040 2630 3110 3170
2021-02-08 11:45 11.53 1280 3170 (2020) 62 (2014) 1500 62 399 460 1040 2630 3110 3170
2021-02-08 10:45 11.55 1300 3170 (2020) 62 (2014) 1500 62 399 460 1040 2630 3110 3170
2021-02-08 09:45 11.57 1310 3170 (2020) 62 (2014) 1500 62 399 460 1040 2630 3110 3170
2021-02-08 08:45 11.60 1340 3170 (2020) 62 (2014) 1500 62 399 460 1040 2630 3110 3170
2021-02-08 07:45 11.61 1340 3170 (2020) 62 (2014) 1500 62 399 460 1040 2630 3110 3170
2021-02-08 06:45 11.63 1360 3170 (2020) 62 (2014) 1500 62 399 460 1040 2630 3110 3170
2021-02-08 05:45 11.64 1370 3170 (2020) 62 (2014) 1500 62 399 460 1040 2630 3110 3170
2021-02-08 04:45 11.67 1390 3170 (2020) 62 (2014) 1500 62 399 460 1040 2630 3110 3170
2021-02-08 03:45 11.70 1420 3170 (2020) 62 (2014) 1500 62 399 460 1040 2630 3110 3170
2021-02-08 02:45 11.72 1430 3170 (2020) 62 (2014) 1500 62 399 460 1040 2630 3110 3170
2021-02-08 01:45 11.76 1470 3170 (2020) 62 (2014) 1500 62 399 460 1040 2630 3110 3170
2021-02-08 00:45 11.80 1500 3170 (2020) 62 (2014) 1500 62 399 460 1040 2630 3110 3170
2021-02-07 23:45 11.83 1520 3230 (2020) 115 (2014) 1610 115 319 456 1190 2770 2790 3230
2021-02-07 22:45 11.87 1560 3230 (2020) 115 (2014) 1610 115 319 456 1190 2770 2790 3230
2021-02-07 21:45 11.91 1590 3230 (2020) 115 (2014) 1610 115 319 456 1190 2770 2790 3230
2021-02-07 20:45 11.94 1620 3230 (2020) 115 (2014) 1610 115 319 456 1190 2770 2790 3230
2021-02-07 19:45 11.98 1660 3230 (2020) 115 (2014) 1610 115 319 456 1190 2770 2790 3230
2021-02-07 18:45 12.02 1690 3230 (2020) 115 (2014) 1610 115 319 456 1190 2770 2790 3230
2021-02-07 17:45 12.05 1710 3230 (2020) 115 (2014) 1610 115 319 456 1190 2770 2790 3230
2021-02-07 16:45 12.07 1730 3230 (2020) 115 (2014) 1610 115 319 456 1190 2770 2790 3230
2021-02-07 15:45 12.10 1750 3230 (2020) 115 (2014) 1610 115 319 456 1190 2770 2790 3230
2021-02-07 14:45 12.18 1820 3230 (2020) 115 (2014) 1610 115 319 456 1190 2770 2790 3230
2021-02-07 13:45 12.23 1860 3230 (2020) 115 (2014) 1610 115 319 456 1190 2770 2790 3230
2021-02-07 12:45 12.27 1900 3230 (2020) 115 (2014) 1610 115 319 456 1190 2770 2790 3230
2021-02-07 11:45 12.30 1920 3230 (2020) 115 (2014) 1610 115 319 456 1190 2770 2790 3230
2021-02-07 10:45 12.37 1980 3230 (2020) 115 (2014) 1610 115 319 456 1190 2770 2790 3230
2021-02-07 09:45 12.35 1970 3230 (2020) 115 (2014) 1610 115 319 456 1190 2770 2790 3230
2021-02-07 08:45 12.43 2040 3230 (2020) 115 (2014) 1610 115 319 456 1190 2770 2790 3230
2021-02-07 07:45 12.44 2050 3230 (2020) 115 (2014) 1610 115 319 456 1190 2770 2790 3230
2021-02-07 06:45 12.46 2060 3230 (2020) 115 (2014) 1610 115 319 456 1190 2770 2790 3230
2021-02-07 05:45 12.53 2130 3230 (2020) 115 (2014) 1610 115 319 456 1190 2770 2790 3230
2021-02-07 04:45 12.55 2150 3230 (2020) 115 (2014) 1610 115 319 456 1190 2770 2790 3230
2021-02-07 03:45 12.56 2150 3230 (2020) 115 (2014) 1610 115 319 456 1190 2770 2790 3230
2021-02-07 02:45 12.61 2200 3230 (2020) 115 (2014) 1610 115 319 456 1190 2770 2790 3230
2021-02-07 01:45 12.66 2250 3230 (2020) 115 (2014) 1610 115 319 456 1190 2770 2790 3230
2021-02-07 00:45 12.69 2280 3230 (2020) 115 (2014) 1610 115 319 456 1190 2770 2790 3230
2021-02-06 23:45 12.73 2320 3410 (2020) 92 (2014) 1790 92 385 478 1620 3140 3360 3410
2021-02-06 22:45 12.78 2370 3410 (2020) 92 (2014) 1790 92 385 478 1620 3140 3360 3410
2021-02-06 21:45 12.82 2410 3410 (2020) 92 (2014) 1790 92 385 478 1620 3140 3360 3410
2021-02-06 20:45 12.85 2440 3410 (2020) 92 (2014) 1790 92 385 478 1620 3140 3360 3410
2021-02-06 19:45 12.89 2480 3410 (2020) 92 (2014) 1790 92 385 478 1620 3140 3360 3410
2021-02-06 18:45 12.93 2520 3410 (2020) 92 (2014) 1790 92 385 478 1620 3140 3360 3410
2021-02-06 17:45 12.92 2510 3410 (2020) 92 (2014) 1790 92 385 478 1620 3140 3360 3410
2021-02-06 16:45 12.99 2580 3410 (2020) 92 (2014) 1790 92 385 478 1620 3140 3360 3410
2021-02-06 15:45 13.01 2600 3410 (2020) 92 (2014) 1790 92 385 478 1620 3140 3360 3410
2021-02-06 14:45 13.05 2640 3410 (2020) 92 (2014) 1790 92 385 478 1620 3140 3360 3410
2021-02-06 13:45 13.07 2670 3410 (2020) 92 (2014) 1790 92 385 478 1620 3140 3360 3410
2021-02-06 12:45 13.11 2710 3410 (2020) 92 (2014) 1790 92 385 478 1620 3140 3360 3410
2021-02-06 11:45 13.14 2750 3410 (2020) 92 (2014) 1790 92 385 478 1620 3140 3360 3410
2021-02-06 10:45 13.17 2780 3410 (2020) 92 (2014) 1790 92 385 478 1620 3140 3360 3410
2021-02-06 09:45 13.21 2830 3410 (2020) 92 (2014) 1790 92 385 478 1620 3140 3360 3410
2021-02-06 08:45 13.24 2870 3410 (2020) 92 (2014) 1790 92 385 478 1620 3140 3360 3410
2021-02-06 07:45 13.28 2920 3410 (2020) 92 (2014) 1790 92 385 478 1620 3140 3360 3410
2021-02-06 06:45 13.30 2940 3410 (2020) 92 (2014) 1790 92 385 478 1620 3140 3360 3410
2021-02-06 05:45 13.33 2980 3410 (2020) 92 (2014) 1790 92 385 478 1620 3140 3360 3410
2021-02-06 04:45 13.36 3010 3410 (2020) 92 (2014) 1790 92 385 478 1620 3140 3360 3410
2021-02-06 03:45 13.40 3070 3410 (2020) 92 (2014) 1790 92 385 478 1620 3140 3360 3410
2021-02-06 02:45 13.43 3100 3410 (2020) 92 (2014) 1790 92 385 478 1620 3140 3360 3410
2021-02-06 01:45 13.47 3150 3410 (2020) 92 (2014) 1790 92 385 478 1620 3140 3360 3410
2021-02-06 00:45 13.51 3210 3410 (2020) 92 (2014) 1790 92 385 478 1620 3140 3360 3410
2021-02-05 23:45 13.54 3250 3620 (2020) 126 (2014) 1810 126 526 560 1630 3220 3610 3620
2021-02-05 22:45 13.57 3280 3620 (2020) 126 (2014) 1810 126 526 560 1630 3220 3610 3620
2021-02-05 21:45 13.60 3320 3620 (2020) 126 (2014) 1810 126 526 560 1630 3220 3610 3620
2021-02-05 20:45 13.63 3360 3620 (2020) 126 (2014) 1810 126 526 560 1630 3220 3610 3620
2021-02-05 19:45 13.67 3420 3620 (2020) 126 (2014) 1810 126 526 560 1630 3220 3610 3620
2021-02-05 18:45 13.71 3470 3620 (2020) 126 (2014) 1810 126 526 560 1630 3220 3610 3620
2021-02-05 17:45 13.74 3510 3620 (2020) 126 (2014) 1810 126 526 560 1630 3220 3610 3620
2021-02-05 16:45 13.78 3570 3620 (2020) 126 (2014) 1810 126 526 560 1630 3220 3610 3620
2021-02-05 15:45 13.84 3650 3620 (2020) 126 (2014) 1810 126 526 560 1630 3220 3610 3620
2021-02-05 14:45 13.87 3690 3620 (2020) 126 (2014) 1810 126 526 560 1630 3220 3610 3620
2021-02-05 13:45 13.94 3780 3620 (2020) 126 (2014) 1810 126 526 560 1630 3220 3610 3620
2021-02-05 12:45 14.00 3860 3620 (2020) 126 (2014) 1810 126 526 560 1630 3220 3610 3620
2021-02-05 11:45 14.06 3940 3620 (2020) 126 (2014) 1810 126 526 560 1630 3220 3610 3620
2021-02-05 10:45 14.10 3990 3620 (2020) 126 (2014) 1810 126 526 560 1630 3220 3610 3620
2021-02-05 09:45 14.15 4060 3620 (2020) 126 (2014) 1810 126 526 560 1630 3220 3610 3620
2021-02-05 08:45 14.22 4160 3620 (2020) 126 (2014) 1810 126 526 560 1630 3220 3610 3620
2021-02-05 07:45 14.30 4270 3620 (2020) 126 (2014) 1810 126 526 560 1630 3220 3610 3620
2021-02-05 06:45 14.36 4350 3620 (2020) 126 (2014) 1810 126 526 560 1630 3220 3610 3620
2021-02-05 05:45 14.43 4450 3620 (2020) 126 (2014) 1810 126 526 560 1630 3220 3610 3620
2021-02-05 04:45 14.51 4570 3620 (2020) 126 (2014) 1810 126 526 560 1630 3220 3610 3620
2021-02-05 03:45 14.58 4670 3620 (2020) 126 (2014) 1810 126 526 560 1630 3220 3610 3620
2021-02-05 02:45 14.65 4770 3620 (2020) 126 (2014) 1810 126 526 560 1630 3220 3610 3620
2021-02-05 01:45 14.73 4870 3620 (2020) 126 (2014) 1810 126 526 560 1630 3220 3610 3620
2021-02-05 00:45 14.81 4970 3620 (2020) 126 (2014) 1810 126 526 560 1630 3220 3610 3620
2021-02-04 23:45 14.91 5100 3890 (2020) 106 (2014) 1790 106 601 668 1170 2990 3250 3890
2021-02-04 22:45 15.00 5210 3890 (2020) 106 (2014) 1790 106 601 668 1170 2990 3250 3890
2021-02-04 21:45 15.07 5300 3890 (2020) 106 (2014) 1790 106 601 668 1170 2990 3250 3890
2021-02-04 20:45 15.16 5420 3890 (2020) 106 (2014) 1790 106 601 668 1170 2990 3250 3890
2021-02-04 19:45 15.25 5530 3890 (2020) 106 (2014) 1790 106 601 668 1170 2990 3250 3890
2021-02-04 18:45 15.34 5650 3890 (2020) 106 (2014) 1790 106 601 668 1170 2990 3250 3890
2021-02-04 17:45 15.39 5720 3890 (2020) 106 (2014) 1790 106 601 668 1170 2990 3250 3890
2021-02-04 16:45 15.48 5840 3890 (2020) 106 (2014) 1790 106 601 668 1170 2990 3250 3890
2021-02-04 15:45 15.58 5980 3890 (2020) 106 (2014) 1790 106 601 668 1170 2990 3250 3890
2021-02-04 14:45 15.69 6120 3890 (2020) 106 (2014) 1790 106 601 668 1170 2990 3250 3890
2021-02-04 13:45 15.79 6250 3890 (2020) 106 (2014) 1790 106 601 668 1170 2990 3250 3890
2021-02-04 12:45 15.90 6390 3890 (2020) 106 (2014) 1790 106 601 668 1170 2990 3250 3890
2021-02-04 11:45 16.03 6560 3890 (2020) 106 (2014) 1790 106 601 668 1170 2990 3250 3890
2021-02-04 10:45 16.11 6660 3890 (2020) 106 (2014) 1790 106 601 668 1170 2990 3250 3890
2021-02-04 09:45 16.22 6810 3890 (2020) 106 (2014) 1790 106 601 668 1170 2990 3250 3890
2021-02-04 08:45 16.39 7030 3890 (2020) 106 (2014) 1790 106 601 668 1170 2990 3250 3890
2021-02-04 07:45 16.49 7170 3890 (2020) 106 (2014) 1790 106 601 668 1170 2990 3250 3890
2021-02-04 06:45 16.61 7330 3890 (2020) 106 (2014) 1790 106 601 668 1170 2990 3250 3890
2021-02-04 05:45 16.72 7490 3890 (2020) 106 (2014) 1790 106 601 668 1170 2990 3250 3890
2021-02-04 04:45 16.84 7650 3890 (2020) 106 (2014) 1790 106 601 668 1170 2990 3250 3890
2021-02-04 03:45 16.94 7790 3890 (2020) 106 (2014) 1790 106 601 668 1170 2990 3250 3890
2021-02-04 02:45 17.07 7980 3890 (2020) 106 (2014) 1790 106 601 668 1170 2990 3250 3890
2021-02-04 01:45 17.17 8120 3890 (2020) 106 (2014) 1790 106 601 668 1170 2990 3250 3890
2021-02-04 00:45 17.29 8300 3890 (2020) 106 (2014) 1790 106 601 668 1170 2990 3250 3890
2021-02-03 23:45 17.39 8450 4250 (2020) 123 (2012) 1780 123 147 394 1220 2860 3000 4250
2021-02-03 22:45 17.49 8600 4250 (2020) 123 (2012) 1780 123 147 394 1220 2860 3000 4250
2021-02-03 21:45 17.60 8750 4250 (2020) 123 (2012) 1780 123 147 394 1220 2860 3000 4250
2021-02-03 20:45 17.67 8850 4250 (2020) 123 (2012) 1780 123 147 394 1220 2860 3000 4250
2021-02-03 19:45 17.75 8960 4250 (2020) 123 (2012) 1780 123 147 394 1220 2860 3000 4250
2021-02-03 18:45 17.84 9090 4250 (2020) 123 (2012) 1780 123 147 394 1220 2860 3000 4250
2021-02-03 17:45 17.96 9260 4250 (2020) 123 (2012) 1780 123 147 394 1220 2860 3000 4250
2021-02-03 16:45 18.04 9380 4250 (2020) 123 (2012) 1780 123 147 394 1220 2860 3000 4250
2021-02-03 15:45 18.11 9500 4250 (2020) 123 (2012) 1780 123 147 394 1220 2860 3000 4250
2021-02-03 14:45 18.20 9650 4250 (2020) 123 (2012) 1780 123 147 394 1220 2860 3000 4250
2021-02-03 13:45 18.27 9770 4250 (2020) 123 (2012) 1780 123 147 394 1220 2860 3000 4250
2021-02-03 12:45 18.37 9930 4250 (2020) 123 (2012) 1780 123 147 394 1220 2860 3000 4250
2021-02-03 11:45 18.42 10000 4250 (2020) 123 (2012) 1780 123 147 394 1220 2860 3000 4250
2021-02-03 10:45 18.48 10100 4250 (2020) 123 (2012) 1780 123 147 394 1220 2860 3000 4250
2021-02-03 09:45 18.55 10200 4250 (2020) 123 (2012) 1780 123 147 394 1220 2860 3000 4250
2021-02-03 08:45 18.64 10400 4250 (2020) 123 (2012) 1780 123 147 394 1220 2860 3000 4250
2021-02-03 07:45 18.71 10500 4250 (2020) 123 (2012) 1780 123 147 394 1220 2860 3000 4250
2021-02-03 06:45 18.76 10600 4250 (2020) 123 (2012) 1780 123 147 394 1220 2860 3000 4250
2021-02-03 05:45 18.82 10700 4250 (2020) 123 (2012) 1780 123 147 394 1220 2860 3000 4250
2021-02-03 04:45 18.87 10800 4250 (2020) 123 (2012) 1780 123 147 394 1220 2860 3000 4250
2021-02-03 03:45 18.92 10900 4250 (2020) 123 (2012) 1780 123 147 394 1220 2860 3000 4250
2021-02-03 02:45 18.96 11000 4250 (2020) 123 (2012) 1780 123 147 394 1220 2860 3000 4250
2021-02-03 01:45 19.01 11000 4250 (2020) 123 (2012) 1780 123 147 394 1220 2860 3000 4250
2021-02-03 00:45 19.04 11100 4250 (2020) 123 (2012) 1780 123 147 394 1220 2860 3000 4250
2021-02-02 23:45 19.09 11200 4670 (2020) 61 (2012) 1740 61 191 350 1270 2820 3150 4670
2021-02-02 22:45 19.12 11200 4670 (2020) 61 (2012) 1740 61 191 350 1270 2820 3150 4670
2021-02-02 21:45 19.16 11300 4670 (2020) 61 (2012) 1740 61 191 350 1270 2820 3150 4670
2021-02-02 20:45 19.20 11400 4670 (2020) 61 (2012) 1740 61 191 350 1270 2820 3150 4670
2021-02-02 19:45 19.23 11400 4670 (2020) 61 (2012) 1740 61 191 350 1270 2820 3150 4670
2021-02-02 18:45 19.26 11500 4670 (2020) 61 (2012) 1740 61 191 350 1270 2820 3150 4670
2021-02-02 17:45 19.29 11500 4670 (2020) 61 (2012) 1740 61 191 350 1270 2820 3150 4670
2021-02-02 16:45 19.32 11600 4670 (2020) 61 (2012) 1740 61 191 350 1270 2820 3150 4670
2021-02-02 15:45 19.35 11700 4670 (2020) 61 (2012) 1740 61 191 350 1270 2820 3150 4670
2021-02-02 14:45 19.38 11700 4670 (2020) 61 (2012) 1740 61 191 350 1270 2820 3150 4670
2021-02-02 13:45 19.40 11700 4670 (2020) 61 (2012) 1740 61 191 350 1270 2820 3150 4670
2021-02-02 12:45 19.42 11800 4670 (2020) 61 (2012) 1740 61 191 350 1270 2820 3150 4670
2021-02-02 11:45 19.44 11800 4670 (2020) 61 (2012) 1740 61 191 350 1270 2820 3150 4670
2021-02-02 10:45 19.46 11900 4670 (2020) 61 (2012) 1740 61 191 350 1270 2820 3150 4670
2021-02-02 09:45 19.48 11900 4670 (2020) 61 (2012) 1740 61 191 350 1270 2820 3150 4670
2021-02-02 08:45 19.49 11900 4670 (2020) 61 (2012) 1740 61 191 350 1270 2820 3150 4670
2021-02-02 07:45 19.51 11900 4670 (2020) 61 (2012) 1740 61 191 350 1270 2820 3150 4670
2021-02-02 06:45 19.53 12000 4670 (2020) 61 (2012) 1740 61 191 350 1270 2820 3150 4670
2021-02-02 05:45 19.54 12000 4670 (2020) 61 (2012) 1740 61 191 350 1270 2820 3150 4670
2021-02-02 04:45 19.57 12100 4670 (2020) 61 (2012) 1740 61 191 350 1270 2820 3150 4670
2021-02-02 03:45 19.58 12100 4670 (2020) 61 (2012) 1740 61 191 350 1270 2820 3150 4670
2021-02-02 02:45 19.60 12100 4670 (2020) 61 (2012) 1740 61 191 350 1270 2820 3150 4670
2021-02-02 01:45 19.61 12100 4670 (2020) 61 (2012) 1740 61 191 350 1270 2820 3150 4670
2021-02-02 00:45 19.62 12200 4670 (2020) 61 (2012) 1740 61 191 350 1270 2820 3150 4670
2021-02-01 23:45 19.64 12200 5170 (2020) 111 (2012) 2020 111 172 223 1340 4090 4870 5170
2021-02-01 22:45 19.66 12200 5170 (2020) 111 (2012) 2020 111 172 223 1340 4090 4870 5170
2021-02-01 21:45 19.67 12200 5170 (2020) 111 (2012) 2020 111 172 223 1340 4090 4870 5170
2021-02-01 20:45 19.69 12300 5170 (2020) 111 (2012) 2020 111 172 223 1340 4090 4870 5170
2021-02-01 19:45 19.69 12300 5170 (2020) 111 (2012) 2020 111 172 223 1340 4090 4870 5170
2021-02-01 18:45 19.70 12300 5170 (2020) 111 (2012) 2020 111 172 223 1340 4090 4870 5170
2021-02-01 17:45 19.73 12400 5170 (2020) 111 (2012) 2020 111 172 223 1340 4090 4870 5170
2021-02-01 16:45 19.73 12400 5170 (2020) 111 (2012) 2020 111 172 223 1340 4090 4870 5170
2021-02-01 15:45 19.74 12400 5170 (2020) 111 (2012) 2020 111 172 223 1340 4090 4870 5170
2021-02-01 14:45 19.74 12400 5170 (2020) 111 (2012) 2020 111 172 223 1340 4090 4870 5170
2021-02-01 13:45 19.75 12400 5170 (2020) 111 (2012) 2020 111 172 223 1340 4090 4870 5170
2021-02-01 12:45 19.74 12400 5170 (2020) 111 (2012) 2020 111 172 223 1340 4090 4870 5170
2021-02-01 11:45 19.74 12400 5170 (2020) 111 (2012) 2020 111 172 223 1340 4090 4870 5170
2021-02-01 10:45 19.73 12400 5170 (2020) 111 (2012) 2020 111 172 223 1340 4090 4870 5170
2021-02-01 09:45 19.72 12300 5170 (2020) 111 (2012) 2020 111 172 223 1340 4090 4870 5170
2021-02-01 08:45 19.70 12300 5170 (2020) 111 (2012) 2020 111 172 223 1340 4090 4870 5170
2021-02-01 07:45 19.67 12200 5170 (2020) 111 (2012) 2020 111 172 223 1340 4090 4870 5170
2021-02-01 06:45 19.66 12200 5170 (2020) 111 (2012) 2020 111 172 223 1340 4090 4870 5170
2021-02-01 05:45 19.62 12200 5170 (2020) 111 (2012) 2020 111 172 223 1340 4090 4870 5170
2021-02-01 04:45 19.57 12100 5170 (2020) 111 (2012) 2020 111 172 223 1340 4090 4870 5170
2021-02-01 03:45 19.53 12000 5170 (2020) 111 (2012) 2020 111 172 223 1340 4090 4870 5170
2021-02-01 02:45 19.48 11900 5170 (2020) 111 (2012) 2020 111 172 223 1340 4090 4870 5170
2021-02-01 01:45 19.42 11800 5170 (2020) 111 (2012) 2020 111 172 223 1340 4090 4870 5170
2021-02-01 00:45 19.34 11600 5170 (2020) 111 (2012) 2020 111 172 223 1340 4090 4870 5170
2021-01-31 23:45 19.28 11500 6380 (2013) 98 (2012) 2280 98 161 191 1440 4630 5370 6380
2021-01-31 22:45 19.18 11300 6380 (2013) 98 (2012) 2280 98 161 191 1440 4630 5370 6380
2021-01-31 21:45 19.11 11200 6380 (2013) 98 (2012) 2280 98 161 191 1440 4630 5370 6380
2021-01-31 20:45 19.02 11100 6380 (2013) 98 (2012) 2280 98 161 191 1440 4630 5370 6380
2021-01-31 19:45 18.92 10900 6380 (2013) 98 (2012) 2280 98 161 191 1440 4630 5370 6380
2021-01-31 18:45 18.83 10700 6380 (2013) 98 (2012) 2280 98 161 191 1440 4630 5370 6380
2021-01-31 17:45 18.73 10600 6380 (2013) 98 (2012) 2280 98 161 191 1440 4630 5370 6380
2021-01-31 16:45 18.62 10400 6380 (2013) 98 (2012) 2280 98 161 191 1440 4630 5370 6380
2021-01-31 15:45 18.53 10200 6380 (2013) 98 (2012) 2280 98 161 191 1440 4630 5370 6380
2021-01-31 14:45 18.41 10000 6380 (2013) 98 (2012) 2280 98 161 191 1440 4630 5370 6380
2021-01-31 13:45 18.33 9870 6380 (2013) 98 (2012) 2280 98 161 191 1440 4630 5370 6380
2021-01-31 12:45 18.21 9670 6380 (2013) 98 (2012) 2280 98 161 191 1440 4630 5370 6380
2021-01-31 11:45 18.10 9480 6380 (2013) 98 (2012) 2280 98 161 191 1440 4630 5370 6380
2021-01-31 10:45 17.94 9230 6380 (2013) 98 (2012) 2280 98 161 191 1440 4630 5370 6380
2021-01-31 09:45 17.79 9020 6380 (2013) 98 (2012) 2280 98 161 191 1440 4630 5370 6380
2021-01-31 08:45 17.59 8740 6380 (2013) 98 (2012) 2280 98 161 191 1440 4630 5370 6380
2021-01-31 07:45 17.43 8510 6380 (2013) 98 (2012) 2280 98 161 191 1440 4630 5370 6380
2021-01-31 06:45 17.23 8210 6380 (2013) 98 (2012) 2280 98 161 191 1440 4630 5370 6380
2021-01-31 05:45 17.02 7910 6380 (2013) 98 (2012) 2280 98 161 191 1440 4630 5370 6380
2021-01-31 04:45 16.78 7570 6380 (2013) 98 (2012) 2280 98 161 191 1440 4630 5370 6380
2021-01-31 03:45 16.52 7210 6380 (2013) 98 (2012) 2280 98 161 191 1440 4630 5370 6380
2021-01-31 02:45 16.28 6890 6380 (2013) 98 (2012) 2280 98 161 191 1440 4630 5370 6380
2021-01-31 01:45 15.97 6480 6380 (2013) 98 (2012) 2280 98 161 191 1440 4630 5370 6380
2021-01-31 00:45 15.63 6040 6380 (2013) 98 (2012) 2280 98 161 191 1440 4630 5370 6380
2021-01-30 23:45 15.24 5520 5570 (2020) 131 (2012) 2150 131 175 200 1530 4330 4610 5570
2021-01-30 22:45 14.83 5000 5570 (2020) 131 (2012) 2150 131 175 200 1530 4330 4610 5570
2021-01-30 21:45 14.40 4410 5570 (2020) 131 (2012) 2150 131 175 200 1530 4330 4610 5570
2021-01-30 20:45 13.97 3820 5570 (2020) 131 (2012) 2150 131 175 200 1530 4330 4610 5570
2021-01-30 19:45 13.57 3280 5570 (2020) 131 (2012) 2150 131 175 200 1530 4330 4610 5570
2021-01-30 18:45 13.17 2780 5570 (2020) 131 (2012) 2150 131 175 200 1530 4330 4610 5570
2021-01-30 17:45 12.81 2400 5570 (2020) 131 (2012) 2150 131 175 200 1530 4330 4610 5570
2021-01-30 16:45 12.54 2140 5570 (2020) 131 (2012) 2150 131 175 200 1530 4330 4610 5570
2021-01-30 15:45 12.36 1970 5570 (2020) 131 (2012) 2150 131 175 200 1530 4330 4610 5570
2021-01-30 14:45 12.27 1900 5570 (2020) 131 (2012) 2150 131 175 200 1530 4330 4610 5570
2021-01-30 13:45 12.22 1850 5570 (2020) 131 (2012) 2150 131 175 200 1530 4330 4610 5570
2021-01-30 12:45 12.20 1840 5570 (2020) 131 (2012) 2150 131 175 200 1530 4330 4610 5570
2021-01-30 11:45 12.19 1830 5570 (2020) 131 (2012) 2150 131 175 200 1530 4330 4610 5570
2021-01-30 10:45 12.21 1850 5570 (2020) 131 (2012) 2150 131 175 200 1530 4330 4610 5570
2021-01-30 09:45 12.22 1850 5570 (2020) 131 (2012) 2150 131 175 200 1530 4330 4610 5570
2021-01-30 08:45 12.21 1850 5570 (2020) 131 (2012) 2150 131 175 200 1530 4330 4610 5570
2021-01-30 07:45 12.24 1870 5570 (2020) 131 (2012) 2150 131 175 200 1530 4330 4610 5570
2021-01-30 06:45 12.23 1860 5570 (2020) 131 (2012) 2150 131 175 200 1530 4330 4610 5570
2021-01-30 05:45 12.24 1870 5570 (2020) 131 (2012) 2150 131 175 200 1530 4330 4610 5570
2021-01-30 04:45 12.27 1900 5570 (2020) 131 (2012) 2150 131 175 200 1530 4330 4610 5570
2021-01-30 03:45 12.30 1920 5570 (2020) 131 (2012) 2150 131 175 200 1530 4330 4610 5570
2021-01-30 02:45 12.33 1950 5570 (2020) 131 (2012) 2150 131 175 200 1530 4330 4610 5570
2021-01-30 01:45 12.37 1980 5570 (2020) 131 (2012) 2150 131 175 200 1530 4330 4610 5570
2021-01-30 00:45 12.41 2020 5570 (2020) 131 (2012) 2150 131 175 200 1530 4330 4610 5570
2021-01-29 23:45 12.46 2060 6050 (2020) 120 (2012) 1730 120 155 180 575 3160 3780 6050
2021-01-29 22:45 12.50 2100 6050 (2020) 120 (2012) 1730 120 155 180 575 3160 3780 6050
2021-01-29 21:45 12.56 2150 6050 (2020) 120 (2012) 1730 120 155 180 575 3160 3780 6050
2021-01-29 20:45 12.61 2200 6050 (2020) 120 (2012) 1730 120 155 180 575 3160 3780 6050
2021-01-29 19:45 12.66 2250 6050 (2020) 120 (2012) 1730 120 155 180 575 3160 3780 6050
2021-01-29 18:45 12.70 2290 6050 (2020) 120 (2012) 1730 120 155 180 575 3160 3780 6050
2021-01-29 17:45 12.75 2340 6050 (2020) 120 (2012) 1730 120 155 180 575 3160 3780 6050
2021-01-29 16:45 12.83 2420 6050 (2020) 120 (2012) 1730 120 155 180 575 3160 3780 6050
2021-01-29 15:45 12.89 2480 6050 (2020) 120 (2012) 1730 120 155 180 575 3160 3780 6050
2021-01-29 14:45 12.95 2540 6050 (2020) 120 (2012) 1730 120 155 180 575 3160 3780 6050
2021-01-29 13:45 13.05 2640 6050 (2020) 120 (2012) 1730 120 155 180 575 3160 3780 6050
2021-01-29 12:45 13.12 2730 6050 (2020) 120 (2012) 1730 120 155 180 575 3160 3780 6050
2021-01-29 11:45 13.19 2810 6050 (2020) 120 (2012) 1730 120 155 180 575 3160 3780 6050
2021-01-29 09:45 13.34 2990 6050 (2020) 120 (2012) 1730 120 155 180 575 3160 3780 6050
2021-01-29 08:45 13.40 3070 6050 (2020) 120 (2012) 1730 120 155 180 575 3160 3780 6050
2021-01-29 07:45 13.48 3170 6050 (2020) 120 (2012) 1730 120 155 180 575 3160 3780 6050
2021-01-29 06:45 13.56 3270 6050 (2020) 120 (2012) 1730 120 155 180 575 3160 3780 6050
2021-01-29 05:45 13.63 3360 6050 (2020) 120 (2012) 1730 120 155 180 575 3160 3780 6050
2021-01-29 04:45 13.69 3450 6050 (2020) 120 (2012) 1730 120 155 180 575 3160 3780 6050
2021-01-29 03:45 13.74 3510 6050 (2020) 120 (2012) 1730 120 155 180 575 3160 3780 6050
2021-01-29 02:45 13.80 3600 6050 (2020) 120 (2012) 1730 120 155 180 575 3160 3780 6050
2021-01-29 01:45 13.87 3690 6050 (2020) 120 (2012) 1730 120 155 180 575 3160 3780 6050
2021-01-29 00:45 13.94 3780 6050 (2020) 120 (2012) 1730 120 155 180 575 3160 3780 6050
2021-01-28 23:45 14.01 3870 6720 (2020) 50 (2013) 1820 50 125 149 603 3190 3930 6720
2021-01-28 22:45 14.08 3970 6720 (2020) 50 (2013) 1820 50 125 149 603 3190 3930 6720
2021-01-28 21:45 14.16 4070 6720 (2020) 50 (2013) 1820 50 125 149 603 3190 3930 6720
2021-01-28 20:45 14.23 4170 6720 (2020) 50 (2013) 1820 50 125 149 603 3190 3930 6720
2021-01-28 19:45 14.32 4290 6720 (2020) 50 (2013) 1820 50 125 149 603 3190 3930 6720
2021-01-28 18:45 14.40 4410 6720 (2020) 50 (2013) 1820 50 125 149 603 3190 3930 6720
2021-01-28 17:45 14.48 4520 6720 (2020) 50 (2013) 1820 50 125 149 603 3190 3930 6720
2021-01-28 16:45 14.57 4650 6720 (2020) 50 (2013) 1820 50 125 149 603 3190 3930 6720
2021-01-28 15:45 14.65 4770 6720 (2020) 50 (2013) 1820 50 125 149 603 3190 3930 6720
2021-01-28 14:45 14.74 4890 6720 (2020) 50 (2013) 1820 50 125 149 603 3190 3930 6720
2021-01-28 13:45 14.82 4980 6720 (2020) 50 (2013) 1820 50 125 149 603 3190 3930 6720
2021-01-28 12:45 14.90 5080 6720 (2020) 50 (2013) 1820 50 125 149 603 3190 3930 6720
2021-01-28 11:45 14.97 5170 6720 (2020) 50 (2013) 1820 50 125 149 603 3190 3930 6720
2021-01-28 10:45 15.02 5240 6720 (2020) 50 (2013) 1820 50 125 149 603 3190 3930 6720
2021-01-28 09:45 15.09 5330 6720 (2020) 50 (2013) 1820 50 125 149 603 3190 3930 6720
2021-01-28 08:45 15.15 5400 6720 (2020) 50 (2013) 1820 50 125 149 603 3190 3930 6720
2021-01-28 07:45 15.20 5470 6720 (2020) 50 (2013) 1820 50 125 149 603 3190 3930 6720
2021-01-28 06:45 15.26 5550 6720 (2020) 50 (2013) 1820 50 125 149 603 3190 3930 6720
2021-01-28 05:45 15.31 5610 6720 (2020) 50 (2013) 1820 50 125 149 603 3190 3930 6720
2021-01-28 04:45 15.35 5670 6720 (2020) 50 (2013) 1820 50 125 149 603 3190 3930 6720
2021-01-28 03:45 15.40 5730 6720 (2020) 50 (2013) 1820 50 125 149 603 3190 3930 6720
2021-01-28 02:45 15.45 5800 6720 (2020) 50 (2013) 1820 50 125 149 603 3190 3930 6720
2021-01-28 01:45 15.49 5850 6720 (2020) 50 (2013) 1820 50 125 149 603 3190 3930 6720
2021-01-28 00:45 15.53 5910 6720 (2020) 50 (2013) 1820 50 125 149 603 3190 3930 6720
2021-01-27 23:45 15.57 5960 7410 (2020) 50 (2013) 1990 50 166 167 518 3440 4270 7410
2021-01-27 22:45 15.60 6000 7410 (2020) 50 (2013) 1990 50 166 167 518 3440 4270 7410
2021-01-27 21:45 15.64 6060 7410 (2020) 50 (2013) 1990 50 166 167 518 3440 4270 7410
2021-01-27 20:45 15.68 6110 7410 (2020) 50 (2013) 1990 50 166 167 518 3440 4270 7410
2021-01-27 19:45 15.71 6150 7410 (2020) 50 (2013) 1990 50 166 167 518 3440 4270 7410
2021-01-27 18:45 15.74 6180 7410 (2020) 50 (2013) 1990 50 166 167 518 3440 4270 7410
2021-01-27 17:45 15.78 6230 7410 (2020) 50 (2013) 1990 50 166 167 518 3440 4270 7410
2021-01-27 16:45 15.81 6270 7410 (2020) 50 (2013) 1990 50 166 167 518 3440 4270 7410
2021-01-27 15:45 15.84 6310 7410 (2020) 50 (2013) 1990 50 166 167 518 3440 4270 7410
2021-01-27 14:45 15.87 6350 7410 (2020) 50 (2013) 1990 50 166 167 518 3440 4270 7410
2021-01-27 13:45 15.89 6370 7410 (2020) 50 (2013) 1990 50 166 167 518 3440 4270 7410
2021-01-27 12:45 15.92 6410 7410 (2020) 50 (2013) 1990 50 166 167 518 3440 4270 7410
2021-01-27 11:45 15.93 6430 7410 (2020) 50 (2013) 1990 50 166 167 518 3440 4270 7410
2021-01-27 10:45 15.96 6460 7410 (2020) 50 (2013) 1990 50 166 167 518 3440 4270 7410
2021-01-27 09:45 15.97 6480 7410 (2020) 50 (2013) 1990 50 166 167 518 3440 4270 7410
2021-01-27 08:45 15.99 6500 7410 (2020) 50 (2013) 1990 50 166 167 518 3440 4270 7410
2021-01-27 07:45 16.00 6520 7410 (2020) 50 (2013) 1990 50 166 167 518 3440 4270 7410
2021-01-27 06:45 16.01 6530 7410 (2020) 50 (2013) 1990 50 166 167 518 3440 4270 7410
2021-01-27 05:45 16.01 6530 7410 (2020) 50 (2013) 1990 50 166 167 518 3440 4270 7410
2021-01-27 04:45 16.02 6540 7410 (2020) 50 (2013) 1990 50 166 167 518 3440 4270 7410
2021-01-27 03:45 16.02 6540 7410 (2020) 50 (2013) 1990 50 166 167 518 3440 4270 7410
2021-01-27 02:45 16.03 6560 7410 (2020) 50 (2013) 1990 50 166 167 518 3440 4270 7410
2021-01-27 01:45 16.03 6560 7410 (2020) 50 (2013) 1990 50 166 167 518 3440 4270 7410
2021-01-27 00:45 16.02 6540 7410 (2020) 50 (2013) 1990 50 166 167 518 3440 4270 7410
2021-01-26 23:45 16.02 6540 7950 (2020) 50 (2012) 2200 50 50 98 484 4280 4800 7950
2021-01-26 22:45 16.00 6520 7950 (2020) 50 (2012) 2200 50 50 98 484 4280 4800 7950
2021-01-26 21:45 15.98 6490 7950 (2020) 50 (2012) 2200 50 50 98 484 4280 4800 7950
2021-01-26 20:45 15.95 6450 7950 (2020) 50 (2012) 2200 50 50 98 484 4280 4800 7950
2021-01-26 19:45 15.90 6390 7950 (2020) 50 (2012) 2200 50 50 98 484 4280 4800 7950
2021-01-26 18:45 15.86 6340 7950 (2020) 50 (2012) 2200 50 50 98 484 4280 4800 7950
2021-01-26 17:45 15.81 6270 7950 (2020) 50 (2012) 2200 50 50 98 484 4280 4800 7950
2021-01-26 16:45 15.74 6180 7950 (2020) 50 (2012) 2200 50 50 98 484 4280 4800 7950
2021-01-26 15:45 15.67 6090 7950 (2020) 50 (2012) 2200 50 50 98 484 4280 4800 7950
2021-01-26 14:45 15.57 5960 7950 (2020) 50 (2012) 2200 50 50 98 484 4280 4800 7950
2021-01-26 13:45 15.46 5810 7950 (2020) 50 (2012) 2200 50 50 98 484 4280 4800 7950
2021-01-26 12:45 15.34 5650 7950 (2020) 50 (2012) 2200 50 50 98 484 4280 4800 7950
2021-01-26 11:45 15.19 5450 7950 (2020) 50 (2012) 2200 50 50 98 484 4280 4800 7950
2021-01-26 10:45 15.08 5310 7950 (2020) 50 (2012) 2200 50 50 98 484 4280 4800 7950
2021-01-26 09:45 14.93 5120 7950 (2020) 50 (2012) 2200 50 50 98 484 4280 4800 7950
2021-01-26 07:45 14.59 4680 7950 (2020) 50 (2012) 2200 50 50 98 484 4280 4800 7950
2021-01-26 06:45 14.45 4480 7950 (2020) 50 (2012) 2200 50 50 98 484 4280 4800 7950
2021-01-26 05:45 14.34 4320 7950 (2020) 50 (2012) 2200 50 50 98 484 4280 4800 7950
2021-01-26 04:45 14.14 4050 7950 (2020) 50 (2012) 2200 50 50 98 484 4280 4800 7950
2021-01-26 03:45 13.96 3810 7950 (2020) 50 (2012) 2200 50 50 98 484 4280 4800 7950
2021-01-26 02:45 13.81 3610 7950 (2020) 50 (2012) 2200 50 50 98 484 4280 4800 7950
2021-01-26 01:45 13.64 3380 7950 (2020) 50 (2012) 2200 50 50 98 484 4280 4800 7950
2021-01-26 00:45 13.48 3170 7950 (2020) 50 (2012) 2200 50 50 98 484 4280 4800 7950
2021-01-25 23:45 13.33 2980 8270 (2020) 50 (2013) 2490 50 72 134 329 5430 5680 8270
2021-01-25 22:45 13.18 2800 8270 (2020) 50 (2013) 2490 50 72 134 329 5430 5680 8270
2021-01-25 21:45 13.02 2610 8270 (2020) 50 (2013) 2490 50 72 134 329 5430 5680 8270
2021-01-25 20:45 12.89 2480 8270 (2020) 50 (2013) 2490 50 72 134 329 5430 5680 8270
2021-01-25 19:45 12.72 2310 8270 (2020) 50 (2013) 2490 50 72 134 329 5430 5680 8270
2021-01-25 18:45 12.56 2150 8270 (2020) 50 (2013) 2490 50 72 134 329 5430 5680 8270
2021-01-25 17:45 12.41 2020 8270 (2020) 50 (2013) 2490 50 72 134 329 5430 5680 8270
2021-01-25 16:45 12.26 1890 8270 (2020) 50 (2013) 2490 50 72 134 329 5430 5680 8270
2021-01-25 15:45 12.11 1760 8270 (2020) 50 (2013) 2490 50 72 134 329 5430 5680 8270
2021-01-25 14:45 11.99 1660 8270 (2020) 50 (2013) 2490 50 72 134 329 5430 5680 8270
2021-01-25 13:45 11.85 1540 8270 (2020) 50 (2013) 2490 50 72 134 329 5430 5680 8270
2021-01-25 12:45 11.76 1470 8270 (2020) 50 (2013) 2490 50 72 134 329 5430 5680 8270
2021-01-25 11:45 11.66 1380 8270 (2020) 50 (2013) 2490 50 72 134 329 5430 5680 8270
2021-01-25 10:45 11.53 1280 8270 (2020) 50 (2013) 2490 50 72 134 329 5430 5680 8270
2021-01-25 09:45 11.39 1180 8270 (2020) 50 (2013) 2490 50 72 134 329 5430 5680 8270
2021-01-25 08:45 11.29 1110 8270 (2020) 50 (2013) 2490 50 72 134 329 5430 5680 8270
2021-01-25 07:45 11.24 1070 8270 (2020) 50 (2013) 2490 50 72 134 329 5430 5680 8270
2021-01-25 06:45 11.23 1060 8270 (2020) 50 (2013) 2490 50 72 134 329 5430 5680 8270
2021-01-25 05:45 11.17 1020 8270 (2020) 50 (2013) 2490 50 72 134 329 5430 5680 8270
2021-01-25 04:45 11.11 984 8270 (2020) 50 (2013) 2490 50 72 134 329 5430 5680 8270
2021-01-25 03:45 11.11 984 8270 (2020) 50 (2013) 2490 50 72 134 329 5430 5680 8270
2021-01-25 02:45 11.06 952 8270 (2020) 50 (2013) 2490 50 72 134 329 5430 5680 8270
2021-01-25 01:45 11.03 933 8270 (2020) 50 (2013) 2490 50 72 134 329 5430 5680 8270
2021-01-25 00:45 11.02 927 8270 (2020) 50 (2013) 2490 50 72 134 329 5430 5680 8270
2021-01-24 23:45 11.00 914 8490 (2020) 50 (2012) 2690 50 68 157 426 5980 6870 8490
2021-01-24 22:45 10.99 908 8490 (2020) 50 (2012) 2690 50 68 157 426 5980 6870 8490
2021-01-24 21:45 10.99 908 8490 (2020) 50 (2012) 2690 50 68 157 426 5980 6870 8490
2021-01-24 20:45 10.99 908 8490 (2020) 50 (2012) 2690 50 68 157 426 5980 6870 8490
2021-01-24 19:45 10.99 908 8490 (2020) 50 (2012) 2690 50 68 157 426 5980 6870 8490
2021-01-24 18:45 11.00 914 8490 (2020) 50 (2012) 2690 50 68 157 426 5980 6870 8490
2021-01-24 17:45 10.98 902 8490 (2020) 50 (2012) 2690 50 68 157 426 5980 6870 8490
2021-01-24 16:45 10.97 896 8490 (2020) 50 (2012) 2690 50 68 157 426 5980 6870 8490
2021-01-24 15:45 10.95 883 8490 (2020) 50 (2012) 2690 50 68 157 426 5980 6870 8490
2021-01-24 14:45 10.93 871 8490 (2020) 50 (2012) 2690 50 68 157 426 5980 6870 8490
2021-01-24 13:45 10.92 865 8490 (2020) 50 (2012) 2690 50 68 157 426 5980 6870 8490
2021-01-24 12:45 10.91 859 8490 (2020) 50 (2012) 2690 50 68 157 426 5980 6870 8490
2021-01-24 11:45 10.92 865 8490 (2020) 50 (2012) 2690 50 68 157 426 5980 6870 8490
2021-01-24 10:45 10.93 871 8490 (2020) 50 (2012) 2690 50 68 157 426 5980 6870 8490
2021-01-24 09:45 10.94 877 8490 (2020) 50 (2012) 2690 50 68 157 426 5980 6870 8490
2021-01-24 08:45 10.96 890 8490 (2020) 50 (2012) 2690 50 68 157 426 5980 6870 8490
2021-01-24 07:45 10.96 890 8490 (2020) 50 (2012) 2690 50 68 157 426 5980 6870 8490
2021-01-24 06:45 10.94 877 8490 (2020) 50 (2012) 2690 50 68 157 426 5980 6870 8490
2021-01-24 05:45 10.96 890 8490 (2020) 50 (2012) 2690 50 68 157 426 5980 6870 8490
2021-01-24 04:45 10.92 865 8490 (2020) 50 (2012) 2690 50 68 157 426 5980 6870 8490
2021-01-24 03:45 10.89 848 8490 (2020) 50 (2012) 2690 50 68 157 426 5980 6870 8490
2021-01-24 02:45 10.89 848 8490 (2020) 50 (2012) 2690 50 68 157 426 5980 6870 8490
2021-01-24 01:45 10.88 842 8490 (2020) 50 (2012) 2690 50 68 157 426 5980 6870 8490
2021-01-24 00:45 10.84 818 8490 (2020) 50 (2012) 2690 50 68 157 426 5980 6870 8490
2021-01-23 23:45 10.86 830 10400 (2020) 50 (2012) 2810 50 55 173 399 5280 6130 10400
2021-01-23 22:45 10.86 830 10400 (2020) 50 (2012) 2810 50 55 173 399 5280 6130 10400
2021-01-23 21:45 10.84 818 10400 (2020) 50 (2012) 2810 50 55 173 399 5280 6130 10400
2021-01-23 20:45 10.84 818 10400 (2020) 50 (2012) 2810 50 55 173 399 5280 6130 10400
2021-01-23 19:45 10.83 813 10400 (2020) 50 (2012) 2810 50 55 173 399 5280 6130 10400
2021-01-23 18:45 10.84 818 10400 (2020) 50 (2012) 2810 50 55 173 399 5280 6130 10400
2021-01-23 17:45 10.83 813 10400 (2020) 50 (2012) 2810 50 55 173 399 5280 6130 10400
2021-01-23 16:45 10.86 830 10400 (2020) 50 (2012) 2810 50 55 173 399 5280 6130 10400
2021-01-23 15:45 10.87 836 10400 (2020) 50 (2012) 2810 50 55 173 399 5280 6130 10400
2021-01-23 14:45 10.89 848 10400 (2020) 50 (2012) 2810 50 55 173 399 5280 6130 10400
2021-01-23 13:45 10.89 848 10400 (2020) 50 (2012) 2810 50 55 173 399 5280 6130 10400
2021-01-23 12:45 10.88 842 10400 (2020) 50 (2012) 2810 50 55 173 399 5280 6130 10400
2021-01-23 11:45 10.85 824 10400 (2020) 50 (2012) 2810 50 55 173 399 5280 6130 10400
2021-01-23 10:45 10.84 818 10400 (2020) 50 (2012) 2810 50 55 173 399 5280 6130 10400
2021-01-23 09:45 10.82 807 10400 (2020) 50 (2012) 2810 50 55 173 399 5280 6130 10400
2021-01-23 08:45 10.85 824 10400 (2020) 50 (2012) 2810 50 55 173 399 5280 6130 10400
2021-01-23 07:45 10.93 871 10400 (2020) 50 (2012) 2810 50 55 173 399 5280 6130 10400
2021-01-23 06:45 10.99 908 10400 (2020) 50 (2012) 2810 50 55 173 399 5280 6130 10400
2021-01-23 05:45 11.04 939 10400 (2020) 50 (2012) 2810 50 55 173 399 5280 6130 10400
2021-01-23 04:45 11.01 920 10400 (2020) 50 (2012) 2810 50 55 173 399 5280 6130 10400
2021-01-23 03:45 10.95 883 10400 (2020) 50 (2012) 2810 50 55 173 399 5280 6130 10400
2021-01-23 02:45 10.88 842 10400 (2020) 50 (2012) 2810 50 55 173 399 5280 6130 10400
2021-01-23 01:45 10.84 818 10400 (2020) 50 (2012) 2810 50 55 173 399 5280 6130 10400
2021-01-23 00:45 10.88 842 10400 (2020) 50 (2012) 2810 50 55 173 399 5280 6130 10400
2021-01-22 23:45 10.97 896 14200 (2020) 50 (2013) 3500 50 126 223 510 6660 10100 14200
2021-01-22 22:45 11.08 965 14200 (2020) 50 (2013) 3500 50 126 223 510 6660 10100 14200
2021-01-22 21:45 11.16 1020 14200 (2020) 50 (2013) 3500 50 126 223 510 6660 10100 14200
2021-01-22 20:45 11.19 1040 14200 (2020) 50 (2013) 3500 50 126 223 510 6660 10100 14200
2021-01-22 19:45 11.15 1010 14200 (2020) 50 (2013) 3500 50 126 223 510 6660 10100 14200
2021-01-22 18:45 11.07 958 14200 (2020) 50 (2013) 3500 50 126 223 510 6660 10100 14200
2021-01-22 17:45 11.00 914 14200 (2020) 50 (2013) 3500 50 126 223 510 6660 10100 14200
2021-01-22 16:45 10.96 890 14200 (2020) 50 (2013) 3500 50 126 223 510 6660 10100 14200
2021-01-22 15:45 10.96 890 14200 (2020) 50 (2013) 3500 50 126 223 510 6660 10100 14200
2021-01-22 14:45 11.02 927 14200 (2020) 50 (2013) 3500 50 126 223 510 6660 10100 14200
2021-01-22 13:45 11.08 965 14200 (2020) 50 (2013) 3500 50 126 223 510 6660 10100 14200
2021-01-22 12:45 11.12 990 14200 (2020) 50 (2013) 3500 50 126 223 510 6660 10100 14200
2021-01-22 11:45 11.23 1060 14200 (2020) 50 (2013) 3500 50 126 223 510 6660 10100 14200
2021-01-22 10:45 11.25 1080 14200 (2020) 50 (2013) 3500 50 126 223 510 6660 10100 14200
2021-01-22 09:45 11.27 1090 14200 (2020) 50 (2013) 3500 50 126 223 510 6660 10100 14200
2021-01-22 08:45 11.32 1130 14200 (2020) 50 (2013) 3500 50 126 223 510 6660 10100 14200
2021-01-22 07:45 11.39 1180 14200 (2020) 50 (2013) 3500 50 126 223 510 6660 10100 14200
2021-01-22 06:45 11.45 1220 14200 (2020) 50 (2013) 3500 50 126 223 510 6660 10100 14200
2021-01-22 05:45 11.46 1230 14200 (2020) 50 (2013) 3500 50 126 223 510 6660 10100 14200
2021-01-22 04:45 11.42 1200 14200 (2020) 50 (2013) 3500 50 126 223 510 6660 10100 14200
2021-01-22 03:45 11.33 1130 14200 (2020) 50 (2013) 3500 50 126 223 510 6660 10100 14200
2021-01-22 02:45 11.24 1070 14200 (2020) 50 (2013) 3500 50 126 223 510 6660 10100 14200
2021-01-22 01:45 11.20 1040 14200 (2020) 50 (2013) 3500 50 126 223 510 6660 10100 14200
2021-01-22 00:45 11.22 1060 14200 (2020) 50 (2013) 3500 50 126 223 510 6660 10100 14200
2021-01-21 23:45 11.29 1110 16700 (2020) 50 (2013) 4280 50 128 221 578 8910 14500 16700
2021-01-21 22:45 11.41 1190 16700 (2020) 50 (2013) 4280 50 128 221 578 8910 14500 16700
2021-01-21 21:45 11.49 1250 16700 (2020) 50 (2013) 4280 50 128 221 578 8910 14500 16700
2021-01-21 20:45 11.53 1280 16700 (2020) 50 (2013) 4280 50 128 221 578 8910 14500 16700
2021-01-21 19:45 11.54 1290 16700 (2020) 50 (2013) 4280 50 128 221 578 8910 14500 16700
2021-01-21 18:45 11.49 1250 16700 (2020) 50 (2013) 4280 50 128 221 578 8910 14500 16700
2021-01-21 17:45 11.39 1180 16700 (2020) 50 (2013) 4280 50 128 221 578 8910 14500 16700
2021-01-21 16:45 11.30 1110 16700 (2020) 50 (2013) 4280 50 128 221 578 8910 14500 16700
2021-01-21 15:45 11.24 1070 16700 (2020) 50 (2013) 4280 50 128 221 578 8910 14500 16700
2021-01-21 14:45 11.26 1080 16700 (2020) 50 (2013) 4280 50 128 221 578 8910 14500 16700
2021-01-21 13:45 11.33 1130 16700 (2020) 50 (2013) 4280 50 128 221 578 8910 14500 16700
2021-01-21 12:45 11.41 1190 16700 (2020) 50 (2013) 4280 50 128 221 578 8910 14500 16700
2021-01-21 11:45 11.50 1260 16700 (2020) 50 (2013) 4280 50 128 221 578 8910 14500 16700
2021-01-21 10:45 11.58 1320 16700 (2020) 50 (2013) 4280 50 128 221 578 8910 14500 16700
2021-01-21 09:45 11.63 1360 16700 (2020) 50 (2013) 4280 50 128 221 578 8910 14500 16700
2021-01-21 08:45 11.66 1380 16700 (2020) 50 (2013) 4280 50 128 221 578 8910 14500 16700
2021-01-21 07:45 11.70 1420 16700 (2020) 50 (2013) 4280 50 128 221 578 8910 14500 16700
2021-01-21 06:45 11.73 1440 16700 (2020) 50 (2013) 4280 50 128 221 578 8910 14500 16700
2021-01-21 05:45 11.73 1440 16700 (2020) 50 (2013) 4280 50 128 221 578 8910 14500 16700
2021-01-21 04:45 11.70 1420 16700 (2020) 50 (2013) 4280 50 128 221 578 8910 14500 16700
2021-01-21 03:45 11.62 1350 16700 (2020) 50 (2013) 4280 50 128 221 578 8910 14500 16700
2021-01-21 02:45 11.54 1290 16700 (2020) 50 (2013) 4280 50 128 221 578 8910 14500 16700
2021-01-21 01:45 11.48 1240 16700 (2020) 50 (2013) 4280 50 128 221 578 8910 14500 16700
2021-01-21 00:45 11.51 1270 16700 (2020) 50 (2013) 4280 50 128 221 578 8910 14500 16700
2021-01-20 23:45 11.59 1330 17300 (2020) 50 (2013) 4400 50 181 266 579 8760 14100 17300
2021-01-20 22:45 11.67 1390 17300 (2020) 50 (2013) 4400 50 181 266 579 8760 14100 17300
2021-01-20 21:45 11.71 1420 17300 (2020) 50 (2013) 4400 50 181 266 579 8760 14100 17300
2021-01-20 20:45 11.66 1380 17300 (2020) 50 (2013) 4400 50 181 266 579 8760 14100 17300
2021-01-20 19:45 11.64 1370 17300 (2020) 50 (2013) 4400 50 181 266 579 8760 14100 17300
2021-01-20 18:45 11.59 1330 17300 (2020) 50 (2013) 4400 50 181 266 579 8760 14100 17300
2021-01-20 17:45 11.58 1320 17300 (2020) 50 (2013) 4400 50 181 266 579 8760 14100 17300
2021-01-20 16:45 11.48 1240 17300 (2020) 50 (2013) 4400 50 181 266 579 8760 14100 17300
2021-01-20 15:45 11.51 1270 17300 (2020) 50 (2013) 4400 50 181 266 579 8760 14100 17300
2021-01-20 14:45 11.46 1230 17300 (2020) 50 (2013) 4400 50 181 266 579 8760 14100 17300
2021-01-20 13:45 11.54 1290 17300 (2020) 50 (2013) 4400 50 181 266 579 8760 14100 17300
2021-01-20 12:45 11.64 1370 17300 (2020) 50 (2013) 4400 50 181 266 579 8760 14100 17300
2021-01-20 11:45 11.72 1430 17300 (2020) 50 (2013) 4400 50 181 266 579 8760 14100 17300
2021-01-20 10:45 11.82 1520 17300 (2020) 50 (2013) 4400 50 181 266 579 8760 14100 17300
2021-01-20 09:45 11.91 1590 17300 (2020) 50 (2013) 4400 50 181 266 579 8760 14100 17300
2021-01-20 08:45 11.94 1620 17300 (2020) 50 (2013) 4400 50 181 266 579 8760 14100 17300
2021-01-20 07:45 11.97 1650 17300 (2020) 50 (2013) 4400 50 181 266 579 8760 14100 17300
2021-01-20 06:45 11.97 1650 17300 (2020) 50 (2013) 4400 50 181 266 579 8760 14100 17300
2021-01-20 05:45 11.93 1610 17300 (2020) 50 (2013) 4400 50 181 266 579 8760 14100 17300
2021-01-20 04:45 11.87 1560 17300 (2020) 50 (2013) 4400 50 181 266 579 8760 14100 17300
2021-01-20 03:45 11.81 1510 17300 (2020) 50 (2013) 4400 50 181 266 579 8760 14100 17300
2021-01-20 02:45 11.77 1470 17300 (2020) 50 (2013) 4400 50 181 266 579 8760 14100 17300
2021-01-20 01:45 11.78 1480 17300 (2020) 50 (2013) 4400 50 181 266 579 8760 14100 17300
2021-01-20 00:45 11.80 1500 17300 (2020) 50 (2013) 4400 50 181 266 579 8760 14100 17300
2021-01-19 23:45 11.85 1540 16900 (2020) 50 (2013) 4270 50 228 322 610 7980 12100 16900
2021-01-19 22:45 11.89 1580 16900 (2020) 50 (2013) 4270 50 228 322 610 7980 12100 16900
2021-01-19 21:45 11.95 1630 16900 (2020) 50 (2013) 4270 50 228 322 610 7980 12100 16900
2021-01-19 20:45 12.02 1690 16900 (2020) 50 (2013) 4270 50 228 322 610 7980 12100 16900
2021-01-19 19:45 12.08 1740 16900 (2020) 50 (2013) 4270 50 228 322 610 7980 12100 16900
2021-01-19 18:45 12.10 1750 16900 (2020) 50 (2013) 4270 50 228 322 610 7980 12100 16900
2021-01-19 17:45 12.09 1750 16900 (2020) 50 (2013) 4270 50 228 322 610 7980 12100 16900
2021-01-19 16:45 12.06 1720 16900 (2020) 50 (2013) 4270 50 228 322 610 7980 12100 16900
2021-01-19 15:45 12.00 1670 16900 (2020) 50 (2013) 4270 50 228 322 610 7980 12100 16900
2021-01-19 14:45 11.96 1640 16900 (2020) 50 (2013) 4270 50 228 322 610 7980 12100 16900
2021-01-19 13:45 11.93 1610 16900 (2020) 50 (2013) 4270 50 228 322 610 7980 12100 16900
2021-01-19 12:45 11.96 1640 16900 (2020) 50 (2013) 4270 50 228 322 610 7980 12100 16900
2021-01-19 11:45 12.00 1670 16900 (2020) 50 (2013) 4270 50 228 322 610 7980 12100 16900
2021-01-19 10:45 12.05 1710 16900 (2020) 50 (2013) 4270 50 228 322 610 7980 12100 16900
2021-01-19 09:45 12.07 1730 16900 (2020) 50 (2013) 4270 50 228 322 610 7980 12100 16900
2021-01-19 08:45 12.09 1750 16900 (2020) 50 (2013) 4270 50 228 322 610 7980 12100 16900
2021-01-19 07:45 12.09 1750 16900 (2020) 50 (2013) 4270 50 228 322 610 7980 12100 16900
2021-01-19 06:45 12.09 1750 16900 (2020) 50 (2013) 4270 50 228 322 610 7980 12100 16900
2021-01-19 05:45 12.09 1750 16900 (2020) 50 (2013) 4270 50 228 322 610 7980 12100 16900
2021-01-19 04:45 12.06 1720 16900 (2020) 50 (2013) 4270 50 228 322 610 7980 12100 16900
2021-01-19 03:45 12.08 1740 16900 (2020) 50 (2013) 4270 50 228 322 610 7980 12100 16900
2021-01-19 02:45 12.09 1750 16900 (2020) 50 (2013) 4270 50 228 322 610 7980 12100 16900
2021-01-19 01:45 12.09 1750 16900 (2020) 50 (2013) 4270 50 228 322 610 7980 12100 16900
2021-01-19 00:45 12.09 1750 16900 (2020) 50 (2013) 4270 50 228 322 610 7980 12100 16900
2021-01-18 23:45 12.07 1730 16400 (2020) 50 (2013) 4090 50 149 317 787 7300 10400 16400
2021-01-18 22:45 12.06 1720 16400 (2020) 50 (2013) 4090 50 149 317 787 7300 10400 16400
2021-01-18 21:45 12.06 1720 16400 (2020) 50 (2013) 4090 50 149 317 787 7300 10400 16400
2021-01-18 20:45 12.08 1740 16400 (2020) 50 (2013) 4090 50 149 317 787 7300 10400 16400
2021-01-18 19:45 12.11 1760 16400 (2020) 50 (2013) 4090 50 149 317 787 7300 10400 16400
2021-01-18 18:45 12.11 1760 16400 (2020) 50 (2013) 4090 50 149 317 787 7300 10400 16400
2021-01-18 17:45 12.06 1720 16400 (2020) 50 (2013) 4090 50 149 317 787 7300 10400 16400
2021-01-18 16:45 12.01 1680 16400 (2020) 50 (2013) 4090 50 149 317 787 7300 10400 16400
2021-01-18 15:45 11.92 1600 16400 (2020) 50 (2013) 4090 50 149 317 787 7300 10400 16400
2021-01-18 14:45 11.94 1620 16400 (2020) 50 (2013) 4090 50 149 317 787 7300 10400 16400
2021-01-18 13:45 11.97 1650 16400 (2020) 50 (2013) 4090 50 149 317 787 7300 10400 16400
2021-01-18 12:45 11.98 1660 16400 (2020) 50 (2013) 4090 50 149 317 787 7300 10400 16400
2021-01-18 11:45 12.11 1760 16400 (2020) 50 (2013) 4090 50 149 317 787 7300 10400 16400
2021-01-18 10:45 12.12 1770 16400 (2020) 50 (2013) 4090 50 149 317 787 7300 10400 16400
2021-01-18 09:45 12.12 1770 16400 (2020) 50 (2013) 4090 50 149 317 787 7300 10400 16400
2021-01-18 08:45 12.11 1760 16400 (2020) 50 (2013) 4090 50 149 317 787 7300 10400 16400
2021-01-18 07:45 12.08 1740 16400 (2020) 50 (2013) 4090 50 149 317 787 7300 10400 16400
2021-01-18 06:45 12.05 1710 16400 (2020) 50 (2013) 4090 50 149 317 787 7300 10400 16400
2021-01-18 05:45 12.03 1700 16400 (2020) 50 (2013) 4090 50 149 317 787 7300 10400 16400
2021-01-18 04:45 12.01 1680 16400 (2020) 50 (2013) 4090 50 149 317 787 7300 10400 16400
2021-01-18 03:45 12.02 1690 16400 (2020) 50 (2013) 4090 50 149 317 787 7300 10400 16400
2021-01-18 02:45 12.03 1700 16400 (2020) 50 (2013) 4090 50 149 317 787 7300 10400 16400
2021-01-18 01:45 12.06 1720 16400 (2020) 50 (2013) 4090 50 149 317 787 7300 10400 16400
2021-01-18 00:45 12.09 1750 16400 (2020) 50 (2013) 4090 50 149 317 787 7300 10400 16400
2021-01-17 23:45 12.11 1760 18200 (2020) 76 (2012) 4070 76 108 403 832 6990 9360 18200
2021-01-17 22:45 12.14 1790 18200 (2020) 76 (2012) 4070 76 108 403 832 6990 9360 18200
2021-01-17 21:45 12.13 1780 18200 (2020) 76 (2012) 4070 76 108 403 832 6990 9360 18200
2021-01-17 20:45 12.12 1770 18200 (2020) 76 (2012) 4070 76 108 403 832 6990 9360 18200
2021-01-17 19:45 12.09 1750 18200 (2020) 76 (2012) 4070 76 108 403 832 6990 9360 18200
2021-01-17 18:45 12.04 1710 18200 (2020) 76 (2012) 4070 76 108 403 832 6990 9360 18200
2021-01-17 17:45 11.99 1660 18200 (2020) 76 (2012) 4070 76 108 403 832 6990 9360 18200
2021-01-17 16:45 11.92 1600 18200 (2020) 76 (2012) 4070 76 108 403 832 6990 9360 18200
2021-01-17 15:45 11.88 1570 18200 (2020) 76 (2012) 4070 76 108 403 832 6990 9360 18200
2021-01-17 14:45 11.89 1580 18200 (2020) 76 (2012) 4070 76 108 403 832 6990 9360 18200
2021-01-17 13:45 11.90 1580 18200 (2020) 76 (2012) 4070 76 108 403 832 6990 9360 18200
2021-01-17 12:45 11.94 1620 18200 (2020) 76 (2012) 4070 76 108 403 832 6990 9360 18200
2021-01-17 11:45 11.98 1660 18200 (2020) 76 (2012) 4070 76 108 403 832 6990 9360 18200
2021-01-17 10:45 12.02 1690 18200 (2020) 76 (2012) 4070 76 108 403 832 6990 9360 18200
2021-01-17 09:45 12.09 1750 18200 (2020) 76 (2012) 4070 76 108 403 832 6990 9360 18200
2021-01-17 08:45 12.09 1750 18200 (2020) 76 (2012) 4070 76 108 403 832 6990 9360 18200
2021-01-17 07:45 12.06 1720 18200 (2020) 76 (2012) 4070 76 108 403 832 6990 9360 18200
2021-01-17 06:45 12.01 1680 18200 (2020) 76 (2012) 4070 76 108 403 832 6990 9360 18200
2021-01-17 05:45 11.95 1630 18200 (2020) 76 (2012) 4070 76 108 403 832 6990 9360 18200
2021-01-17 04:45 11.92 1600 18200 (2020) 76 (2012) 4070 76 108 403 832 6990 9360 18200
2021-01-17 03:45 11.93 1610 18200 (2020) 76 (2012) 4070 76 108 403 832 6990 9360 18200
2021-01-17 02:45 11.92 1600 18200 (2020) 76 (2012) 4070 76 108 403 832 6990 9360 18200
2021-01-17 01:45 11.95 1630 18200 (2020) 76 (2012) 4070 76 108 403 832 6990 9360 18200
2021-01-17 00:45 11.96 1640 18200 (2020) 76 (2012) 4070 76 108 403 832 6990 9360 18200
2021-01-16 22:45 11.99 1660 19600 (2020) 52 (2013) 4310 52 68 305 877 7770 10400 19600
2021-01-16 21:45 12.01 1680 19600 (2020) 52 (2013) 4310 52 68 305 877 7770 10400 19600
2021-01-16 20:45 12.03 1700 19600 (2020) 52 (2013) 4310 52 68 305 877 7770 10400 19600
2021-01-16 19:45 12.02 1690 19600 (2020) 52 (2013) 4310 52 68 305 877 7770 10400 19600
2021-01-16 18:45 11.99 1660 19600 (2020) 52 (2013) 4310 52 68 305 877 7770 10400 19600
2021-01-16 17:45 11.96 1640 19600 (2020) 52 (2013) 4310 52 68 305 877 7770 10400 19600
2021-01-16 16:45 11.89 1580 19600 (2020) 52 (2013) 4310 52 68 305 877 7770 10400 19600
2021-01-16 15:45 11.85 1540 19600 (2020) 52 (2013) 4310 52 68 305 877 7770 10400 19600
2021-01-16 14:45 11.87 1560 19600 (2020) 52 (2013) 4310 52 68 305 877 7770 10400 19600
2021-01-16 13:45 11.88 1570 19600 (2020) 52 (2013) 4310 52 68 305 877 7770 10400 19600
2021-01-16 12:45 11.89 1580 19600 (2020) 52 (2013) 4310 52 68 305 877 7770 10400 19600
2021-01-16 11:45 11.90 1580 19600 (2020) 52 (2013) 4310 52 68 305 877 7770 10400 19600
2021-01-16 10:45 11.89 1580 19600 (2020) 52 (2013) 4310 52 68 305 877 7770 10400 19600
2021-01-16 09:45 11.89 1580 19600 (2020) 52 (2013) 4310 52 68 305 877 7770 10400 19600
2021-01-16 08:45 11.94 1620 19600 (2020) 52 (2013) 4310 52 68 305 877 7770 10400 19600
2021-01-16 07:45 11.95 1630 19600 (2020) 52 (2013) 4310 52 68 305 877 7770 10400 19600
2021-01-16 06:45 11.90 1580 19600 (2020) 52 (2013) 4310 52 68 305 877 7770 10400 19600
2021-01-16 05:45 11.87 1560 19600 (2020) 52 (2013) 4310 52 68 305 877 7770 10400 19600
2021-01-16 04:45 11.85 1540 19600 (2020) 52 (2013) 4310 52 68 305 877 7770 10400 19600
2021-01-16 03:45 11.84 1530 19600 (2020) 52 (2013) 4310 52 68 305 877 7770 10400 19600
2021-01-16 02:45 11.83 1520 19600 (2020) 52 (2013) 4310 52 68 305 877 7770 10400 19600
2021-01-16 01:45 11.83 1520 19600 (2020) 52 (2013) 4310 52 68 305 877 7770 10400 19600
2021-01-16 00:45 11.85 1540 19600 (2020) 52 (2013) 4310 52 68 305 877 7770 10400 19600
2021-01-15 23:45 11.87 1560 20400 (2020) 50 (2013) 4650 50 98 362 858 9000 12200 20400
2021-01-15 22:45 11.89 1580 20400 (2020) 50 (2013) 4650 50 98 362 858 9000 12200 20400
2021-01-15 21:45 11.89 1580 20400 (2020) 50 (2013) 4650 50 98 362 858 9000 12200 20400
2021-01-15 20:45 11.88 1570 20400 (2020) 50 (2013) 4650 50 98 362 858 9000 12200 20400
2021-01-15 19:45 11.87 1560 20400 (2020) 50 (2013) 4650 50 98 362 858 9000 12200 20400
2021-01-15 18:45 11.83 1520 20400 (2020) 50 (2013) 4650 50 98 362 858 9000 12200 20400
2021-01-15 17:45 11.76 1470 20400 (2020) 50 (2013) 4650 50 98 362 858 9000 12200 20400
2021-01-15 16:45 11.71 1420 20400 (2020) 50 (2013) 4650 50 98 362 858 9000 12200 20400
2021-01-15 15:45 11.65 1380 20400 (2020) 50 (2013) 4650 50 98 362 858 9000 12200 20400
2021-01-15 14:45 11.63 1360 20400 (2020) 50 (2013) 4650 50 98 362 858 9000 12200 20400
2021-01-15 13:45 11.62 1350 20400 (2020) 50 (2013) 4650 50 98 362 858 9000 12200 20400
2021-01-15 12:45 11.64 1370 20400 (2020) 50 (2013) 4650 50 98 362 858 9000 12200 20400
2021-01-15 11:45 11.70 1420 20400 (2020) 50 (2013) 4650 50 98 362 858 9000 12200 20400
2021-01-15 10:45 11.72 1430 20400 (2020) 50 (2013) 4650 50 98 362 858 9000 12200 20400
2021-01-15 09:45 11.73 1440 20400 (2020) 50 (2013) 4650 50 98 362 858 9000 12200 20400
2021-01-15 08:45 11.75 1460 20400 (2020) 50 (2013) 4650 50 98 362 858 9000 12200 20400
2021-01-15 07:45 11.79 1490 20400 (2020) 50 (2013) 4650 50 98 362 858 9000 12200 20400
2021-01-15 06:45 11.77 1470 20400 (2020) 50 (2013) 4650 50 98 362 858 9000 12200 20400
2021-01-15 05:45 11.71 1420 20400 (2020) 50 (2013) 4650 50 98 362 858 9000 12200 20400
2021-01-15 04:45 11.68 1400 20400 (2020) 50 (2013) 4650 50 98 362 858 9000 12200 20400
2021-01-15 03:45 11.67 1390 20400 (2020) 50 (2013) 4650 50 98 362 858 9000 12200 20400
2021-01-15 02:45 11.65 1380 20400 (2020) 50 (2013) 4650 50 98 362 858 9000 12200 20400
2021-01-15 01:45 11.69 1410 20400 (2020) 50 (2013) 4650 50 98 362 858 9000 12200 20400
2021-01-15 00:45 11.74 1450 20400 (2020) 50 (2013) 4650 50 98 362 858 9000 12200 20400
2021-01-14 23:45 11.75 1460 20700 (2020) 50 (2013) 4740 50 61 305 802 9260 11600 20700
2021-01-14 22:45 11.76 1470 20700 (2020) 50 (2013) 4740 50 61 305 802 9260 11600 20700
2021-01-14 21:45 11.78 1480 20700 (2020) 50 (2013) 4740 50 61 305 802 9260 11600 20700
2021-01-14 20:45 11.80 1500 20700 (2020) 50 (2013) 4740 50 61 305 802 9260 11600 20700
2021-01-14 19:45 11.81 1510 20700 (2020) 50 (2013) 4740 50 61 305 802 9260 11600 20700
2021-01-14 18:45 11.81 1510 20700 (2020) 50 (2013) 4740 50 61 305 802 9260 11600 20700
2021-01-14 17:45 11.82 1520 20700 (2020) 50 (2013) 4740 50 61 305 802 9260 11600 20700
2021-01-14 16:45 11.82 1520 20700 (2020) 50 (2013) 4740 50 61 305 802 9260 11600 20700
2021-01-14 15:45 11.77 1470 20700 (2020) 50 (2013) 4740 50 61 305 802 9260 11600 20700
2021-01-14 14:45 11.75 1460 20700 (2020) 50 (2013) 4740 50 61 305 802 9260 11600 20700
2021-01-14 13:45 11.73 1440 20700 (2020) 50 (2013) 4740 50 61 305 802 9260 11600 20700
2021-01-14 12:45 11.69 1410 20700 (2020) 50 (2013) 4740 50 61 305 802 9260 11600 20700
2021-01-14 11:45 11.63 1360 20700 (2020) 50 (2013) 4740 50 61 305 802 9260 11600 20700
2021-01-14 10:45 11.59 1330 20700 (2020) 50 (2013) 4740 50 61 305 802 9260 11600 20700
2021-01-14 09:45 11.61 1340 20700 (2020) 50 (2013) 4740 50 61 305 802 9260 11600 20700
2021-01-14 08:45 11.62 1350 20700 (2020) 50 (2013) 4740 50 61 305 802 9260 11600 20700
2021-01-14 07:45 11.66 1380 20700 (2020) 50 (2013) 4740 50 61 305 802 9260 11600 20700
2021-01-14 06:45 11.69 1410 20700 (2020) 50 (2013) 4740 50 61 305 802 9260 11600 20700
2021-01-14 05:45 11.65 1380 20700 (2020) 50 (2013) 4740 50 61 305 802 9260 11600 20700
2021-01-14 04:45 11.65 1380 20700 (2020) 50 (2013) 4740 50 61 305 802 9260 11600 20700
2021-01-14 03:45 11.65 1380 20700 (2020) 50 (2013) 4740 50 61 305 802 9260 11600 20700
2021-01-14 02:45 11.67 1390 20700 (2020) 50 (2013) 4740 50 61 305 802 9260 11600 20700
2021-01-14 01:45 11.66 1380 20700 (2020) 50 (2013) 4740 50 61 305 802 9260 11600 20700
2021-01-14 00:45 11.70 1420 20700 (2020) 50 (2013) 4740 50 61 305 802 9260 11600 20700
2021-01-13 23:45 11.69 1410 19500 (2020) 50 (2013) 4310 50 115 315 784 8050 8740 19500
2021-01-13 22:45 11.70 1420 19500 (2020) 50 (2013) 4310 50 115 315 784 8050 8740 19500
2021-01-13 21:45 11.68 1400 19500 (2020) 50 (2013) 4310 50 115 315 784 8050 8740 19500
2021-01-13 20:45 11.67 1390 19500 (2020) 50 (2013) 4310 50 115 315 784 8050 8740 19500
2021-01-13 19:45 11.65 1380 19500 (2020) 50 (2013) 4310 50 115 315 784 8050 8740 19500
2021-01-13 18:45 11.63 1360 19500 (2020) 50 (2013) 4310 50 115 315 784 8050 8740 19500
2021-01-13 17:45 11.63 1360 19500 (2020) 50 (2013) 4310 50 115 315 784 8050 8740 19500
2021-01-13 16:45 11.61 1340 19500 (2020) 50 (2013) 4310 50 115 315 784 8050 8740 19500
2021-01-13 15:45 11.56 1310 19500 (2020) 50 (2013) 4310 50 115 315 784 8050 8740 19500
2021-01-13 14:45 11.57 1310 19500 (2020) 50 (2013) 4310 50 115 315 784 8050 8740 19500
2021-01-13 13:45 11.55 1300 19500 (2020) 50 (2013) 4310 50 115 315 784 8050 8740 19500
2021-01-13 12:45 11.59 1330 19500 (2020) 50 (2013) 4310 50 115 315 784 8050 8740 19500
2021-01-13 11:45 11.62 1350 19500 (2020) 50 (2013) 4310 50 115 315 784 8050 8740 19500
2021-01-13 10:45 11.62 1350 19500 (2020) 50 (2013) 4310 50 115 315 784 8050 8740 19500
2021-01-13 09:45 11.64 1370 19500 (2020) 50 (2013) 4310 50 115 315 784 8050 8740 19500
2021-01-13 08:45 11.64 1370 19500 (2020) 50 (2013) 4310 50 115 315 784 8050 8740 19500
2021-01-13 07:45 11.65 1380 19500 (2020) 50 (2013) 4310 50 115 315 784 8050 8740 19500
2021-01-13 06:45 11.64 1370 19500 (2020) 50 (2013) 4310 50 115 315 784 8050 8740 19500
2021-01-13 05:45 11.58 1320 19500 (2020) 50 (2013) 4310 50 115 315 784 8050 8740 19500
2021-01-13 04:45 11.54 1290 19500 (2020) 50 (2013) 4310 50 115 315 784 8050 8740 19500
2021-01-13 03:45 11.59 1330 19500 (2020) 50 (2013) 4310 50 115 315 784 8050 8740 19500
2021-01-13 02:45 11.59 1330 19500 (2020) 50 (2013) 4310 50 115 315 784 8050 8740 19500
2021-01-13 01:45 11.58 1320 19500 (2020) 50 (2013) 4310 50 115 315 784 8050 8740 19500
2021-01-13 00:45 11.59 1330 19500 (2020) 50 (2013) 4310 50 115 315 784 8050 8740 19500
2021-01-12 23:45 11.59 1330 16800 (2020) 50 (2013) 4020 50 99 245 708 8400 12300 16800
2021-01-12 22:45 11.61 1340 16800 (2020) 50 (2013) 4020 50 99 245 708 8400 12300 16800
2021-01-12 21:45 11.63 1360 16800 (2020) 50 (2013) 4020 50 99 245 708 8400 12300 16800
2021-01-12 20:45 11.64 1370 16800 (2020) 50 (2013) 4020 50 99 245 708 8400 12300 16800
2021-01-12 19:45 11.63 1360 16800 (2020) 50 (2013) 4020 50 99 245 708 8400 12300 16800
2021-01-12 18:45 11.60 1340 16800 (2020) 50 (2013) 4020 50 99 245 708 8400 12300 16800
2021-01-12 17:45 11.54 1290 16800 (2020) 50 (2013) 4020 50 99 245 708 8400 12300 16800
2021-01-12 16:45 11.49 1250 16800 (2020) 50 (2013) 4020 50 99 245 708 8400 12300 16800
2021-01-12 15:45 11.42 1200 16800 (2020) 50 (2013) 4020 50 99 245 708 8400 12300 16800
2021-01-12 14:45 11.51 1270 16800 (2020) 50 (2013) 4020 50 99 245 708 8400 12300 16800
2021-01-12 13:45 11.56 1310 16800 (2020) 50 (2013) 4020 50 99 245 708 8400 12300 16800
2021-01-12 12:45 11.64 1370 16800 (2020) 50 (2013) 4020 50 99 245 708 8400 12300 16800
2021-01-12 11:45 11.69 1410 16800 (2020) 50 (2013) 4020 50 99 245 708 8400 12300 16800
2021-01-12 10:45 11.77 1470 16800 (2020) 50 (2013) 4020 50 99 245 708 8400 12300 16800
2021-01-12 09:45 11.79 1490 16800 (2020) 50 (2013) 4020 50 99 245 708 8400 12300 16800
2021-01-12 08:45 11.80 1500 16800 (2020) 50 (2013) 4020 50 99 245 708 8400 12300 16800
2021-01-12 07:45 11.82 1520 16800 (2020) 50 (2013) 4020 50 99 245 708 8400 12300 16800
2021-01-12 06:45 11.83 1520 16800 (2020) 50 (2013) 4020 50 99 245 708 8400 12300 16800
2021-01-12 05:45 11.84 1530 16800 (2020) 50 (2013) 4020 50 99 245 708 8400 12300 16800
2021-01-12 04:45 11.84 1530 16800 (2020) 50 (2013) 4020 50 99 245 708 8400 12300 16800
2021-01-12 03:45 11.83 1520 16800 (2020) 50 (2013) 4020 50 99 245 708 8400 12300 16800
2021-01-12 02:45 11.81 1510 16800 (2020) 50 (2013) 4020 50 99 245 708 8400 12300 16800
2021-01-12 01:45 11.80 1500 16800 (2020) 50 (2013) 4020 50 99 245 708 8400 12300 16800
2021-01-12 00:45 11.80 1500 16800 (2020) 50 (2013) 4020 50 99 245 708 8400 12300 16800
2021-01-11 23:45 11.82 1520 15100 (2016) 50 (2013) 3820 50 90 139 628 8470 12900 15100
2021-01-11 22:45 11.81 1510 15100 (2016) 50 (2013) 3820 50 90 139 628 8470 12900 15100
2021-01-11 21:45 11.82 1520 15100 (2016) 50 (2013) 3820 50 90 139 628 8470 12900 15100
2021-01-11 20:45 11.83 1520 15100 (2016) 50 (2013) 3820 50 90 139 628 8470 12900 15100
2021-01-11 19:45 11.84 1530 15100 (2016) 50 (2013) 3820 50 90 139 628 8470 12900 15100
2021-01-11 18:45 11.83 1520 15100 (2016) 50 (2013) 3820 50 90 139 628 8470 12900 15100
2021-01-11 17:45 11.80 1500 15100 (2016) 50 (2013) 3820 50 90 139 628 8470 12900 15100
2021-01-11 16:45 11.76 1470 15100 (2016) 50 (2013) 3820 50 90 139 628 8470 12900 15100
2021-01-11 15:45 11.75 1460 15100 (2016) 50 (2013) 3820 50 90 139 628 8470 12900 15100
2021-01-11 14:45 11.78 1480 15100 (2016) 50 (2013) 3820 50 90 139 628 8470 12900 15100
2021-01-11 13:45 11.82 1520 15100 (2016) 50 (2013) 3820 50 90 139 628 8470 12900 15100
2021-01-11 12:45 11.91 1590 15100 (2016) 50 (2013) 3820 50 90 139 628 8470 12900 15100
2021-01-11 11:45 11.97 1650 15100 (2016) 50 (2013) 3820 50 90 139 628 8470 12900 15100
2021-01-11 10:45 12.02 1690 15100 (2016) 50 (2013) 3820 50 90 139 628 8470 12900 15100
2021-01-11 09:45 12.04 1710 15100 (2016) 50 (2013) 3820 50 90 139 628 8470 12900 15100
2021-01-11 08:45 12.04 1710 15100 (2016) 50 (2013) 3820 50 90 139 628 8470 12900 15100
2021-01-11 07:45 12.05 1710 15100 (2016) 50 (2013) 3820 50 90 139 628 8470 12900 15100
2021-01-11 06:45 12.06 1720 15100 (2016) 50 (2013) 3820 50 90 139 628 8470 12900 15100
2021-01-11 05:45 12.07 1730 15100 (2016) 50 (2013) 3820 50 90 139 628 8470 12900 15100
2021-01-11 04:45 12.07 1730 15100 (2016) 50 (2013) 3820 50 90 139 628 8470 12900 15100
2021-01-11 03:45 12.09 1750 15100 (2016) 50 (2013) 3820 50 90 139 628 8470 12900 15100
2021-01-11 02:45 12.10 1750 15100 (2016) 50 (2013) 3820 50 90 139 628 8470 12900 15100
2021-01-11 01:45 12.11 1760 15100 (2016) 50 (2013) 3820 50 90 139 628 8470 12900 15100
2021-01-11 00:45 12.11 1760 15100 (2016) 50 (2013) 3820 50 90 139 628 8470 12900 15100
2021-01-10 23:45 12.11 1760 14600 (2016) 50 (2013) 2890 50 144 165 610 4650 4920 14600
2021-01-10 22:45 12.11 1760 14600 (2016) 50 (2013) 2890 50 144 165 610 4650 4920 14600
2021-01-10 21:45 12.11 1760 14600 (2016) 50 (2013) 2890 50 144 165 610 4650 4920 14600
2021-01-10 20:45 12.12 1770 14600 (2016) 50 (2013) 2890 50 144 165 610 4650 4920 14600
2021-01-10 19:45 12.13 1780 14600 (2016) 50 (2013) 2890 50 144 165 610 4650 4920 14600
2021-01-10 17:45 12.16 1800 14600 (2016) 50 (2013) 2890 50 144 165 610 4650 4920 14600
2021-01-10 16:45 12.17 1810 14600 (2016) 50 (2013) 2890 50 144 165 610 4650 4920 14600
2021-01-10 15:45 12.18 1820 14600 (2016) 50 (2013) 2890 50 144 165 610 4650 4920 14600
2021-01-10 14:45 12.19 1830 14600 (2016) 50 (2013) 2890 50 144 165 610 4650 4920 14600
2021-01-10 13:45 12.20 1840 14600 (2016) 50 (2013) 2890 50 144 165 610 4650 4920 14600
2021-01-10 12:45 12.15 1790 14600 (2016) 50 (2013) 2890 50 144 165 610 4650 4920 14600
2021-01-10 11:45 12.18 1820 14600 (2016) 50 (2013) 2890 50 144 165 610 4650 4920 14600
2021-01-10 10:45 12.19 1830 14600 (2016) 50 (2013) 2890 50 144 165 610 4650 4920 14600
2021-01-10 09:45 12.23 1860 14600 (2016) 50 (2013) 2890 50 144 165 610 4650 4920 14600
2021-01-10 08:45 12.24 1870 14600 (2016) 50 (2013) 2890 50 144 165 610 4650 4920 14600
2021-01-10 07:45 12.25 1880 14600 (2016) 50 (2013) 2890 50 144 165 610 4650 4920 14600
2021-01-10 06:45 12.25 1880 14600 (2016) 50 (2013) 2890 50 144 165 610 4650 4920 14600
2021-01-10 05:45 12.26 1890 14600 (2016) 50 (2013) 2890 50 144 165 610 4650 4920 14600
2021-01-10 04:45 12.27 1900 14600 (2016) 50 (2013) 2890 50 144 165 610 4650 4920 14600
2021-01-10 03:45 12.29 1910 14600 (2016) 50 (2013) 2890 50 144 165 610 4650 4920 14600
2021-01-10 02:45 12.30 1920 14600 (2016) 50 (2013) 2890 50 144 165 610 4650 4920 14600
2021-01-10 01:45 12.32 1940 14600 (2016) 50 (2013) 2890 50 144 165 610 4650 4920 14600
2021-01-10 00:45 12.33 1950 14600 (2016) 50 (2013) 2890 50 144 165 610 4650 4920 14600
2021-01-09 23:45 12.34 1960 12800 (2016) 77 (2013) 2660 77 166 173 426 4530 4580 12800
2021-01-09 22:45 12.35 1970 12800 (2016) 77 (2013) 2660 77 166 173 426 4530 4580 12800
2021-01-09 20:45 12.38 1990 12800 (2016) 77 (2013) 2660 77 166 173 426 4530 4580 12800
2021-01-09 19:45 12.39 2000 12800 (2016) 77 (2013) 2660 77 166 173 426 4530 4580 12800
2021-01-09 18:45 12.40 2010 12800 (2016) 77 (2013) 2660 77 166 173 426 4530 4580 12800
2021-01-09 17:45 12.41 2020 12800 (2016) 77 (2013) 2660 77 166 173 426 4530 4580 12800
2021-01-09 16:45 12.43 2040 12800 (2016) 77 (2013) 2660 77 166 173 426 4530 4580 12800
2021-01-09 15:45 12.43 2040 12800 (2016) 77 (2013) 2660 77 166 173 426 4530 4580 12800
2021-01-09 14:45 12.44 2050 12800 (2016) 77 (2013) 2660 77 166 173 426 4530 4580 12800
2021-01-09 13:45 12.45 2050 12800 (2016) 77 (2013) 2660 77 166 173 426 4530 4580 12800
2021-01-09 12:45 12.45 2050 12800 (2016) 77 (2013) 2660 77 166 173 426 4530 4580 12800
2021-01-09 11:45 12.46 2060 12800 (2016) 77 (2013) 2660 77 166 173 426 4530 4580 12800
2021-01-09 10:45 12.47 2070 12800 (2016) 77 (2013) 2660 77 166 173 426 4530 4580 12800
2021-01-09 09:45 12.47 2070 12800 (2016) 77 (2013) 2660 77 166 173 426 4530 4580 12800
2021-01-09 08:45 12.47 2070 12800 (2016) 77 (2013) 2660 77 166 173 426 4530 4580 12800
2021-01-09 07:45 12.47 2070 12800 (2016) 77 (2013) 2660 77 166 173 426 4530 4580 12800
2021-01-09 06:45 12.47 2070 12800 (2016) 77 (2013) 2660 77 166 173 426 4530 4580 12800
2021-01-09 05:45 12.46 2060 12800 (2016) 77 (2013) 2660 77 166 173 426 4530 4580 12800
2021-01-09 04:45 12.45 2050 12800 (2016) 77 (2013) 2660 77 166 173 426 4530 4580 12800
2021-01-09 03:45 12.43 2040 12800 (2016) 77 (2013) 2660 77 166 173 426 4530 4580 12800
2021-01-09 02:45 12.40 2010 12800 (2016) 77 (2013) 2660 77 166 173 426 4530 4580 12800
2021-01-09 01:45 12.38 1990 12800 (2016) 77 (2013) 2660 77 166 173 426 4530 4580 12800
2021-01-09 00:45 12.36 1970 12800 (2016) 77 (2013) 2660 77 166 173 426 4530 4580 12800
2021-01-08 23:45 12.34 1960 8060 (2016) 73 (2013) 2130 73 163 197 503 4540 4640 8060
2021-01-08 22:45 12.32 1940 8060 (2016) 73 (2013) 2130 73 163 197 503 4540 4640 8060
2021-01-08 21:45 12.30 1920 8060 (2016) 73 (2013) 2130 73 163 197 503 4540 4640 8060
2021-01-08 20:45 12.27 1900 8060 (2016) 73 (2013) 2130 73 163 197 503 4540 4640 8060
2021-01-08 19:45 12.23 1860 8060 (2016) 73 (2013) 2130 73 163 197 503 4540 4640 8060
2021-01-08 18:45 12.19 1830 8060 (2016) 73 (2013) 2130 73 163 197 503 4540 4640 8060
2021-01-08 17:45 12.15 1790 8060 (2016) 73 (2013) 2130 73 163 197 503 4540 4640 8060
2021-01-08 16:45 12.12 1770 8060 (2016) 73 (2013) 2130 73 163 197 503 4540 4640 8060
2021-01-08 15:45 12.10 1750 8060 (2016) 73 (2013) 2130 73 163 197 503 4540 4640 8060
2021-01-08 14:45 12.09 1750 8060 (2016) 73 (2013) 2130 73 163 197 503 4540 4640 8060
2021-01-08 13:45 12.07 1730 8060 (2016) 73 (2013) 2130 73 163 197 503 4540 4640 8060
2021-01-08 12:45 12.08 1740 8060 (2016) 73 (2013) 2130 73 163 197 503 4540 4640 8060
2021-01-08 11:45 12.07 1730 8060 (2016) 73 (2013) 2130 73 163 197 503 4540 4640 8060
2021-01-08 10:45 12.06 1720 8060 (2016) 73 (2013) 2130 73 163 197 503 4540 4640 8060
2021-01-08 09:45 12.04 1710 8060 (2016) 73 (2013) 2130 73 163 197 503 4540 4640 8060
2021-01-08 08:45 12.03 1700 8060 (2016) 73 (2013) 2130 73 163 197 503 4540 4640 8060
2021-01-08 07:45 12.01 1680 8060 (2016) 73 (2013) 2130 73 163 197 503 4540 4640 8060
2021-01-08 06:45 11.99 1660 8060 (2016) 73 (2013) 2130 73 163 197 503 4540 4640 8060
2021-01-08 05:45 11.96 1640 8060 (2016) 73 (2013) 2130 73 163 197 503 4540 4640 8060
2021-01-08 04:45 11.94 1620 8060 (2016) 73 (2013) 2130 73 163 197 503 4540 4640 8060
2021-01-08 03:45 11.91 1590 8060 (2016) 73 (2013) 2130 73 163 197 503 4540 4640 8060
2021-01-08 02:45 11.89 1580 8060 (2016) 73 (2013) 2130 73 163 197 503 4540 4640 8060
2021-01-08 01:45 11.89 1580 8060 (2016) 73 (2013) 2130 73 163 197 503 4540 4640 8060
2021-01-08 00:45 11.91 1590 8060 (2016) 73 (2013) 2130 73 163 197 503 4540 4640 8060
2021-01-07 23:45 11.91 1590 7460 (2016) 50 (2013) 2120 50 190 198 468 4690 4790 7460
2021-01-07 22:45 11.92 1600 7460 (2016) 50 (2013) 2120 50 190 198 468 4690 4790 7460
2021-01-07 21:45 11.92 1600 7460 (2016) 50 (2013) 2120 50 190 198 468 4690 4790 7460
2021-01-07 20:45 11.89 1580 7460 (2016) 50 (2013) 2120 50 190 198 468 4690 4790 7460
2021-01-07 19:45 11.86 1550 7460 (2016) 50 (2013) 2120 50 190 198 468 4690 4790 7460
2021-01-07 18:45 11.84 1530 7460 (2016) 50 (2013) 2120 50 190 198 468 4690 4790 7460
2021-01-07 17:45 11.80 1500 7460 (2016) 50 (2013) 2120 50 190 198 468 4690 4790 7460
2021-01-07 16:45 11.77 1470 7460 (2016) 50 (2013) 2120 50 190 198 468 4690 4790 7460
2021-01-07 15:45 11.74 1450 7460 (2016) 50 (2013) 2120 50 190 198 468 4690 4790 7460
2021-01-07 14:45 11.71 1420 7460 (2016) 50 (2013) 2120 50 190 198 468 4690 4790 7460
2021-01-07 13:45 11.67 1390 7460 (2016) 50 (2013) 2120 50 190 198 468 4690 4790 7460
2021-01-07 12:45 11.64 1370 7460 (2016) 50 (2013) 2120 50 190 198 468 4690 4790 7460
2021-01-07 11:45 11.61 1340 7460 (2016) 50 (2013) 2120 50 190 198 468 4690 4790 7460
2021-01-07 10:45 11.57 1310 7460 (2016) 50 (2013) 2120 50 190 198 468 4690 4790 7460
2021-01-07 09:45 11.53 1280 7460 (2016) 50 (2013) 2120 50 190 198 468 4690 4790 7460
2021-01-07 08:45 11.49 1250 7460 (2016) 50 (2013) 2120 50 190 198 468 4690 4790 7460
2021-01-07 07:45 11.45 1220 7460 (2016) 50 (2013) 2120 50 190 198 468 4690 4790 7460
2021-01-07 06:45 11.42 1200 7460 (2016) 50 (2013) 2120 50 190 198 468 4690 4790 7460
2021-01-07 05:45 11.39 1180 7460 (2016) 50 (2013) 2120 50 190 198 468 4690 4790 7460
2021-01-07 04:45 11.36 1160 7460 (2016) 50 (2013) 2120 50 190 198 468 4690 4790 7460
2021-01-07 03:45 11.35 1150 7460 (2016) 50 (2013) 2120 50 190 198 468 4690 4790 7460
2021-01-07 02:45 11.33 1130 7460 (2016) 50 (2013) 2120 50 190 198 468 4690 4790 7460
2021-01-07 01:45 11.31 1120 7460 (2016) 50 (2013) 2120 50 190 198 468 4690 4790 7460
2021-01-07 00:45 11.32 1130 7460 (2016) 50 (2013) 2120 50 190 198 468 4690 4790 7460
2021-01-06 23:45 11.33 1130 9660 (2016) 50 (2013) 2470 50 198 215 620 5060 5090 9660
2021-01-06 22:45 11.35 1150 9660 (2016) 50 (2013) 2470 50 198 215 620 5060 5090 9660
2021-01-06 21:45 11.38 1170 9660 (2016) 50 (2013) 2470 50 198 215 620 5060 5090 9660
2021-01-06 20:45 11.38 1170 9660 (2016) 50 (2013) 2470 50 198 215 620 5060 5090 9660
2021-01-06 19:45 11.41 1190 9660 (2016) 50 (2013) 2470 50 198 215 620 5060 5090 9660
2021-01-06 18:45 11.34 1140 9660 (2016) 50 (2013) 2470 50 198 215 620 5060 5090 9660
2021-01-06 17:45 11.37 1160 9660 (2016) 50 (2013) 2470 50 198 215 620 5060 5090 9660
2021-01-06 16:45 11.38 1170 9660 (2016) 50 (2013) 2470 50 198 215 620 5060 5090 9660
2021-01-06 15:45 11.35 1150 9660 (2016) 50 (2013) 2470 50 198 215 620 5060 5090 9660
2021-01-06 14:45 11.37 1160 9660 (2016) 50 (2013) 2470 50 198 215 620 5060 5090 9660
2021-01-06 13:45 11.38 1170 9660 (2016) 50 (2013) 2470 50 198 215 620 5060 5090 9660
2021-01-06 12:45 11.36 1160 9660 (2016) 50 (2013) 2470 50 198 215 620 5060 5090 9660
2021-01-06 11:45 11.39 1180 9660 (2016) 50 (2013) 2470 50 198 215 620 5060 5090 9660
2021-01-06 10:45 11.35 1150 9660 (2016) 50 (2013) 2470 50 198 215 620 5060 5090 9660
2021-01-06 09:45 11.36 1160 9660 (2016) 50 (2013) 2470 50 198 215 620 5060 5090 9660
2021-01-06 08:45 11.37 1160 9660 (2016) 50 (2013) 2470 50 198 215 620 5060 5090 9660
2021-01-06 07:45 11.32 1130 9660 (2016) 50 (2013) 2470 50 198 215 620 5060 5090 9660
2021-01-06 06:45 11.35 1150 9660 (2016) 50 (2013) 2470 50 198 215 620 5060 5090 9660
2021-01-06 05:45 11.32 1130 9660 (2016) 50 (2013) 2470 50 198 215 620 5060 5090 9660
2021-01-06 04:45 11.32 1130 9660 (2016) 50 (2013) 2470 50 198 215 620 5060 5090 9660
2021-01-06 03:45 11.35 1150 9660 (2016) 50 (2013) 2470 50 198 215 620 5060 5090 9660
2021-01-06 02:45 11.30 1110 9660 (2016) 50 (2013) 2470 50 198 215 620 5060 5090 9660
2021-01-06 01:45 11.29 1110 9660 (2016) 50 (2013) 2470 50 198 215 620 5060 5090 9660
2021-01-06 00:45 11.35 1150 9660 (2016) 50 (2013) 2470 50 198 215 620 5060 5090 9660
2021-01-05 23:45 11.35 1150 13200 (2016) 50 (2013) 3150 50 213 247 613 6240 6650 13200
2021-01-05 22:45 11.35 1150 13200 (2016) 50 (2013) 3150 50 213 247 613 6240 6650 13200
2021-01-05 21:45 11.31 1120 13200 (2016) 50 (2013) 3150 50 213 247 613 6240 6650 13200
2021-01-05 20:45 11.35 1150 13200 (2016) 50 (2013) 3150 50 213 247 613 6240 6650 13200
2021-01-05 19:45 11.35 1150 13200 (2016) 50 (2013) 3150 50 213 247 613 6240 6650 13200
2021-01-05 18:45 11.33 1130 13200 (2016) 50 (2013) 3150 50 213 247 613 6240 6650 13200
2021-01-05 17:45 11.31 1120 13200 (2016) 50 (2013) 3150 50 213 247 613 6240 6650 13200
2021-01-05 16:45 11.30 1110 13200 (2016) 50 (2013) 3150 50 213 247 613 6240 6650 13200
2021-01-05 15:45 11.26 1080 13200 (2016) 50 (2013) 3150 50 213 247 613 6240 6650 13200
2021-01-05 14:45 11.33 1130 13200 (2016) 50 (2013) 3150 50 213 247 613 6240 6650 13200
2021-01-05 13:45 11.32 1130 13200 (2016) 50 (2013) 3150 50 213 247 613 6240 6650 13200
2021-01-05 12:45 11.39 1180 13200 (2016) 50 (2013) 3150 50 213 247 613 6240 6650 13200
2021-01-05 11:45 11.39 1180 13200 (2016) 50 (2013) 3150 50 213 247 613 6240 6650 13200
2021-01-05 10:45 11.42 1200 13200 (2016) 50 (2013) 3150 50 213 247 613 6240 6650 13200
2021-01-05 09:45 11.42 1200 13200 (2016) 50 (2013) 3150 50 213 247 613 6240 6650 13200
2021-01-05 08:45 11.43 1210 13200 (2016) 50 (2013) 3150 50 213 247 613 6240 6650 13200
2021-01-05 07:45 11.43 1210 13200 (2016) 50 (2013) 3150 50 213 247 613 6240 6650 13200
2021-01-05 06:45 11.43 1210 13200 (2016) 50 (2013) 3150 50 213 247 613 6240 6650 13200
2021-01-05 05:45 11.44 1210 13200 (2016) 50 (2013) 3150 50 213 247 613 6240 6650 13200
2021-01-05 04:45 11.44 1210 13200 (2016) 50 (2013) 3150 50 213 247 613 6240 6650 13200
2021-01-05 03:45 11.45 1220 13200 (2016) 50 (2013) 3150 50 213 247 613 6240 6650 13200
2021-01-05 02:45 11.46 1230 13200 (2016) 50 (2013) 3150 50 213 247 613 6240 6650 13200
2021-01-05 01:45 11.47 1240 13200 (2016) 50 (2013) 3150 50 213 247 613 6240 6650 13200
2021-01-05 00:45 11.49 1250 13200 (2016) 50 (2013) 3150 50 213 247 613 6240 6650 13200
2021-01-04 23:45 11.51 1270 16600 (2016) 50 (2013) 4360 50 211 243 678 10000 12600 16600
2021-01-04 22:45 11.53 1280 16600 (2016) 50 (2013) 4360 50 211 243 678 10000 12600 16600
2021-01-04 21:45 11.54 1290 16600 (2016) 50 (2013) 4360 50 211 243 678 10000 12600 16600
2021-01-04 20:45 11.56 1310 16600 (2016) 50 (2013) 4360 50 211 243 678 10000 12600 16600
2021-01-04 19:45 11.57 1310 16600 (2016) 50 (2013) 4360 50 211 243 678 10000 12600 16600
2021-01-04 18:45 11.58 1320 16600 (2016) 50 (2013) 4360 50 211 243 678 10000 12600 16600
2021-01-04 17:45 11.60 1340 16600 (2016) 50 (2013) 4360 50 211 243 678 10000 12600 16600
2021-01-04 16:45 11.59 1330 16600 (2016) 50 (2013) 4360 50 211 243 678 10000 12600 16600
2021-01-04 15:45 11.60 1340 16600 (2016) 50 (2013) 4360 50 211 243 678 10000 12600 16600
2021-01-04 14:45 11.65 1380 16600 (2016) 50 (2013) 4360 50 211 243 678 10000 12600 16600
2021-01-04 13:45 11.67 1390 16600 (2016) 50 (2013) 4360 50 211 243 678 10000 12600 16600
2021-01-04 12:45 11.69 1410 16600 (2016) 50 (2013) 4360 50 211 243 678 10000 12600 16600
2021-01-04 11:45 11.73 1440 16600 (2016) 50 (2013) 4360 50 211 243 678 10000 12600 16600
2021-01-04 10:45 11.80 1500 16600 (2016) 50 (2013) 4360 50 211 243 678 10000 12600 16600
2021-01-04 09:45 11.83 1520 16600 (2016) 50 (2013) 4360 50 211 243 678 10000 12600 16600
2021-01-04 08:45 11.87 1560 16600 (2016) 50 (2013) 4360 50 211 243 678 10000 12600 16600
2021-01-04 07:45 11.89 1580 16600 (2016) 50 (2013) 4360 50 211 243 678 10000 12600 16600
2021-01-04 06:45 11.93 1610 16600 (2016) 50 (2013) 4360 50 211 243 678 10000 12600 16600
2021-01-04 05:45 11.96 1640 16600 (2016) 50 (2013) 4360 50 211 243 678 10000 12600 16600
2021-01-04 04:45 11.99 1660 16600 (2016) 50 (2013) 4360 50 211 243 678 10000 12600 16600
2021-01-04 03:45 12.03 1700 16600 (2016) 50 (2013) 4360 50 211 243 678 10000 12600 16600
2021-01-04 02:45 12.06 1720 16600 (2016) 50 (2013) 4360 50 211 243 678 10000 12600 16600
2021-01-04 01:45 12.10 1750 16600 (2016) 50 (2013) 4360 50 211 243 678 10000 12600 16600
2021-01-04 00:45 12.14 1790 16600 (2016) 50 (2013) 4360 50 211 243 678 10000 12600 16600
2021-01-03 23:45 12.17 1810 19900 (2016) 50 (2013) 5700 50 285 324 688 14400 18400 19900
2021-01-03 22:45 12.20 1840 19900 (2016) 50 (2013) 5700 50 285 324 688 14400 18400 19900
2021-01-03 21:45 12.23 1860 19900 (2016) 50 (2013) 5700 50 285 324 688 14400 18400 19900
2021-01-03 20:45 12.24 1870 19900 (2016) 50 (2013) 5700 50 285 324 688 14400 18400 19900
2021-01-03 19:45 12.25 1880 19900 (2016) 50 (2013) 5700 50 285 324 688 14400 18400 19900
2021-01-03 18:45 12.31 1930 19900 (2016) 50 (2013) 5700 50 285 324 688 14400 18400 19900
2021-01-03 17:45 12.33 1950 19900 (2016) 50 (2013) 5700 50 285 324 688 14400 18400 19900
2021-01-03 16:45 12.36 1970 19900 (2016) 50 (2013) 5700 50 285 324 688 14400 18400 19900
2021-01-03 15:45 12.38 1990 19900 (2016) 50 (2013) 5700 50 285 324 688 14400 18400 19900
2021-01-03 14:45 12.40 2010 19900 (2016) 50 (2013) 5700 50 285 324 688 14400 18400 19900
2021-01-03 13:45 12.37 1980 19900 (2016) 50 (2013) 5700 50 285 324 688 14400 18400 19900
2021-01-03 12:45 12.39 2000 19900 (2016) 50 (2013) 5700 50 285 324 688 14400 18400 19900
2021-01-03 11:45 12.43 2040 19900 (2016) 50 (2013) 5700 50 285 324 688 14400 18400 19900
2021-01-03 10:45 12.44 2050 19900 (2016) 50 (2013) 5700 50 285 324 688 14400 18400 19900
2021-01-03 09:45 12.45 2050 19900 (2016) 50 (2013) 5700 50 285 324 688 14400 18400 19900
2021-01-03 08:45 12.44 2050 19900 (2016) 50 (2013) 5700 50 285 324 688 14400 18400 19900
2021-01-03 07:45 12.44 2050 19900 (2016) 50 (2013) 5700 50 285 324 688 14400 18400 19900
2021-01-03 06:45 12.42 2030 19900 (2016) 50 (2013) 5700 50 285 324 688 14400 18400 19900
2021-01-03 05:45 12.41 2020 19900 (2016) 50 (2013) 5700 50 285 324 688 14400 18400 19900
2021-01-03 04:45 12.39 2000 19900 (2016) 50 (2013) 5700 50 285 324 688 14400 18400 19900
2021-01-03 03:45 12.38 1990 19900 (2016) 50 (2013) 5700 50 285 324 688 14400 18400 19900
2021-01-03 02:45 12.35 1970 19900 (2016) 50 (2013) 5700 50 285 324 688 14400 18400 19900
2021-01-03 01:45 12.32 1940 19900 (2016) 50 (2013) 5700 50 285 324 688 14400 18400 19900
2021-01-03 00:45 12.28 1900 19900 (2016) 50 (2013) 5700 50 285 324 688 14400 18400 19900
2021-01-02 23:45 12.25 1880 23900 (2016) 50 (2013) 6610 50 308 343 670 16500 18200 23900
2021-01-02 22:45 12.21 1850 23900 (2016) 50 (2013) 6610 50 308 343 670 16500 18200 23900
2021-01-02 21:45 12.16 1800 23900 (2016) 50 (2013) 6610 50 308 343 670 16500 18200 23900
2021-01-02 20:45 12.11 1760 23900 (2016) 50 (2013) 6610 50 308 343 670 16500 18200 23900
2021-01-02 19:45 12.06 1720 23900 (2016) 50 (2013) 6610 50 308 343 670 16500 18200 23900
2021-01-02 18:45 12.00 1670 23900 (2016) 50 (2013) 6610 50 308 343 670 16500 18200 23900
2021-01-02 17:45 11.95 1630 23900 (2016) 50 (2013) 6610 50 308 343 670 16500 18200 23900
2021-01-02 16:45 11.88 1570 23900 (2016) 50 (2013) 6610 50 308 343 670 16500 18200 23900
2021-01-02 15:45 11.84 1530 23900 (2016) 50 (2013) 6610 50 308 343 670 16500 18200 23900
2021-01-02 14:45 11.78 1480 23900 (2016) 50 (2013) 6610 50 308 343 670 16500 18200 23900
2021-01-02 13:45 11.72 1430 23900 (2016) 50 (2013) 6610 50 308 343 670 16500 18200 23900
2021-01-02 12:45 11.67 1390 23900 (2016) 50 (2013) 6610 50 308 343 670 16500 18200 23900
2021-01-02 11:45 11.60 1340 23900 (2016) 50 (2013) 6610 50 308 343 670 16500 18200 23900
2021-01-02 10:45 11.54 1290 23900 (2016) 50 (2013) 6610 50 308 343 670 16500 18200 23900
2021-01-02 09:45 11.47 1240 23900 (2016) 50 (2013) 6610 50 308 343 670 16500 18200 23900
2021-01-02 08:45 11.41 1190 23900 (2016) 50 (2013) 6610 50 308 343 670 16500 18200 23900
2021-01-02 07:45 11.33 1130 23900 (2016) 50 (2013) 6610 50 308 343 670 16500 18200 23900
2021-01-02 06:45 11.25 1080 23900 (2016) 50 (2013) 6610 50 308 343 670 16500 18200 23900
2021-01-02 05:45 11.17 1020 23900 (2016) 50 (2013) 6610 50 308 343 670 16500 18200 23900
2021-01-02 04:45 11.08 965 23900 (2016) 50 (2013) 6610 50 308 343 670 16500 18200 23900
2021-01-02 03:45 11.00 914 23900 (2016) 50 (2013) 6610 50 308 343 670 16500 18200 23900
2021-01-02 02:45 10.92 865 23900 (2016) 50 (2013) 6610 50 308 343 670 16500 18200 23900
2021-01-02 01:45 10.83 813 23900 (2016) 50 (2013) 6610 50 308 343 670 16500 18200 23900
2021-01-02 00:45 10.75 768 23900 (2016) 50 (2013) 6610 50 308 343 670 16500 18200 23900
2021-01-01 23:45 10.68 730 27500 (2016) 50 (2013) 6710 50 320 377 626 15000 17500 27500
2021-01-01 22:45 10.60 688 27500 (2016) 50 (2013) 6710 50 320 377 626 15000 17500 27500
2021-01-01 21:45 10.50 638 27500 (2016) 50 (2013) 6710 50 320 377 626 15000 17500 27500
2021-01-01 20:45 10.47 623 27500 (2016) 50 (2013) 6710 50 320 377 626 15000 17500 27500
2021-01-01 19:45 10.38 581 27500 (2016) 50 (2013) 6710 50 320 377 626 15000 17500 27500
2021-01-01 18:45 10.28 539 27500 (2016) 50 (2013) 6710 50 320 377 626 15000 17500 27500
2021-01-01 17:45 10.18 500 27500 (2016) 50 (2013) 6710 50 320 377 626 15000 17500 27500
2021-01-01 16:45 10.07 459 27500 (2016) 50 (2013) 6710 50 320 377 626 15000 17500 27500
2021-01-01 15:45 9.93 410 27500 (2016) 50 (2013) 6710 50 320 377 626 15000 17500 27500
2021-01-01 14:45 9.85 383 27500 (2016) 50 (2013) 6710 50 320 377 626 15000 17500 27500
2021-01-01 13:45 9.76 354 27500 (2016) 50 (2013) 6710 50 320 377 626 15000 17500 27500
2021-01-01 12:45 9.69 333 27500 (2016) 50 (2013) 6710 50 320 377 626 15000 17500 27500
2021-01-01 11:45 9.68 330 27500 (2016) 50 (2013) 6710 50 320 377 626 15000 17500 27500
2021-01-01 10:45 9.64 318 27500 (2016) 50 (2013) 6710 50 320 377 626 15000 17500 27500
2021-01-01 08:45 9.63 316 27500 (2016) 50 (2013) 6710 50 320 377 626 15000 17500 27500
2021-01-01 07:45 9.57 299 27500 (2016) 50 (2013) 6710 50 320 377 626 15000 17500 27500
2021-01-01 05:45 9.53 288 27500 (2016) 50 (2013) 6710 50 320 377 626 15000 17500 27500
2021-01-01 04:45 9.49 277 27500 (2016) 50 (2013) 6710 50 320 377 626 15000 17500 27500
2021-01-01 03:45 9.40 254 27500 (2016) 50 (2013) 6710 50 320 377 626 15000 17500 27500
2021-01-01 02:45 9.37 246 27500 (2016) 50 (2013) 6710 50 320 377 626 15000 17500 27500
2021-01-01 01:45 9.35 241 27500 (2016) 50 (2013) 6710 50 320 377 626 15000 17500 27500
2021-01-01 00:45 9.36 244 27500 (2016) 50 (2013) 6710 50 320 377 626 15000 17500 27500
2020-12-31 23:45 9.33 236 29400 (2016) 50 (2013) 6480 50 336 421 663 12900 17600 29400
2020-12-31 22:45 9.33 236 29400 (2016) 50 (2013) 6480 50 336 421 663 12900 17600 29400
2020-12-31 21:45 9.32 234 29400 (2016) 50 (2013) 6480 50 336 421 663 12900 17600 29400
2020-12-31 20:45 9.28 225 29400 (2016) 50 (2013) 6480 50 336 421 663 12900 17600 29400
2020-12-31 19:45 9.25 218 29400 (2016) 50 (2013) 6480 50 336 421 663 12900 17600 29400
2020-12-31 18:45 9.24 216 29400 (2016) 50 (2013) 6480 50 336 421 663 12900 17600 29400
2020-12-31 17:45 9.25 218 29400 (2016) 50 (2013) 6480 50 336 421 663 12900 17600 29400
2020-12-31 16:45 9.26 220 29400 (2016) 50 (2013) 6480 50 336 421 663 12900 17600 29400
2020-12-31 15:45 9.27 222 29400 (2016) 50 (2013) 6480 50 336 421 663 12900 17600 29400
2020-12-31 14:45 9.27 222 29400 (2016) 50 (2013) 6480 50 336 421 663 12900 17600 29400
2020-12-31 13:45 9.24 216 29400 (2016) 50 (2013) 6480 50 336 421 663 12900 17600 29400
2020-12-31 12:45 9.21 209 29400 (2016) 50 (2013) 6480 50 336 421 663 12900 17600 29400
2020-12-31 11:45 9.22 211 29400 (2016) 50 (2013) 6480 50 336 421 663 12900 17600 29400
2020-12-31 10:45 9.19 205 29400 (2016) 50 (2013) 6480 50 336 421 663 12900 17600 29400
2020-12-31 09:45 9.21 209 29400 (2016) 50 (2013) 6480 50 336 421 663 12900 17600 29400
2020-12-31 08:45 9.21 209 29400 (2016) 50 (2013) 6480 50 336 421 663 12900 17600 29400
2020-12-31 07:45 9.20 207 29400 (2016) 50 (2013) 6480 50 336 421 663 12900 17600 29400
2020-12-31 06:45 9.21 209 29400 (2016) 50 (2013) 6480 50 336 421 663 12900 17600 29400
2020-12-31 05:45 9.21 209 29400 (2016) 50 (2013) 6480 50 336 421 663 12900 17600 29400
2020-12-31 04:45 9.20 207 29400 (2016) 50 (2013) 6480 50 336 421 663 12900 17600 29400
2020-12-31 03:45 9.20 207 29400 (2016) 50 (2013) 6480 50 336 421 663 12900 17600 29400
2020-12-31 02:45 9.19 205 29400 (2016) 50 (2013) 6480 50 336 421 663 12900 17600 29400
2020-12-31 01:45 9.16 199 29400 (2016) 50 (2013) 6480 50 336 421 663 12900 17600 29400
2020-12-31 00:45 9.16 199 29400 (2016) 50 (2013) 6480 50 336 421 663 12900 17600 29400
2020-12-30 23:45 9.19 205 25100 (2016) 50 (2013) 6300 50 453 496 741 14100 14800 25100
2020-12-30 22:45 9.21 209 25100 (2016) 50 (2013) 6300 50 453 496 741 14100 14800 25100
2020-12-30 21:45 9.24 216 25100 (2016) 50 (2013) 6300 50 453 496 741 14100 14800 25100
2020-12-30 20:45 9.24 216 25100 (2016) 50 (2013) 6300 50 453 496 741 14100 14800 25100
2020-12-30 19:45 9.21 209 25100 (2016) 50 (2013) 6300 50 453 496 741 14100 14800 25100
2020-12-30 18:45 9.20 207 25100 (2016) 50 (2013) 6300 50 453 496 741 14100 14800 25100
2020-12-30 17:45 9.17 201 25100 (2016) 50 (2013) 6300 50 453 496 741 14100 14800 25100
2020-12-30 16:45 9.13 193 25100 (2016) 50 (2013) 6300 50 453 496 741 14100 14800 25100
2020-12-30 15:45 9.10 188 25100 (2016) 50 (2013) 6300 50 453 496 741 14100 14800 25100
2020-12-30 14:45 9.08 184 25100 (2016) 50 (2013) 6300 50 453 496 741 14100 14800 25100
2020-12-30 13:45 9.10 188 25100 (2016) 50 (2013) 6300 50 453 496 741 14100 14800 25100
2020-12-30 12:45 9.12 192 25100 (2016) 50 (2013) 6300 50 453 496 741 14100 14800 25100
2020-12-30 11:45 9.16 199 25100 (2016) 50 (2013) 6300 50 453 496 741 14100 14800 25100
2020-12-30 10:45 9.18 203 25100 (2016) 50 (2013) 6300 50 453 496 741 14100 14800 25100
2020-12-30 09:45 9.24 216 25100 (2016) 50 (2013) 6300 50 453 496 741 14100 14800 25100
2020-12-30 08:45 9.23 214 25100 (2016) 50 (2013) 6300 50 453 496 741 14100 14800 25100
2020-12-30 07:45 9.25 218 25100 (2016) 50 (2013) 6300 50 453 496 741 14100 14800 25100
2020-12-30 06:45 9.27 222 25100 (2016) 50 (2013) 6300 50 453 496 741 14100 14800 25100
2020-12-30 05:45 9.22 211 25100 (2016) 50 (2013) 6300 50 453 496 741 14100 14800 25100
2020-12-30 04:45 9.19 205 25100 (2016) 50 (2013) 6300 50 453 496 741 14100 14800 25100
2020-12-30 03:45 9.07 182 25100 (2016) 50 (2013) 6300 50 453 496 741 14100 14800 25100
2020-12-30 02:45 9.07 182 25100 (2016) 50 (2013) 6300 50 453 496 741 14100 14800 25100
2020-12-30 01:45 9.01 171 25100 (2016) 50 (2013) 6300 50 453 496 741 14100 14800 25100
2020-12-30 00:45 9.01 171 25100 (2016) 50 (2013) 6300 50 453 496 741 14100 14800 25100
2020-12-29 23:45 8.99 167 16800 (2016) 50 (2013) 4820 50 372 450 854 11500 13900 16800
2020-12-29 22:45 8.98 166 16800 (2016) 50 (2013) 4820 50 372 450 854 11500 13900 16800
2020-12-29 21:45 9.01 171 16800 (2016) 50 (2013) 4820 50 372 450 854 11500 13900 16800
2020-12-29 20:45 8.99 167 16800 (2016) 50 (2013) 4820 50 372 450 854 11500 13900 16800
2020-12-29 19:45 9.03 175 16800 (2016) 50 (2013) 4820 50 372 450 854 11500 13900 16800
2020-12-29 18:45 9.03 175 16800 (2016) 50 (2013) 4820 50 372 450 854 11500 13900 16800
2020-12-29 17:45 9.08 184 16800 (2016) 50 (2013) 4820 50 372 450 854 11500 13900 16800
2020-12-29 16:45 9.13 193 16800 (2016) 50 (2013) 4820 50 372 450 854 11500 13900 16800
2020-12-29 15:45 9.14 195 16800 (2016) 50 (2013) 4820 50 372 450 854 11500 13900 16800
2020-12-29 14:45 9.13 193 16800 (2016) 50 (2013) 4820 50 372 450 854 11500 13900 16800
2020-12-29 13:45 9.11 190 16800 (2016) 50 (2013) 4820 50 372 450 854 11500 13900 16800
2020-12-29 12:45 9.10 188 16800 (2016) 50 (2013) 4820 50 372 450 854 11500 13900 16800
2020-12-29 11:45 9.14 195 16800 (2016) 50 (2013) 4820 50 372 450 854 11500 13900 16800
2020-12-29 10:45 9.15 197 16800 (2016) 50 (2013) 4820 50 372 450 854 11500 13900 16800
2020-12-29 09:45 9.16 199 16800 (2016) 50 (2013) 4820 50 372 450 854 11500 13900 16800
2020-12-29 08:45 9.20 207 16800 (2016) 50 (2013) 4820 50 372 450 854 11500 13900 16800
2020-12-29 07:45 9.25 218 16800 (2016) 50 (2013) 4820 50 372 450 854 11500 13900 16800
2020-12-29 06:45 9.24 216 16800 (2016) 50 (2013) 4820 50 372 450 854 11500 13900 16800
2020-12-29 05:45 9.24 216 16800 (2016) 50 (2013) 4820 50 372 450 854 11500 13900 16800
2020-12-29 04:45 9.24 216 16800 (2016) 50 (2013) 4820 50 372 450 854 11500 13900 16800
2020-12-29 03:45 9.15 197 16800 (2016) 50 (2013) 4820 50 372 450 854 11500 13900 16800
2020-12-29 02:45 9.13 193 16800 (2016) 50 (2013) 4820 50 372 450 854 11500 13900 16800
2020-12-29 01:45 9.13 193 16800 (2016) 50 (2013) 4820 50 372 450 854 11500 13900 16800
2020-12-29 00:45 9.10 188 16800 (2016) 50 (2013) 4820 50 372 450 854 11500 13900 16800
2020-12-28 23:45 9.09 186 12600 (2016) 50 (2013) 2710 50 331 452 1050 3990 6030 12600
2020-12-28 22:45 9.08 184 12600 (2016) 50 (2013) 2710 50 331 452 1050 3990 6030 12600
2020-12-28 21:45 9.11 190 12600 (2016) 50 (2013) 2710 50 331 452 1050 3990 6030 12600
2020-12-28 20:45 9.14 195 12600 (2016) 50 (2013) 2710 50 331 452 1050 3990 6030 12600
2020-12-28 19:45 9.18 203 12600 (2016) 50 (2013) 2710 50 331 452 1050 3990 6030 12600
2020-12-28 18:45 9.21 209 12600 (2016) 50 (2013) 2710 50 331 452 1050 3990 6030 12600
2020-12-28 17:45 9.20 207 12600 (2016) 50 (2013) 2710 50 331 452 1050 3990 6030 12600
2020-12-28 16:45 9.16 199 12600 (2016) 50 (2013) 2710 50 331 452 1050 3990 6030 12600
2020-12-28 15:45 9.11 190 12600 (2016) 50 (2013) 2710 50 331 452 1050 3990 6030 12600
2020-12-28 14:45 9.09 186 12600 (2016) 50 (2013) 2710 50 331 452 1050 3990 6030 12600
2020-12-28 13:45 9.05 178 12600 (2016) 50 (2013) 2710 50 331 452 1050 3990 6030 12600
2020-12-28 12:45 9.11 190 12600 (2016) 50 (2013) 2710 50 331 452 1050 3990 6030 12600
2020-12-28 11:45 9.14 195 12600 (2016) 50 (2013) 2710 50 331 452 1050 3990 6030 12600
2020-12-28 10:45 9.15 197 12600 (2016) 50 (2013) 2710 50 331 452 1050 3990 6030 12600
2020-12-28 09:45 9.15 197 12600 (2016) 50 (2013) 2710 50 331 452 1050 3990 6030 12600
2020-12-28 08:45 9.16 199 12600 (2016) 50 (2013) 2710 50 331 452 1050 3990 6030 12600
2020-12-28 07:45 9.16 199 12600 (2016) 50 (2013) 2710 50 331 452 1050 3990 6030 12600
2020-12-28 06:45 9.15 197 12600 (2016) 50 (2013) 2710 50 331 452 1050 3990 6030 12600
2020-12-28 05:45 9.13 193 12600 (2016) 50 (2013) 2710 50 331 452 1050 3990 6030 12600
2020-12-28 04:45 9.14 195 12600 (2016) 50 (2013) 2710 50 331 452 1050 3990 6030 12600
2020-12-28 03:45 9.14 195 12600 (2016) 50 (2013) 2710 50 331 452 1050 3990 6030 12600
2020-12-28 02:45 9.14 195 12600 (2016) 50 (2013) 2710 50 331 452 1050 3990 6030 12600
2020-12-28 01:45 9.18 203 12600 (2016) 50 (2013) 2710 50 331 452 1050 3990 6030 12600
2020-12-28 00:45 9.19 205 12600 (2016) 50 (2013) 2710 50 331 452 1050 3990 6030 12600
2020-12-27 23:45 9.24 216 10600 (2016) 50 (2013) 1980 50 335 466 1030 1620 1850 10600
2020-12-27 22:45 9.27 222 10600 (2016) 50 (2013) 1980 50 335 466 1030 1620 1850 10600
2020-12-27 21:45 9.25 218 10600 (2016) 50 (2013) 1980 50 335 466 1030 1620 1850 10600
2020-12-27 20:45 9.22 211 10600 (2016) 50 (2013) 1980 50 335 466 1030 1620 1850 10600
2020-12-27 19:45 9.14 195 10600 (2016) 50 (2013) 1980 50 335 466 1030 1620 1850 10600
2020-12-27 18:45 9.04 176 10600 (2016) 50 (2013) 1980 50 335 466 1030 1620 1850 10600
2020-12-27 17:45 8.94 159 10600 (2016) 50 (2013) 1980 50 335 466 1030 1620 1850 10600
2020-12-27 16:45 8.85 144 10600 (2016) 50 (2013) 1980 50 335 466 1030 1620 1850 10600
2020-12-27 15:45 8.87 147 10600 (2016) 50 (2013) 1980 50 335 466 1030 1620 1850 10600
2020-12-27 14:45 8.90 152 10600 (2016) 50 (2013) 1980 50 335 466 1030 1620 1850 10600
2020-12-27 13:45 8.98 166 10600 (2016) 50 (2013) 1980 50 335 466 1030 1620 1850 10600
2020-12-27 12:45 9.02 173 10600 (2016) 50 (2013) 1980 50 335 466 1030 1620 1850 10600
2020-12-27 11:45 9.07 182 10600 (2016) 50 (2013) 1980 50 335 466 1030 1620 1850 10600
2020-12-27 10:45 9.09 186 10600 (2016) 50 (2013) 1980 50 335 466 1030 1620 1850 10600
2020-12-27 09:45 9.15 197 10600 (2016) 50 (2013) 1980 50 335 466 1030 1620 1850 10600
2020-12-27 08:45 9.18 203 10600 (2016) 50 (2013) 1980 50 335 466 1030 1620 1850 10600
2020-12-27 07:45 9.16 199 10600 (2016) 50 (2013) 1980 50 335 466 1030 1620 1850 10600
2020-12-27 06:45 9.14 195 10600 (2016) 50 (2013) 1980 50 335 466 1030 1620 1850 10600
2020-12-27 05:45 9.11 190 10600 (2016) 50 (2013) 1980 50 335 466 1030 1620 1850 10600
2020-12-27 04:45 9.06 180 10600 (2016) 50 (2013) 1980 50 335 466 1030 1620 1850 10600
2020-12-27 03:45 9.08 184 10600 (2016) 50 (2013) 1980 50 335 466 1030 1620 1850 10600
2020-12-27 02:45 9.09 186 10600 (2016) 50 (2013) 1980 50 335 466 1030 1620 1850 10600
2020-12-27 01:45 9.11 190 10600 (2016) 50 (2013) 1980 50 335 466 1030 1620 1850 10600
2020-12-27 00:45 9.12 192 10600 (2016) 50 (2013) 1980 50 335 466 1030 1620 1850 10600
2020-12-26 23:45 9.13 193 3650 (2016) 50 (2013) 1220 50 294 383 649 1800 1890 3650
2020-12-26 22:45 9.14 195 3650 (2016) 50 (2013) 1220 50 294 383 649 1800 1890 3650
2020-12-26 21:45 9.17 201 3650 (2016) 50 (2013) 1220 50 294 383 649 1800 1890 3650
2020-12-26 20:45 9.19 205 3650 (2016) 50 (2013) 1220 50 294 383 649 1800 1890 3650
2020-12-26 19:45 9.19 205 3650 (2016) 50 (2013) 1220 50 294 383 649 1800 1890 3650
2020-12-26 18:45 9.18 203 3650 (2016) 50 (2013) 1220 50 294 383 649 1800 1890 3650
2020-12-26 17:45 9.12 192 3650 (2016) 50 (2013) 1220 50 294 383 649 1800 1890 3650
2020-12-26 16:45 9.07 182 3650 (2016) 50 (2013) 1220 50 294 383 649 1800 1890 3650
2020-12-26 15:45 9.02 173 3650 (2016) 50 (2013) 1220 50 294 383 649 1800 1890 3650
2020-12-26 14:45 8.98 166 3650 (2016) 50 (2013) 1220 50 294 383 649 1800 1890 3650
2020-12-26 13:45 9.02 173 3650 (2016) 50 (2013) 1220 50 294 383 649 1800 1890 3650
2020-12-26 12:45 9.07 182 3650 (2016) 50 (2013) 1220 50 294 383 649 1800 1890 3650
2020-12-26 11:45 9.13 193 3650 (2016) 50 (2013) 1220 50 294 383 649 1800 1890 3650
2020-12-26 10:45 9.17 201 3650 (2016) 50 (2013) 1220 50 294 383 649 1800 1890 3650
2020-12-26 09:45 9.18 203 3650 (2016) 50 (2013) 1220 50 294 383 649 1800 1890 3650
2020-12-26 08:45 9.19 205 3650 (2016) 50 (2013) 1220 50 294 383 649 1800 1890 3650
2020-12-26 07:45 9.19 205 3650 (2016) 50 (2013) 1220 50 294 383 649 1800 1890 3650
2020-12-26 06:45 9.16 199 3650 (2016) 50 (2013) 1220 50 294 383 649 1800 1890 3650
2020-12-26 05:45 9.12 192 3650 (2016) 50 (2013) 1220 50 294 383 649 1800 1890 3650
2020-12-26 04:45 9.11 190 3650 (2016) 50 (2013) 1220 50 294 383 649 1800 1890 3650
2020-12-26 03:45 9.08 184 3650 (2016) 50 (2013) 1220 50 294 383 649 1800 1890 3650
2020-12-26 02:45 9.09 186 3650 (2016) 50 (2013) 1220 50 294 383 649 1800 1890 3650
2020-12-26 01:45 9.10 188 3650 (2016) 50 (2013) 1220 50 294 383 649 1800 1890 3650
2020-12-26 00:45 9.11 190 3650 (2016) 50 (2013) 1220 50 294 383 649 1800 1890 3650
2020-12-25 23:45 9.13 193 3870 (2016) 50 (2013) 1410 50 342 436 718 2340 2660 3870
2020-12-25 22:45 9.13 193 3870 (2016) 50 (2013) 1410 50 342 436 718 2340 2660 3870
2020-12-25 21:45 9.15 197 3870 (2016) 50 (2013) 1410 50 342 436 718 2340 2660 3870
2020-12-25 20:45 9.16 199 3870 (2016) 50 (2013) 1410 50 342 436 718 2340 2660 3870
2020-12-25 19:45 9.16 199 3870 (2016) 50 (2013) 1410 50 342 436 718 2340 2660 3870
2020-12-25 18:45 9.15 197 3870 (2016) 50 (2013) 1410 50 342 436 718 2340 2660 3870
2020-12-25 17:45 9.13 193 3870 (2016) 50 (2013) 1410 50 342 436 718 2340 2660 3870
2020-12-25 16:45 9.08 184 3870 (2016) 50 (2013) 1410 50 342 436 718 2340 2660 3870
2020-12-25 15:45 9.04 176 3870 (2016) 50 (2013) 1410 50 342 436 718 2340 2660 3870
2020-12-25 14:45 9.01 171 3870 (2016) 50 (2013) 1410 50 342 436 718 2340 2660 3870
2020-12-25 13:45 9.03 175 3870 (2016) 50 (2013) 1410 50 342 436 718 2340 2660 3870
2020-12-25 12:45 9.07 182 3870 (2016) 50 (2013) 1410 50 342 436 718 2340 2660 3870
2020-12-25 11:45 9.08 184 3870 (2016) 50 (2013) 1410 50 342 436 718 2340 2660 3870
2020-12-25 10:45 9.09 186 3870 (2016) 50 (2013) 1410 50 342 436 718 2340 2660 3870
2020-12-25 09:45 9.10 188 3870 (2016) 50 (2013) 1410 50 342 436 718 2340 2660 3870
2020-12-25 08:45 9.11 190 3870 (2016) 50 (2013) 1410 50 342 436 718 2340 2660 3870
2020-12-25 07:45 9.12 192 3870 (2016) 50 (2013) 1410 50 342 436 718 2340 2660 3870
2020-12-25 06:45 9.14 195 3870 (2016) 50 (2013) 1410 50 342 436 718 2340 2660 3870
2020-12-25 05:45 9.13 193 3870 (2016) 50 (2013) 1410 50 342 436 718 2340 2660 3870
2020-12-25 04:45 9.18 203 3870 (2016) 50 (2013) 1410 50 342 436 718 2340 2660 3870
2020-12-25 03:45 9.18 203 3870 (2016) 50 (2013) 1410 50 342 436 718 2340 2660 3870
2020-12-25 02:45 9.21 209 3870 (2016) 50 (2013) 1410 50 342 436 718 2340 2660 3870
2020-12-25 01:45 9.22 211 3870 (2016) 50 (2013) 1410 50 342 436 718 2340 2660 3870
2020-12-25 00:45 9.22 211 3870 (2016) 50 (2013) 1410 50 342 436 718 2340 2660 3870
2020-12-24 23:45 9.20 207 5640 (2012) 50 (2013) 1810 50 312 478 747 3180 4240 5640
2020-12-24 22:45 9.17 201 5640 (2012) 50 (2013) 1810 50 312 478 747 3180 4240 5640
2020-12-24 21:45 9.14 195 5640 (2012) 50 (2013) 1810 50 312 478 747 3180 4240 5640
2020-12-24 20:45 9.13 193 5640 (2012) 50 (2013) 1810 50 312 478 747 3180 4240 5640
2020-12-24 19:45 9.16 199 5640 (2012) 50 (2013) 1810 50 312 478 747 3180 4240 5640
2020-12-24 18:45 9.14 195 5640 (2012) 50 (2013) 1810 50 312 478 747 3180 4240 5640
2020-12-24 17:45 9.15 197 5640 (2012) 50 (2013) 1810 50 312 478 747 3180 4240 5640
2020-12-24 16:45 9.13 193 5640 (2012) 50 (2013) 1810 50 312 478 747 3180 4240 5640
2020-12-24 15:45 9.12 192 5640 (2012) 50 (2013) 1810 50 312 478 747 3180 4240 5640
2020-12-24 14:45 9.11 190 5640 (2012) 50 (2013) 1810 50 312 478 747 3180 4240 5640
2020-12-24 13:45 9.13 193 5640 (2012) 50 (2013) 1810 50 312 478 747 3180 4240 5640
2020-12-24 12:45 9.12 192 5640 (2012) 50 (2013) 1810 50 312 478 747 3180 4240 5640
2020-12-24 11:45 9.10 188 5640 (2012) 50 (2013) 1810 50 312 478 747 3180 4240 5640
2020-12-24 10:45 9.10 188 5640 (2012) 50 (2013) 1810 50 312 478 747 3180 4240 5640
2020-12-24 09:45 9.06 180 5640 (2012) 50 (2013) 1810 50 312 478 747 3180 4240 5640
2020-12-24 08:45 9.01 171 5640 (2012) 50 (2013) 1810 50 312 478 747 3180 4240 5640
2020-12-24 07:45 9.02 173 5640 (2012) 50 (2013) 1810 50 312 478 747 3180 4240 5640
2020-12-24 06:45 9.05 178 5640 (2012) 50 (2013) 1810 50 312 478 747 3180 4240 5640
2020-12-24 05:45 9.07 182 5640 (2012) 50 (2013) 1810 50 312 478 747 3180 4240 5640
2020-12-24 04:45 9.12 192 5640 (2012) 50 (2013) 1810 50 312 478 747 3180 4240 5640
2020-12-24 03:45 9.14 195 5640 (2012) 50 (2013) 1810 50 312 478 747 3180 4240 5640
2020-12-24 02:45 9.17 201 5640 (2012) 50 (2013) 1810 50 312 478 747 3180 4240 5640
2020-12-24 01:45 9.16 199 5640 (2012) 50 (2013) 1810 50 312 478 747 3180 4240 5640
2020-12-24 00:45 9.11 190 5640 (2012) 50 (2013) 1810 50 312 478 747 3180 4240 5640
2020-12-23 23:45 9.10 188 10100 (2012) 50 (2013) 2370 50 222 425 781 3480 4810 10100
2020-12-23 22:45 9.05 178 10100 (2012) 50 (2013) 2370 50 222 425 781 3480 4810 10100
2020-12-23 21:45 8.96 162 10100 (2012) 50 (2013) 2370 50 222 425 781 3480 4810 10100
2020-12-23 20:45 9.00 169 10100 (2012) 50 (2013) 2370 50 222 425 781 3480 4810 10100
2020-12-23 19:45 8.96 162 10100 (2012) 50 (2013) 2370 50 222 425 781 3480 4810 10100
2020-12-23 18:45 9.03 175 10100 (2012) 50 (2013) 2370 50 222 425 781 3480 4810 10100
2020-12-23 17:45 9.03 175 10100 (2012) 50 (2013) 2370 50 222 425 781 3480 4810 10100
2020-12-23 16:45 9.06 180 10100 (2012) 50 (2013) 2370 50 222 425 781 3480 4810 10100
2020-12-23 15:45 9.03 175 10100 (2012) 50 (2013) 2370 50 222 425 781 3480 4810 10100
2020-12-23 14:45 8.92 155 10100 (2012) 50 (2013) 2370 50 222 425 781 3480 4810 10100
2020-12-23 13:45 8.90 152 10100 (2012) 50 (2013) 2370 50 222 425 781 3480 4810 10100
2020-12-23 12:45 8.85 144 10100 (2012) 50 (2013) 2370 50 222 425 781 3480 4810 10100
2020-12-23 11:45 8.80 136 10100 (2012) 50 (2013) 2370 50 222 425 781 3480 4810 10100
2020-12-23 10:45 8.81 138 10100 (2012) 50 (2013) 2370 50 222 425 781 3480 4810 10100
2020-12-23 09:45 8.84 142 10100 (2012) 50 (2013) 2370 50 222 425 781 3480 4810 10100
2020-12-23 08:45 8.91 153 10100 (2012) 50 (2013) 2370 50 222 425 781 3480 4810 10100
2020-12-23 07:45 8.91 153 10100 (2012) 50 (2013) 2370 50 222 425 781 3480 4810 10100
2020-12-23 06:45 8.93 157 10100 (2012) 50 (2013) 2370 50 222 425 781 3480 4810 10100
2020-12-23 05:45 8.95 160 10100 (2012) 50 (2013) 2370 50 222 425 781 3480 4810 10100
2020-12-23 04:45 8.95 160 10100 (2012) 50 (2013) 2370 50 222 425 781 3480 4810 10100
2020-12-23 03:45 8.97 164 10100 (2012) 50 (2013) 2370 50 222 425 781 3480 4810 10100
2020-12-23 02:45 8.99 167 10100 (2012) 50 (2013) 2370 50 222 425 781 3480 4810 10100
2020-12-23 01:45 9.06 180 10100 (2012) 50 (2013) 2370 50 222 425 781 3480 4810 10100
2020-12-23 00:45 9.11 190 10100 (2012) 50 (2013) 2370 50 222 425 781 3480 4810 10100
2020-12-22 23:45 9.12 192 12200 (2012) 50 (2013) 2760 50 251 401 1020 4110 5870 12200
2020-12-22 22:45 9.10 188 12200 (2012) 50 (2013) 2760 50 251 401 1020 4110 5870 12200
2020-12-22 21:45 9.06 180 12200 (2012) 50 (2013) 2760 50 251 401 1020 4110 5870 12200
2020-12-22 20:45 9.01 171 12200 (2012) 50 (2013) 2760 50 251 401 1020 4110 5870 12200
2020-12-22 19:45 8.99 167 12200 (2012) 50 (2013) 2760 50 251 401 1020 4110 5870 12200
2020-12-22 18:45 8.99 167 12200 (2012) 50 (2013) 2760 50 251 401 1020 4110 5870 12200
2020-12-22 17:45 9.06 180 12200 (2012) 50 (2013) 2760 50 251 401 1020 4110 5870 12200
2020-12-22 16:45 9.06 180 12200 (2012) 50 (2013) 2760 50 251 401 1020 4110 5870 12200
2020-12-22 15:45 9.10 188 12200 (2012) 50 (2013) 2760 50 251 401 1020 4110 5870 12200
2020-12-22 14:45 9.14 195 12200 (2012) 50 (2013) 2760 50 251 401 1020 4110 5870 12200
2020-12-22 13:45 9.14 195 12200 (2012) 50 (2013) 2760 50 251 401 1020 4110 5870 12200
2020-12-22 12:45 9.15 197 12200 (2012) 50 (2013) 2760 50 251 401 1020 4110 5870 12200
2020-12-22 11:45 9.13 193 12200 (2012) 50 (2013) 2760 50 251 401 1020 4110 5870 12200
2020-12-22 10:45 9.15 197 12200 (2012) 50 (2013) 2760 50 251 401 1020 4110 5870 12200
2020-12-22 09:45 9.13 193 12200 (2012) 50 (2013) 2760 50 251 401 1020 4110 5870 12200
2020-12-22 08:45 9.18 203 12200 (2012) 50 (2013) 2760 50 251 401 1020 4110 5870 12200
2020-12-22 07:45 9.19 205 12200 (2012) 50 (2013) 2760 50 251 401 1020 4110 5870 12200
2020-12-22 06:45 9.17 201 12200 (2012) 50 (2013) 2760 50 251 401 1020 4110 5870 12200
2020-12-22 05:45 9.15 197 12200 (2012) 50 (2013) 2760 50 251 401 1020 4110 5870 12200
2020-12-22 04:45 9.13 193 12200 (2012) 50 (2013) 2760 50 251 401 1020 4110 5870 12200
2020-12-22 03:45 9.11 190 12200 (2012) 50 (2013) 2760 50 251 401 1020 4110 5870 12200
2020-12-22 02:45 9.10 188 12200 (2012) 50 (2013) 2760 50 251 401 1020 4110 5870 12200
2020-12-22 01:45 9.13 193 12200 (2012) 50 (2013) 2760 50 251 401 1020 4110 5870 12200
2020-12-22 00:45 9.15 197 12200 (2012) 50 (2013) 2760 50 251 401 1020 4110 5870 12200
2020-12-21 23:45 9.17 201 12400 (2012) 50 (2013) 3080 50 226 343 1090 5460 8410 12400
2020-12-21 22:45 9.17 201 12400 (2012) 50 (2013) 3080 50 226 343 1090 5460 8410 12400
2020-12-21 21:45 9.17 201 12400 (2012) 50 (2013) 3080 50 226 343 1090 5460 8410 12400
2020-12-21 20:45 9.17 201 12400 (2012) 50 (2013) 3080 50 226 343 1090 5460 8410 12400
2020-12-21 19:45 9.14 195 12400 (2012) 50 (2013) 3080 50 226 343 1090 5460 8410 12400
2020-12-21 18:45 9.13 193 12400 (2012) 50 (2013) 3080 50 226 343 1090 5460 8410 12400
2020-12-21 17:45 9.10 188 12400 (2012) 50 (2013) 3080 50 226 343 1090 5460 8410 12400
2020-12-21 16:45 9.06 180 12400 (2012) 50 (2013) 3080 50 226 343 1090 5460 8410 12400
2020-12-21 15:45 9.02 173 12400 (2012) 50 (2013) 3080 50 226 343 1090 5460 8410 12400
2020-12-21 14:45 9.06 180 12400 (2012) 50 (2013) 3080 50 226 343 1090 5460 8410 12400
2020-12-21 13:45 9.11 190 12400 (2012) 50 (2013) 3080 50 226 343 1090 5460 8410 12400
2020-12-21 12:45 9.13 193 12400 (2012) 50 (2013) 3080 50 226 343 1090 5460 8410 12400
2020-12-21 11:45 9.14 195 12400 (2012) 50 (2013) 3080 50 226 343 1090 5460 8410 12400
2020-12-21 10:45 9.13 193 12400 (2012) 50 (2013) 3080 50 226 343 1090 5460 8410 12400
2020-12-21 09:45 9.15 197 12400 (2012) 50 (2013) 3080 50 226 343 1090 5460 8410 12400
2020-12-21 08:45 9.09 186 12400 (2012) 50 (2013) 3080 50 226 343 1090 5460 8410 12400
2020-12-21 07:45 9.05 178 12400 (2012) 50 (2013) 3080 50 226 343 1090 5460 8410 12400
2020-12-21 06:45 9.00 169 12400 (2012) 50 (2013) 3080 50 226 343 1090 5460 8410 12400
2020-12-21 05:45 8.97 164 12400 (2012) 50 (2013) 3080 50 226 343 1090 5460 8410 12400
2020-12-21 04:45 8.98 166 12400 (2012) 50 (2013) 3080 50 226 343 1090 5460 8410 12400
2020-12-21 03:45 9.00 169 12400 (2012) 50 (2013) 3080 50 226 343 1090 5460 8410 12400
2020-12-21 02:45 9.01 171 12400 (2012) 50 (2013) 3080 50 226 343 1090 5460 8410 12400
2020-12-21 01:45 9.04 176 12400 (2012) 50 (2013) 3080 50 226 343 1090 5460 8410 12400
2020-12-21 00:45 9.15 197 12400 (2012) 50 (2013) 3080 50 226 343 1090 5460 8410 12400
2020-12-20 23:45 9.18 203 15100 (2016) 50 (2013) 3250 50 143 255 1160 5050 7450 15100
2020-12-20 22:45 9.21 209 15100 (2016) 50 (2013) 3250 50 143 255 1160 5050 7450 15100
2020-12-20 21:45 9.21 209 15100 (2016) 50 (2013) 3250 50 143 255 1160 5050 7450 15100
2020-12-20 20:45 9.20 207 15100 (2016) 50 (2013) 3250 50 143 255 1160 5050 7450 15100
2020-12-20 19:45 9.17 201 15100 (2016) 50 (2013) 3250 50 143 255 1160 5050 7450 15100
2020-12-20 18:45 9.13 193 15100 (2016) 50 (2013) 3250 50 143 255 1160 5050 7450 15100
2020-12-20 17:45 9.09 186 15100 (2016) 50 (2013) 3250 50 143 255 1160 5050 7450 15100
2020-12-20 16:45 9.04 176 15100 (2016) 50 (2013) 3250 50 143 255 1160 5050 7450 15100
2020-12-20 15:45 9.00 169 15100 (2016) 50 (2013) 3250 50 143 255 1160 5050 7450 15100
2020-12-20 14:45 8.97 164 15100 (2016) 50 (2013) 3250 50 143 255 1160 5050 7450 15100
2020-12-20 13:45 9.01 171 15100 (2016) 50 (2013) 3250 50 143 255 1160 5050 7450 15100
2020-12-20 12:45 9.05 178 15100 (2016) 50 (2013) 3250 50 143 255 1160 5050 7450 15100
2020-12-20 11:45 9.11 190 15100 (2016) 50 (2013) 3250 50 143 255 1160 5050 7450 15100
2020-12-20 10:45 9.15 197 15100 (2016) 50 (2013) 3250 50 143 255 1160 5050 7450 15100
2020-12-20 09:45 9.17 201 15100 (2016) 50 (2013) 3250 50 143 255 1160 5050 7450 15100
2020-12-20 08:45 9.16 199 15100 (2016) 50 (2013) 3250 50 143 255 1160 5050 7450 15100
2020-12-20 07:45 9.15 197 15100 (2016) 50 (2013) 3250 50 143 255 1160 5050 7450 15100
2020-12-20 06:45 9.13 193 15100 (2016) 50 (2013) 3250 50 143 255 1160 5050 7450 15100
2020-12-20 05:45 9.09 186 15100 (2016) 50 (2013) 3250 50 143 255 1160 5050 7450 15100
2020-12-20 04:45 9.09 186 15100 (2016) 50 (2013) 3250 50 143 255 1160 5050 7450 15100
2020-12-20 03:45 9.08 184 15100 (2016) 50 (2013) 3250 50 143 255 1160 5050 7450 15100
2020-12-20 02:45 9.08 184 15100 (2016) 50 (2013) 3250 50 143 255 1160 5050 7450 15100
2020-12-20 01:45 9.08 184 15100 (2016) 50 (2013) 3250 50 143 255 1160 5050 7450 15100
2020-12-20 00:45 9.10 188 15100 (2016) 50 (2013) 3250 50 143 255 1160 5050 7450 15100
2020-12-19 23:45 9.11 190 20100 (2016) 50 (2013) 3020 50 184 236 918 2180 3350 20100
2020-12-19 22:45 9.13 193 20100 (2016) 50 (2013) 3020 50 184 236 918 2180 3350 20100
2020-12-19 21:45 9.16 199 20100 (2016) 50 (2013) 3020 50 184 236 918 2180 3350 20100
2020-12-19 20:45 9.17 201 20100 (2016) 50 (2013) 3020 50 184 236 918 2180 3350 20100
2020-12-19 19:45 9.18 203 20100 (2016) 50 (2013) 3020 50 184 236 918 2180 3350 20100
2020-12-19 18:45 9.17 201 20100 (2016) 50 (2013) 3020 50 184 236 918 2180 3350 20100
2020-12-19 17:45 9.14 195 20100 (2016) 50 (2013) 3020 50 184 236 918 2180 3350 20100
2020-12-19 16:45 9.11 190 20100 (2016) 50 (2013) 3020 50 184 236 918 2180 3350 20100
2020-12-19 15:45 9.09 186 20100 (2016) 50 (2013) 3020 50 184 236 918 2180 3350 20100
2020-12-19 14:45 9.10 188 20100 (2016) 50 (2013) 3020 50 184 236 918 2180 3350 20100
2020-12-19 13:45 9.08 184 20100 (2016) 50 (2013) 3020 50 184 236 918 2180 3350 20100
2020-12-19 12:45 9.07 182 20100 (2016) 50 (2013) 3020 50 184 236 918 2180 3350 20100
2020-12-19 11:45 9.10 188 20100 (2016) 50 (2013) 3020 50 184 236 918 2180 3350 20100
2020-12-19 10:45 9.10 188 20100 (2016) 50 (2013) 3020 50 184 236 918 2180 3350 20100
2020-12-19 09:45 9.10 188 20100 (2016) 50 (2013) 3020 50 184 236 918 2180 3350 20100
2020-12-19 08:45 9.13 193 20100 (2016) 50 (2013) 3020 50 184 236 918 2180 3350 20100
2020-12-19 07:45 9.14 195 20100 (2016) 50 (2013) 3020 50 184 236 918 2180 3350 20100
2020-12-19 06:45 9.11 190 20100 (2016) 50 (2013) 3020 50 184 236 918 2180 3350 20100
2020-12-19 05:45 9.07 182 20100 (2016) 50 (2013) 3020 50 184 236 918 2180 3350 20100
2020-12-19 04:45 9.06 180 20100 (2016) 50 (2013) 3020 50 184 236 918 2180 3350 20100
2020-12-19 03:45 9.05 178 20100 (2016) 50 (2013) 3020 50 184 236 918 2180 3350 20100
2020-12-19 02:45 9.06 180 20100 (2016) 50 (2013) 3020 50 184 236 918 2180 3350 20100
2020-12-19 01:45 9.06 180 20100 (2016) 50 (2013) 3020 50 184 236 918 2180 3350 20100
2020-12-19 00:45 9.06 180 20100 (2016) 50 (2013) 3020 50 184 236 918 2180 3350 20100
2020-12-18 23:45 9.08 184 22400 (2016) 50 (2013) 3400 50 189 238 453 3060 5050 22400
2020-12-18 22:45 9.05 178 22400 (2016) 50 (2013) 3400 50 189 238 453 3060 5050 22400
2020-12-18 21:45 9.05 178 22400 (2016) 50 (2013) 3400 50 189 238 453 3060 5050 22400
2020-12-18 20:45 9.02 173 22400 (2016) 50 (2013) 3400 50 189 238 453 3060 5050 22400
2020-12-18 19:45 8.93 157 22400 (2016) 50 (2013) 3400 50 189 238 453 3060 5050 22400
2020-12-18 18:45 8.93 157 22400 (2016) 50 (2013) 3400 50 189 238 453 3060 5050 22400
2020-12-18 17:45 8.88 148 22400 (2016) 50 (2013) 3400 50 189 238 453 3060 5050 22400
2020-12-18 16:45 8.87 147 22400 (2016) 50 (2013) 3400 50 189 238 453 3060 5050 22400
2020-12-18 15:45 8.87 147 22400 (2016) 50 (2013) 3400 50 189 238 453 3060 5050 22400
2020-12-18 14:45 8.87 147 22400 (2016) 50 (2013) 3400 50 189 238 453 3060 5050 22400
2020-12-18 13:45 8.95 160 22400 (2016) 50 (2013) 3400 50 189 238 453 3060 5050 22400
2020-12-18 12:45 9.00 169 22400 (2016) 50 (2013) 3400 50 189 238 453 3060 5050 22400
2020-12-18 11:45 9.05 178 22400 (2016) 50 (2013) 3400 50 189 238 453 3060 5050 22400
2020-12-18 10:45 9.09 186 22400 (2016) 50 (2013) 3400 50 189 238 453 3060 5050 22400
2020-12-18 09:45 9.17 201 22400 (2016) 50 (2013) 3400 50 189 238 453 3060 5050 22400
2020-12-18 08:45 9.15 197 22400 (2016) 50 (2013) 3400 50 189 238 453 3060 5050 22400
2020-12-18 07:45 9.17 201 22400 (2016) 50 (2013) 3400 50 189 238 453 3060 5050 22400
2020-12-18 06:45 9.11 190 22400 (2016) 50 (2013) 3400 50 189 238 453 3060 5050 22400
2020-12-18 05:45 9.10 188 22400 (2016) 50 (2013) 3400 50 189 238 453 3060 5050 22400
2020-12-18 04:45 9.07 182 22400 (2016) 50 (2013) 3400 50 189 238 453 3060 5050 22400
2020-12-18 03:45 9.05 178 22400 (2016) 50 (2013) 3400 50 189 238 453 3060 5050 22400
2020-12-18 02:45 9.04 176 22400 (2016) 50 (2013) 3400 50 189 238 453 3060 5050 22400
2020-12-18 01:45 9.05 178 22400 (2016) 50 (2013) 3400 50 189 238 453 3060 5050 22400
2020-12-18 00:45 9.08 184 22400 (2016) 50 (2013) 3400 50 189 238 453 3060 5050 22400
2020-12-17 23:45 9.11 190 23800 (2016) 50 (2013) 3780 50 170 225 398 4070 6510 23800
2020-12-17 22:45 9.13 193 23800 (2016) 50 (2013) 3780 50 170 225 398 4070 6510 23800
2020-12-17 21:45 9.16 199 23800 (2016) 50 (2013) 3780 50 170 225 398 4070 6510 23800
2020-12-17 20:45 9.19 205 23800 (2016) 50 (2013) 3780 50 170 225 398 4070 6510 23800
2020-12-17 19:45 9.22 211 23800 (2016) 50 (2013) 3780 50 170 225 398 4070 6510 23800
2020-12-17 18:45 9.20 207 23800 (2016) 50 (2013) 3780 50 170 225 398 4070 6510 23800
2020-12-17 17:45 9.14 195 23800 (2016) 50 (2013) 3780 50 170 225 398 4070 6510 23800
2020-12-17 16:45 9.04 176 23800 (2016) 50 (2013) 3780 50 170 225 398 4070 6510 23800
2020-12-17 15:45 8.91 153 23800 (2016) 50 (2013) 3780 50 170 225 398 4070 6510 23800
2020-12-17 14:45 8.85 144 23800 (2016) 50 (2013) 3780 50 170 225 398 4070 6510 23800
2020-12-17 13:45 8.90 152 23800 (2016) 50 (2013) 3780 50 170 225 398 4070 6510 23800
2020-12-17 12:45 8.92 155 23800 (2016) 50 (2013) 3780 50 170 225 398 4070 6510 23800
2020-12-17 11:45 9.09 186 23800 (2016) 50 (2013) 3780 50 170 225 398 4070 6510 23800
2020-12-17 10:45 9.17 201 23800 (2016) 50 (2013) 3780 50 170 225 398 4070 6510 23800
2020-12-17 09:45 9.22 211 23800 (2016) 50 (2013) 3780 50 170 225 398 4070 6510 23800
2020-12-17 08:45 9.25 218 23800 (2016) 50 (2013) 3780 50 170 225 398 4070 6510 23800
2020-12-17 07:45 9.27 222 23800 (2016) 50 (2013) 3780 50 170 225 398 4070 6510 23800
2020-12-17 06:45 9.26 220 23800 (2016) 50 (2013) 3780 50 170 225 398 4070 6510 23800
2020-12-17 05:45 9.23 214 23800 (2016) 50 (2013) 3780 50 170 225 398 4070 6510 23800
2020-12-17 04:45 9.20 207 23800 (2016) 50 (2013) 3780 50 170 225 398 4070 6510 23800
2020-12-17 03:45 9.19 205 23800 (2016) 50 (2013) 3780 50 170 225 398 4070 6510 23800
2020-12-17 02:45 9.18 203 23800 (2016) 50 (2013) 3780 50 170 225 398 4070 6510 23800
2020-12-17 01:45 9.15 197 23800 (2016) 50 (2013) 3780 50 170 225 398 4070 6510 23800
2020-12-17 00:45 9.13 193 23800 (2016) 50 (2013) 3780 50 170 225 398 4070 6510 23800
2020-12-16 23:45 9.10 188 20800 (2016) 50 (2013) 3340 50 163 200 308 3750 5570 20800
2020-12-16 22:45 9.13 193 20800 (2016) 50 (2013) 3340 50 163 200 308 3750 5570 20800
2020-12-16 21:45 9.17 201 20800 (2016) 50 (2013) 3340 50 163 200 308 3750 5570 20800
2020-12-16 20:45 9.22 211 20800 (2016) 50 (2013) 3340 50 163 200 308 3750 5570 20800
2020-12-16 19:45 9.27 222 20800 (2016) 50 (2013) 3340 50 163 200 308 3750 5570 20800
2020-12-16 18:45 9.27 222 20800 (2016) 50 (2013) 3340 50 163 200 308 3750 5570 20800
2020-12-16 17:45 9.23 214 20800 (2016) 50 (2013) 3340 50 163 200 308 3750 5570 20800
2020-12-16 16:45 9.18 203 20800 (2016) 50 (2013) 3340 50 163 200 308 3750 5570 20800
2020-12-16 15:45 9.12 192 20800 (2016) 50 (2013) 3340 50 163 200 308 3750 5570 20800
2020-12-16 14:45 9.08 184 20800 (2016) 50 (2013) 3340 50 163 200 308 3750 5570 20800
2020-12-16 13:45 9.02 173 20800 (2016) 50 (2013) 3340 50 163 200 308 3750 5570 20800
2020-12-16 12:45 9.06 180 20800 (2016) 50 (2013) 3340 50 163 200 308 3750 5570 20800
2020-12-16 11:45 9.13 193 20800 (2016) 50 (2013) 3340 50 163 200 308 3750 5570 20800
2020-12-16 10:45 9.15 197 20800 (2016) 50 (2013) 3340 50 163 200 308 3750 5570 20800
2020-12-16 09:45 9.17 201 20800 (2016) 50 (2013) 3340 50 163 200 308 3750 5570 20800
2020-12-16 08:45 9.24 216 20800 (2016) 50 (2013) 3340 50 163 200 308 3750 5570 20800
2020-12-16 07:45 9.27 222 20800 (2016) 50 (2013) 3340 50 163 200 308 3750 5570 20800
2020-12-16 06:45 9.29 227 20800 (2016) 50 (2013) 3340 50 163 200 308 3750 5570 20800
2020-12-16 05:45 9.27 222 20800 (2016) 50 (2013) 3340 50 163 200 308 3750 5570 20800
2020-12-16 04:45 9.28 225 20800 (2016) 50 (2013) 3340 50 163 200 308 3750 5570 20800
2020-12-16 03:45 9.22 211 20800 (2016) 50 (2013) 3340 50 163 200 308 3750 5570 20800
2020-12-16 02:45 9.13 193 20800 (2016) 50 (2013) 3340 50 163 200 308 3750 5570 20800
2020-12-16 01:45 9.10 188 20800 (2016) 50 (2013) 3340 50 163 200 308 3750 5570 20800
2020-12-16 00:45 9.09 186 20800 (2016) 50 (2013) 3340 50 163 200 308 3750 5570 20800
2020-12-15 23:45 9.12 192 17900 (2016) 50 (2013) 2630 50 137 150 281 2060 2220 17900
2020-12-15 22:45 9.21 209 17900 (2016) 50 (2013) 2630 50 137 150 281 2060 2220 17900
2020-12-15 21:45 9.30 229 17900 (2016) 50 (2013) 2630 50 137 150 281 2060 2220 17900
2020-12-15 20:45 9.38 249 17900 (2016) 50 (2013) 2630 50 137 150 281 2060 2220 17900
2020-12-15 19:45 9.41 256 17900 (2016) 50 (2013) 2630 50 137 150 281 2060 2220 17900
2020-12-15 18:45 9.39 251 17900 (2016) 50 (2013) 2630 50 137 150 281 2060 2220 17900
2020-12-15 17:45 9.30 229 17900 (2016) 50 (2013) 2630 50 137 150 281 2060 2220 17900
2020-12-15 16:45 9.21 209 17900 (2016) 50 (2013) 2630 50 137 150 281 2060 2220 17900
2020-12-15 15:45 9.15 197 17900 (2016) 50 (2013) 2630 50 137 150 281 2060 2220 17900
2020-12-15 14:45 9.16 199 17900 (2016) 50 (2013) 2630 50 137 150 281 2060 2220 17900
2020-12-15 13:45 9.22 211 17900 (2016) 50 (2013) 2630 50 137 150 281 2060 2220 17900
2020-12-15 12:45 9.28 225 17900 (2016) 50 (2013) 2630 50 137 150 281 2060 2220 17900
2020-12-15 11:45 9.36 244 17900 (2016) 50 (2013) 2630 50 137 150 281 2060 2220 17900
2020-12-15 10:45 9.34 239 17900 (2016) 50 (2013) 2630 50 137 150 281 2060 2220 17900
2020-12-15 09:45 9.34 239 17900 (2016) 50 (2013) 2630 50 137 150 281 2060 2220 17900
2020-12-15 08:45 9.36 244 17900 (2016) 50 (2013) 2630 50 137 150 281 2060 2220 17900
2020-12-15 07:45 9.42 259 17900 (2016) 50 (2013) 2630 50 137 150 281 2060 2220 17900
2020-12-15 06:45 9.44 264 17900 (2016) 50 (2013) 2630 50 137 150 281 2060 2220 17900
2020-12-15 05:45 9.47 272 17900 (2016) 50 (2013) 2630 50 137 150 281 2060 2220 17900
2020-12-15 04:45 9.46 269 17900 (2016) 50 (2013) 2630 50 137 150 281 2060 2220 17900
2020-12-15 03:45 9.44 264 17900 (2016) 50 (2013) 2630 50 137 150 281 2060 2220 17900
2020-12-15 02:45 9.40 254 17900 (2016) 50 (2013) 2630 50 137 150 281 2060 2220 17900
2020-12-15 01:45 9.35 241 17900 (2016) 50 (2013) 2630 50 137 150 281 2060 2220 17900
2020-12-15 00:45 9.32 234 17900 (2016) 50 (2013) 2630 50 137 150 281 2060 2220 17900
2020-12-14 23:45 9.29 227 15600 (2016) 50 (2013) 2310 50 95 122 313 1800 2780 15600
2020-12-14 22:45 9.30 229 15600 (2016) 50 (2013) 2310 50 95 122 313 1800 2780 15600
2020-12-14 21:45 9.32 234 15600 (2016) 50 (2013) 2310 50 95 122 313 1800 2780 15600
2020-12-14 20:45 9.38 249 15600 (2016) 50 (2013) 2310 50 95 122 313 1800 2780 15600
2020-12-14 19:45 9.45 266 15600 (2016) 50 (2013) 2310 50 95 122 313 1800 2780 15600
2020-12-14 18:45 9.49 277 15600 (2016) 50 (2013) 2310 50 95 122 313 1800 2780 15600
2020-12-14 17:45 9.47 272 15600 (2016) 50 (2013) 2310 50 95 122 313 1800 2780 15600
2020-12-14 16:45 9.41 256 15600 (2016) 50 (2013) 2310 50 95 122 313 1800 2780 15600
2020-12-14 15:45 9.31 232 15600 (2016) 50 (2013) 2310 50 95 122 313 1800 2780 15600
2020-12-14 14:45 9.23 214 15600 (2016) 50 (2013) 2310 50 95 122 313 1800 2780 15600
2020-12-14 13:45 9.17 939 15600 (2016) 50 (2013) 2310 50 95 122 313 1800 2780 15600
2020-12-14 12:45 9.18 945 15600 (2016) 50 (2013) 2310 50 95 122 313 1800 2780 15600
2020-12-14 11:45 9.24 984 15600 (2016) 50 (2013) 2310 50 95 122 313 1800 2780 15600
2020-12-14 10:45 9.31 1030 15600 (2016) 50 (2013) 2310 50 95 122 313 1800 2780 15600
2020-12-14 09:45 9.32 1040 15600 (2016) 50 (2013) 2310 50 95 122 313 1800 2780 15600
2020-12-14 08:45 9.34 1050 15600 (2016) 50 (2013) 2310 50 95 122 313 1800 2780 15600
2020-12-14 07:45 9.37 1070 15600 (2016) 50 (2013) 2310 50 95 122 313 1800 2780 15600
2020-12-14 06:45 9.39 1080 15600 (2016) 50 (2013) 2310 50 95 122 313 1800 2780 15600
2020-12-14 05:45 9.43 1110 15600 (2016) 50 (2013) 2310 50 95 122 313 1800 2780 15600
2020-12-14 04:45 9.44 1120 15600 (2016) 50 (2013) 2310 50 95 122 313 1800 2780 15600
2020-12-14 03:45 9.44 1120 15600 (2016) 50 (2013) 2310 50 95 122 313 1800 2780 15600
2020-12-14 02:45 9.44 1120 15600 (2016) 50 (2013) 2310 50 95 122 313 1800 2780 15600
2020-12-14 01:45 9.40 1090 15600 (2016) 50 (2013) 2310 50 95 122 313 1800 2780 15600
2020-12-14 00:45 9.37 1070 15600 (2016) 50 (2013) 2310 50 95 122 313 1800 2780 15600
2020-12-13 23:45 9.32 1040 7740 (2016) 50 (2013) 1440 50 53 74 260 1870 2870 7740
2020-12-13 22:45 9.31 1030 7740 (2016) 50 (2013) 1440 50 53 74 260 1870 2870 7740
2020-12-13 21:45 9.34 1050 7740 (2016) 50 (2013) 1440 50 53 74 260 1870 2870 7740
2020-12-13 20:45 9.38 1080 7740 (2016) 50 (2013) 1440 50 53 74 260 1870 2870 7740
2020-12-13 19:45 9.43 1110 7740 (2016) 50 (2013) 1440 50 53 74 260 1870 2870 7740
2020-12-13 18:45 9.43 1110 7740 (2016) 50 (2013) 1440 50 53 74 260 1870 2870 7740
2020-12-13 17:45 9.41 1100 7740 (2016) 50 (2013) 1440 50 53 74 260 1870 2870 7740
2020-12-13 16:45 9.36 1060 7740 (2016) 50 (2013) 1440 50 53 74 260 1870 2870 7740
2020-12-13 15:45 9.34 1050 7740 (2016) 50 (2013) 1440 50 53 74 260 1870 2870 7740
2020-12-13 14:45 9.34 1050 7740 (2016) 50 (2013) 1440 50 53 74 260 1870 2870 7740
2020-12-13 13:45 9.33 1040 7740 (2016) 50 (2013) 1440 50 53 74 260 1870 2870 7740
2020-12-13 12:45 9.34 1050 7740 (2016) 50 (2013) 1440 50 53 74 260 1870 2870 7740
2020-12-13 11:45 9.36 1060 7740 (2016) 50 (2013) 1440 50 53 74 260 1870 2870 7740
2020-12-13 10:45 9.38 1080 7740 (2016) 50 (2013) 1440 50 53 74 260 1870 2870 7740
2020-12-13 09:45 9.40 1090 7740 (2016) 50 (2013) 1440 50 53 74 260 1870 2870 7740
2020-12-13 08:45 9.41 1100 7740 (2016) 50 (2013) 1440 50 53 74 260 1870 2870 7740
2020-12-13 07:45 9.42 1110 7740 (2016) 50 (2013) 1440 50 53 74 260 1870 2870 7740
2020-12-13 06:45 9.41 1100 7740 (2016) 50 (2013) 1440 50 53 74 260 1870 2870 7740
2020-12-13 05:45 9.40 1090 7740 (2016) 50 (2013) 1440 50 53 74 260 1870 2870 7740
2020-12-13 04:45 9.38 1080 7740 (2016) 50 (2013) 1440 50 53 74 260 1870 2870 7740
2020-12-13 03:45 9.38 1080 7740 (2016) 50 (2013) 1440 50 53 74 260 1870 2870 7740
2020-12-13 02:45 9.37 1070 7740 (2016) 50 (2013) 1440 50 53 74 260 1870 2870 7740
2020-12-13 01:45 9.36 1060 7740 (2016) 50 (2013) 1440 50 53 74 260 1870 2870 7740
2020-12-13 00:45 9.34 1050 7740 (2016) 50 (2013) 1440 50 53 74 260 1870 2870 7740
2020-12-12 23:45 9.31 1030 2580 (2019) 50 (2013) 776 50 66 75 323 1350 1710 2580
2020-12-12 22:45 9.28 1010 2580 (2019) 50 (2013) 776 50 66 75 323 1350 1710 2580
2020-12-12 21:45 9.29 1020 2580 (2019) 50 (2013) 776 50 66 75 323 1350 1710 2580
2020-12-12 20:45 9.30 1020 2580 (2019) 50 (2013) 776 50 66 75 323 1350 1710 2580
2020-12-12 19:45 9.32 1040 2580 (2019) 50 (2013) 776 50 66 75 323 1350 1710 2580
2020-12-12 18:45 9.34 1050 2580 (2019) 50 (2013) 776 50 66 75 323 1350 1710 2580
2020-12-12 17:45 9.37 1070 2580 (2019) 50 (2013) 776 50 66 75 323 1350 1710 2580
2020-12-12 16:45 9.39 1080 2580 (2019) 50 (2013) 776 50 66 75 323 1350 1710 2580
2020-12-12 15:45 9.38 1080 2580 (2019) 50 (2013) 776 50 66 75 323 1350 1710 2580
2020-12-12 14:45 9.34 1050 2580 (2019) 50 (2013) 776 50 66 75 323 1350 1710 2580
2020-12-12 13:45 9.30 1020 2580 (2019) 50 (2013) 776 50 66 75 323 1350 1710 2580
2020-12-12 12:45 9.25 990 2580 (2019) 50 (2013) 776 50 66 75 323 1350 1710 2580
2020-12-12 11:45 9.21 965 2580 (2019) 50 (2013) 776 50 66 75 323 1350 1710 2580
2020-12-12 10:45 9.17 939 2580 (2019) 50 (2013) 776 50 66 75 323 1350 1710 2580
2020-12-12 09:45 9.17 939 2580 (2019) 50 (2013) 776 50 66 75 323 1350 1710 2580
2020-12-12 08:45 9.14 920 2580 (2019) 50 (2013) 776 50 66 75 323 1350 1710 2580
2020-12-12 07:45 9.18 945 2580 (2019) 50 (2013) 776 50 66 75 323 1350 1710 2580
2020-12-12 06:45 9.18 945 2580 (2019) 50 (2013) 776 50 66 75 323 1350 1710 2580
2020-12-12 05:45 9.20 958 2580 (2019) 50 (2013) 776 50 66 75 323 1350 1710 2580
2020-12-12 04:45 9.22 971 2580 (2019) 50 (2013) 776 50 66 75 323 1350 1710 2580
2020-12-12 03:45 9.24 984 2580 (2019) 50 (2013) 776 50 66 75 323 1350 1710 2580
2020-12-12 02:45 9.27 1000 2580 (2019) 50 (2013) 776 50 66 75 323 1350 1710 2580
2020-12-12 01:45 9.31 1030 2580 (2019) 50 (2013) 776 50 66 75 323 1350 1710 2580
2020-12-12 00:45 9.31 1030 2580 (2019) 50 (2013) 776 50 66 75 323 1350 1710 2580
2020-12-11 23:45 9.28 1010 2640 (2019) 50 (2013) 810 50 78 85 267 1440 1770 2640
2020-12-11 22:45 9.23 977 2640 (2019) 50 (2013) 810 50 78 85 267 1440 1770 2640
2020-12-11 21:45 9.22 971 2640 (2019) 50 (2013) 810 50 78 85 267 1440 1770 2640
2020-12-11 20:45 9.19 952 2640 (2019) 50 (2013) 810 50 78 85 267 1440 1770 2640
2020-12-11 19:45 9.20 958 2640 (2019) 50 (2013) 810 50 78 85 267 1440 1770 2640
2020-12-11 18:45 9.24 984 2640 (2019) 50 (2013) 810 50 78 85 267 1440 1770 2640
2020-12-11 17:45 9.26 997 2640 (2019) 50 (2013) 810 50 78 85 267 1440 1770 2640
2020-12-11 16:45 9.27 1000 2640 (2019) 50 (2013) 810 50 78 85 267 1440 1770 2640
2020-12-11 15:45 9.27 1000 2640 (2019) 50 (2013) 810 50 78 85 267 1440 1770 2640
2020-12-11 14:45 9.29 1020 2640 (2019) 50 (2013) 810 50 78 85 267 1440 1770 2640
2020-12-11 13:45 9.31 1030 2640 (2019) 50 (2013) 810 50 78 85 267 1440 1770 2640
2020-12-11 12:45 9.31 1030 2640 (2019) 50 (2013) 810 50 78 85 267 1440 1770 2640
2020-12-11 11:45 9.32 1040 2640 (2019) 50 (2013) 810 50 78 85 267 1440 1770 2640
2020-12-11 10:45 9.29 1020 2640 (2019) 50 (2013) 810 50 78 85 267 1440 1770 2640
2020-12-11 09:45 9.25 990 2640 (2019) 50 (2013) 810 50 78 85 267 1440 1770 2640
2020-12-11 08:45 9.24 984 2640 (2019) 50 (2013) 810 50 78 85 267 1440 1770 2640
2020-12-11 07:45 9.25 990 2640 (2019) 50 (2013) 810 50 78 85 267 1440 1770 2640
2020-12-11 06:45 9.24 984 2640 (2019) 50 (2013) 810 50 78 85 267 1440 1770 2640
2020-12-11 05:45 9.25 990 2640 (2019) 50 (2013) 810 50 78 85 267 1440 1770 2640
2020-12-11 04:45 9.27 1000 2640 (2019) 50 (2013) 810 50 78 85 267 1440 1770 2640
2020-12-11 03:45 9.28 1010 2640 (2019) 50 (2013) 810 50 78 85 267 1440 1770 2640
2020-12-11 02:45 9.28 1010 2640 (2019) 50 (2013) 810 50 78 85 267 1440 1770 2640
2020-12-11 01:45 9.28 1010 2640 (2019) 50 (2013) 810 50 78 85 267 1440 1770 2640
2020-12-11 00:45 9.28 1010 2640 (2019) 50 (2013) 810 50 78 85 267 1440 1770 2640
2020-12-10 23:45 9.28 1010 3130 (2019) 50 (2013) 932 50 50 89 243 1690 2000 3130
2020-12-10 22:45 9.25 990 3130 (2019) 50 (2013) 932 50 50 89 243 1690 2000 3130
2020-12-10 21:45 9.25 990 3130 (2019) 50 (2013) 932 50 50 89 243 1690 2000 3130
2020-12-10 20:45 9.23 977 3130 (2019) 50 (2013) 932 50 50 89 243 1690 2000 3130
2020-12-10 19:45 9.23 977 3130 (2019) 50 (2013) 932 50 50 89 243 1690 2000 3130
2020-12-10 18:45 9.22 971 3130 (2019) 50 (2013) 932 50 50 89 243 1690 2000 3130
2020-12-10 17:45 9.21 965 3130 (2019) 50 (2013) 932 50 50 89 243 1690 2000 3130
2020-12-10 16:45 9.23 977 3130 (2019) 50 (2013) 932 50 50 89 243 1690 2000 3130
2020-12-10 15:45 9.24 984 3130 (2019) 50 (2013) 932 50 50 89 243 1690 2000 3130
2020-12-10 14:45 9.26 997 3130 (2019) 50 (2013) 932 50 50 89 243 1690 2000 3130
2020-12-10 13:45 9.26 997 3130 (2019) 50 (2013) 932 50 50 89 243 1690 2000 3130
2020-12-10 12:45 9.26 997 3130 (2019) 50 (2013) 932 50 50 89 243 1690 2000 3130
2020-12-10 11:45 9.26 997 3130 (2019) 50 (2013) 932 50 50 89 243 1690 2000 3130
2020-12-10 10:45 9.26 997 3130 (2019) 50 (2013) 932 50 50 89 243 1690 2000 3130
2020-12-10 09:45 9.25 990 3130 (2019) 50 (2013) 932 50 50 89 243 1690 2000 3130
2020-12-10 08:45 9.24 984 3130 (2019) 50 (2013) 932 50 50 89 243 1690 2000 3130
2020-12-10 07:45 9.23 977 3130 (2019) 50 (2013) 932 50 50 89 243 1690 2000 3130
2020-12-10 06:45 9.22 971 3130 (2019) 50 (2013) 932 50 50 89 243 1690 2000 3130
2020-12-10 05:45 9.21 965 3130 (2019) 50 (2013) 932 50 50 89 243 1690 2000 3130
2020-12-10 04:45 9.21 965 3130 (2019) 50 (2013) 932 50 50 89 243 1690 2000 3130
2020-12-10 03:45 9.22 971 3130 (2019) 50 (2013) 932 50 50 89 243 1690 2000 3130
2020-12-10 02:45 9.23 977 3130 (2019) 50 (2013) 932 50 50 89 243 1690 2000 3130
2020-12-10 01:45 9.24 984 3130 (2019) 50 (2013) 932 50 50 89 243 1690 2000 3130
2020-12-10 00:45 9.24 984 3130 (2019) 50 (2013) 932 50 50 89 243 1690 2000 3130
2020-12-09 23:45 9.25 990 3600 (2019) 50 (2013) 1110 50 50 104 276 2190 2340 3600
2020-12-09 22:45 9.26 997 3600 (2019) 50 (2013) 1110 50 50 104 276 2190 2340 3600
2020-12-09 21:45 9.26 997 3600 (2019) 50 (2013) 1110 50 50 104 276 2190 2340 3600
2020-12-09 20:45 9.25 990 3600 (2019) 50 (2013) 1110 50 50 104 276 2190 2340 3600
2020-12-09 19:45 9.23 977 3600 (2019) 50 (2013) 1110 50 50 104 276 2190 2340 3600
2020-12-09 18:45 9.21 965 3600 (2019) 50 (2013) 1110 50 50 104 276 2190 2340 3600
2020-12-09 17:45 9.18 945 3600 (2019) 50 (2013) 1110 50 50 104 276 2190 2340 3600
2020-12-09 16:45 9.16 933 3600 (2019) 50 (2013) 1110 50 50 104 276 2190 2340 3600
2020-12-09 15:45 9.16 933 3600 (2019) 50 (2013) 1110 50 50 104 276 2190 2340 3600
2020-12-09 14:45 9.16 933 3600 (2019) 50 (2013) 1110 50 50 104 276 2190 2340 3600
2020-12-09 13:45 9.17 939 3600 (2019) 50 (2013) 1110 50 50 104 276 2190 2340 3600
2020-12-09 12:45 9.17 939 3600 (2019) 50 (2013) 1110 50 50 104 276 2190 2340 3600
2020-12-09 11:45 9.18 945 3600 (2019) 50 (2013) 1110 50 50 104 276 2190 2340 3600
2020-12-09 10:45 9.19 952 3600 (2019) 50 (2013) 1110 50 50 104 276 2190 2340 3600
2020-12-09 09:45 9.20 958 3600 (2019) 50 (2013) 1110 50 50 104 276 2190 2340 3600
2020-12-09 08:45 9.20 958 3600 (2019) 50 (2013) 1110 50 50 104 276 2190 2340 3600
2020-12-09 07:45 9.20 958 3600 (2019) 50 (2013) 1110 50 50 104 276 2190 2340 3600
2020-12-09 06:45 9.19 952 3600 (2019) 50 (2013) 1110 50 50 104 276 2190 2340 3600
2020-12-09 05:45 9.16 933 3600 (2019) 50 (2013) 1110 50 50 104 276 2190 2340 3600
2020-12-09 04:45 9.14 920 3600 (2019) 50 (2013) 1110 50 50 104 276 2190 2340 3600
2020-12-09 03:45 9.15 927 3600 (2019) 50 (2013) 1110 50 50 104 276 2190 2340 3600
2020-12-09 02:45 9.15 927 3600 (2019) 50 (2013) 1110 50 50 104 276 2190 2340 3600
2020-12-09 01:45 9.17 939 3600 (2019) 50 (2013) 1110 50 50 104 276 2190 2340 3600
2020-12-09 00:45 9.19 952 3600 (2019) 50 (2013) 1110 50 50 104 276 2190 2340 3600
2020-12-08 23:45 9.19 952 3880 (2019) 50 (2013) 1370 50 67 106 383 3040 3340 3880
2020-12-08 22:45 9.20 958 3880 (2019) 50 (2013) 1370 50 67 106 383 3040 3340 3880
2020-12-08 21:45 9.19 952 3880 (2019) 50 (2013) 1370 50 67 106 383 3040 3340 3880
2020-12-08 20:45 9.18 945 3880 (2019) 50 (2013) 1370 50 67 106 383 3040 3340 3880
2020-12-08 19:45 9.18 945 3880 (2019) 50 (2013) 1370 50 67 106 383 3040 3340 3880
2020-12-08 18:45 9.15 927 3880 (2019) 50 (2013) 1370 50 67 106 383 3040 3340 3880
2020-12-08 17:45 9.14 920 3880 (2019) 50 (2013) 1370 50 67 106 383 3040 3340 3880
2020-12-08 16:45 9.14 920 3880 (2019) 50 (2013) 1370 50 67 106 383 3040 3340 3880
2020-12-08 15:45 9.14 920 3880 (2019) 50 (2013) 1370 50 67 106 383 3040 3340 3880
2020-12-08 14:45 9.15 927 3880 (2019) 50 (2013) 1370 50 67 106 383 3040 3340 3880
2020-12-08 13:45 9.17 939 3880 (2019) 50 (2013) 1370 50 67 106 383 3040 3340 3880
2020-12-08 12:45 9.14 920 3880 (2019) 50 (2013) 1370 50 67 106 383 3040 3340 3880
2020-12-08 11:45 9.14 920 3880 (2019) 50 (2013) 1370 50 67 106 383 3040 3340 3880
2020-12-08 10:45 9.18 945 3880 (2019) 50 (2013) 1370 50 67 106 383 3040 3340 3880
2020-12-08 09:45 9.19 952 3880 (2019) 50 (2013) 1370 50 67 106 383 3040 3340 3880
2020-12-08 08:45 9.19 952 3880 (2019) 50 (2013) 1370 50 67 106 383 3040 3340 3880
2020-12-08 07:45 9.19 952 3880 (2019) 50 (2013) 1370 50 67 106 383 3040 3340 3880
2020-12-08 06:45 9.17 939 3880 (2019) 50 (2013) 1370 50 67 106 383 3040 3340 3880
2020-12-08 05:45 9.17 939 3880 (2019) 50 (2013) 1370 50 67 106 383 3040 3340 3880
2020-12-08 04:45 9.17 939 3880 (2019) 50 (2013) 1370 50 67 106 383 3040 3340 3880
2020-12-08 03:45 9.16 933 3880 (2019) 50 (2013) 1370 50 67 106 383 3040 3340 3880
2020-12-08 02:45 9.14 920 3880 (2019) 50 (2013) 1370 50 67 106 383 3040 3340 3880
2020-12-08 01:45 9.14 920 3880 (2019) 50 (2013) 1370 50 67 106 383 3040 3340 3880
2020-12-08 00:45 9.14 920 3880 (2019) 50 (2013) 1370 50 67 106 383 3040 3340 3880
2020-12-07 23:45 9.15 927 4960 (2015) 50 (2013) 1680 50 92 114 566 3610 3800 4960
2020-12-07 22:45 9.15 927 4960 (2015) 50 (2013) 1680 50 92 114 566 3610 3800 4960
2020-12-07 21:45 9.20 958 4960 (2015) 50 (2013) 1680 50 92 114 566 3610 3800 4960
2020-12-07 20:45 9.25 990 4960 (2015) 50 (2013) 1680 50 92 114 566 3610 3800 4960
2020-12-07 19:45 9.29 1020 4960 (2015) 50 (2013) 1680 50 92 114 566 3610 3800 4960
2020-12-07 18:45 9.30 1020 4960 (2015) 50 (2013) 1680 50 92 114 566 3610 3800 4960
2020-12-07 17:45 9.23 977 4960 (2015) 50 (2013) 1680 50 92 114 566 3610 3800 4960
2020-12-07 16:45 9.11 902 4960 (2015) 50 (2013) 1680 50 92 114 566 3610 3800 4960
2020-12-07 15:45 9.02 848 4960 (2015) 50 (2013) 1680 50 92 114 566 3610 3800 4960
2020-12-07 14:45 8.92 790 4960 (2015) 50 (2013) 1680 50 92 114 566 3610 3800 4960
2020-12-07 13:45 9.01 842 4960 (2015) 50 (2013) 1680 50 92 114 566 3610 3800 4960
2020-12-07 12:45 9.09 890 4960 (2015) 50 (2013) 1680 50 92 114 566 3610 3800 4960
2020-12-07 11:45 9.17 939 4960 (2015) 50 (2013) 1680 50 92 114 566 3610 3800 4960
2020-12-07 10:45 9.23 977 4960 (2015) 50 (2013) 1680 50 92 114 566 3610 3800 4960
2020-12-07 09:45 9.25 990 4960 (2015) 50 (2013) 1680 50 92 114 566 3610 3800 4960
2020-12-07 08:45 9.26 997 4960 (2015) 50 (2013) 1680 50 92 114 566 3610 3800 4960
2020-12-07 07:45 9.26 997 4960 (2015) 50 (2013) 1680 50 92 114 566 3610 3800 4960
2020-12-07 06:45 9.23 977 4960 (2015) 50 (2013) 1680 50 92 114 566 3610 3800 4960
2020-12-07 05:45 9.22 971 4960 (2015) 50 (2013) 1680 50 92 114 566 3610 3800 4960
2020-12-07 04:45 9.20 958 4960 (2015) 50 (2013) 1680 50 92 114 566 3610 3800 4960
2020-12-07 03:45 9.18 945 4960 (2015) 50 (2013) 1680 50 92 114 566 3610 3800 4960
2020-12-07 02:45 9.17 939 4960 (2015) 50 (2013) 1680 50 92 114 566 3610 3800 4960
2020-12-07 01:45 9.17 939 4960 (2015) 50 (2013) 1680 50 92 114 566 3610 3800 4960
2020-12-07 00:45 9.18 945 4960 (2015) 50 (2013) 1680 50 92 114 566 3610 3800 4960
2020-12-06 23:45 9.18 945 5460 (2016) 50 (2013) 1690 50 50 91 356 3370 3530 5460
2020-12-06 22:45 9.19 952 5460 (2016) 50 (2013) 1690 50 50 91 356 3370 3530 5460
2020-12-06 21:45 9.20 958 5460 (2016) 50 (2013) 1690 50 50 91 356 3370 3530 5460
2020-12-06 20:45 9.21 965 5460 (2016) 50 (2013) 1690 50 50 91 356 3370 3530 5460
2020-12-06 19:45 9.23 977 5460 (2016) 50 (2013) 1690 50 50 91 356 3370 3530 5460
2020-12-06 18:45 9.25 990 5460 (2016) 50 (2013) 1690 50 50 91 356 3370 3530 5460
2020-12-06 17:45 9.25 990 5460 (2016) 50 (2013) 1690 50 50 91 356 3370 3530 5460
2020-12-06 16:45 9.25 990 5460 (2016) 50 (2013) 1690 50 50 91 356 3370 3530 5460
2020-12-06 15:45 9.21 965 5460 (2016) 50 (2013) 1690 50 50 91 356 3370 3530 5460
2020-12-06 14:45 9.23 977 5460 (2016) 50 (2013) 1690 50 50 91 356 3370 3530 5460
2020-12-06 13:45 9.18 945 5460 (2016) 50 (2013) 1690 50 50 91 356 3370 3530 5460
2020-12-06 12:45 9.17 939 5460 (2016) 50 (2013) 1690 50 50 91 356 3370 3530 5460
2020-12-06 11:45 9.18 945 5460 (2016) 50 (2013) 1690 50 50 91 356 3370 3530 5460
2020-12-06 10:45 9.16 933 5460 (2016) 50 (2013) 1690 50 50 91 356 3370 3530 5460
2020-12-06 09:45 9.21 965 5460 (2016) 50 (2013) 1690 50 50 91 356 3370 3530 5460
2020-12-06 08:45 9.22 971 5460 (2016) 50 (2013) 1690 50 50 91 356 3370 3530 5460
2020-12-06 07:45 9.20 958 5460 (2016) 50 (2013) 1690 50 50 91 356 3370 3530 5460
2020-12-06 06:45 9.18 945 5460 (2016) 50 (2013) 1690 50 50 91 356 3370 3530 5460
2020-12-06 05:45 9.15 927 5460 (2016) 50 (2013) 1690 50 50 91 356 3370 3530 5460
2020-12-06 04:45 9.14 920 5460 (2016) 50 (2013) 1690 50 50 91 356 3370 3530 5460
2020-12-06 03:45 9.13 914 5460 (2016) 50 (2013) 1690 50 50 91 356 3370 3530 5460
2020-12-06 02:45 9.14 920 5460 (2016) 50 (2013) 1690 50 50 91 356 3370 3530 5460
2020-12-06 01:45 9.15 927 5460 (2016) 50 (2013) 1690 50 50 91 356 3370 3530 5460
2020-12-06 00:45 9.18 945 5460 (2016) 50 (2013) 1690 50 50 91 356 3370 3530 5460
2020-12-05 23:45 9.20 958 9460 (2016) 50 (2013) 2110 50 50 93 330 4140 5540 9460
2020-12-05 22:45 9.20 958 9460 (2016) 50 (2013) 2110 50 50 93 330 4140 5540 9460
2020-12-05 21:45 9.20 958 9460 (2016) 50 (2013) 2110 50 50 93 330 4140 5540 9460
2020-12-05 20:45 9.19 952 9460 (2016) 50 (2013) 2110 50 50 93 330 4140 5540 9460
2020-12-05 19:45 9.18 945 9460 (2016) 50 (2013) 2110 50 50 93 330 4140 5540 9460
2020-12-05 18:45 9.16 933 9460 (2016) 50 (2013) 2110 50 50 93 330 4140 5540 9460
2020-12-05 17:45 9.13 914 9460 (2016) 50 (2013) 2110 50 50 93 330 4140 5540 9460
2020-12-05 16:45 9.11 902 9460 (2016) 50 (2013) 2110 50 50 93 330 4140 5540 9460
2020-12-05 15:45 9.07 877 9460 (2016) 50 (2013) 2110 50 50 93 330 4140 5540 9460
2020-12-05 14:45 9.09 890 9460 (2016) 50 (2013) 2110 50 50 93 330 4140 5540 9460
2020-12-05 13:45 9.07 877 9460 (2016) 50 (2013) 2110 50 50 93 330 4140 5540 9460
2020-12-05 12:45 9.13 914 9460 (2016) 50 (2013) 2110 50 50 93 330 4140 5540 9460
2020-12-05 11:45 9.13 914 9460 (2016) 50 (2013) 2110 50 50 93 330 4140 5540 9460
2020-12-05 10:45 9.18 945 9460 (2016) 50 (2013) 2110 50 50 93 330 4140 5540 9460
2020-12-05 09:45 9.19 952 9460 (2016) 50 (2013) 2110 50 50 93 330 4140 5540 9460
2020-12-05 08:45 9.19 952 9460 (2016) 50 (2013) 2110 50 50 93 330 4140 5540 9460
2020-12-05 07:45 9.18 945 9460 (2016) 50 (2013) 2110 50 50 93 330 4140 5540 9460
2020-12-05 06:45 9.15 927 9460 (2016) 50 (2013) 2110 50 50 93 330 4140 5540 9460
2020-12-05 05:45 9.12 908 9460 (2016) 50 (2013) 2110 50 50 93 330 4140 5540 9460
2020-12-05 04:45 9.09 890 9460 (2016) 50 (2013) 2110 50 50 93 330 4140 5540 9460
2020-12-05 03:45 9.08 883 9460 (2016) 50 (2013) 2110 50 50 93 330 4140 5540 9460
2020-12-05 02:45 9.07 877 9460 (2016) 50 (2013) 2110 50 50 93 330 4140 5540 9460
2020-12-05 01:45 9.07 877 9460 (2016) 50 (2013) 2110 50 50 93 330 4140 5540 9460
2020-12-05 00:45 9.10 896 9460 (2016) 50 (2013) 2110 50 50 93 330 4140 5540 9460
2020-12-04 23:45 9.14 920 17400 (2016) 50 (2013) 3470 50 64 84 155 6550 8940 17400
2020-12-04 22:45 9.18 945 17400 (2016) 50 (2013) 3470 50 64 84 155 6550 8940 17400
2020-12-04 21:45 9.22 971 17400 (2016) 50 (2013) 3470 50 64 84 155 6550 8940 17400
2020-12-04 20:45 9.23 977 17400 (2016) 50 (2013) 3470 50 64 84 155 6550 8940 17400
2020-12-04 19:45 9.21 965 17400 (2016) 50 (2013) 3470 50 64 84 155 6550 8940 17400
2020-12-04 18:45 9.16 933 17400 (2016) 50 (2013) 3470 50 64 84 155 6550 8940 17400
2020-12-04 17:45 9.09 890 17400 (2016) 50 (2013) 3470 50 64 84 155 6550 8940 17400
2020-12-04 16:45 9.01 842 17400 (2016) 50 (2013) 3470 50 64 84 155 6550 8940 17400
2020-12-04 15:45 8.95 807 17400 (2016) 50 (2013) 3470 50 64 84 155 6550 8940 17400
2020-12-04 14:45 8.94 801 17400 (2016) 50 (2013) 3470 50 64 84 155 6550 8940 17400
2020-12-04 13:45 9.01 842 17400 (2016) 50 (2013) 3470 50 64 84 155 6550 8940 17400
2020-12-04 12:45 9.07 877 17400 (2016) 50 (2013) 3470 50 64 84 155 6550 8940 17400
2020-12-04 11:45 9.10 896 17400 (2016) 50 (2013) 3470 50 64 84 155 6550 8940 17400
2020-12-04 10:45 9.09 890 17400 (2016) 50 (2013) 3470 50 64 84 155 6550 8940 17400
2020-12-04 09:45 9.10 896 17400 (2016) 50 (2013) 3470 50 64 84 155 6550 8940 17400
2020-12-04 08:45 9.10 896 17400 (2016) 50 (2013) 3470 50 64 84 155 6550 8940 17400
2020-12-04 07:45 9.13 914 17400 (2016) 50 (2013) 3470 50 64 84 155 6550 8940 17400
2020-12-04 06:45 9.17 939 17400 (2016) 50 (2013) 3470 50 64 84 155 6550 8940 17400
2020-12-04 05:45 9.19 952 17400 (2016) 50 (2013) 3470 50 64 84 155 6550 8940 17400
2020-12-04 04:45 9.17 939 17400 (2016) 50 (2013) 3470 50 64 84 155 6550 8940 17400
2020-12-04 03:45 9.15 927 17400 (2016) 50 (2013) 3470 50 64 84 155 6550 8940 17400
2020-12-04 02:45 9.08 883 17400 (2016) 50 (2013) 3470 50 64 84 155 6550 8940 17400
2020-12-04 01:45 9.04 859 17400 (2016) 50 (2013) 3470 50 64 84 155 6550 8940 17400
2020-12-04 00:45 9.04 859 17400 (2016) 50 (2013) 3470 50 64 84 155 6550 8940 17400
2020-12-03 23:45 9.08 883 20000 (2016) 50 (2013) 3980 50 97 113 180 7460 8540 20000
2020-12-03 22:45 9.16 933 20000 (2016) 50 (2013) 3980 50 97 113 180 7460 8540 20000
2020-12-03 21:45 9.20 958 20000 (2016) 50 (2013) 3980 50 97 113 180 7460 8540 20000
2020-12-03 20:45 9.19 952 20000 (2016) 50 (2013) 3980 50 97 113 180 7460 8540 20000
2020-12-03 19:45 9.18 945 20000 (2016) 50 (2013) 3980 50 97 113 180 7460 8540 20000
2020-12-03 18:45 9.15 927 20000 (2016) 50 (2013) 3980 50 97 113 180 7460 8540 20000
2020-12-03 17:45 9.12 908 20000 (2016) 50 (2013) 3980 50 97 113 180 7460 8540 20000
2020-12-03 16:45 9.13 914 20000 (2016) 50 (2013) 3980 50 97 113 180 7460 8540 20000
2020-12-03 15:45 9.15 927 20000 (2016) 50 (2013) 3980 50 97 113 180 7460 8540 20000
2020-12-03 14:45 9.15 927 20000 (2016) 50 (2013) 3980 50 97 113 180 7460 8540 20000
2020-12-03 13:45 9.18 945 20000 (2016) 50 (2013) 3980 50 97 113 180 7460 8540 20000
2020-12-03 12:45 9.18 945 20000 (2016) 50 (2013) 3980 50 97 113 180 7460 8540 20000
2020-12-03 11:45 9.18 945 20000 (2016) 50 (2013) 3980 50 97 113 180 7460 8540 20000
2020-12-03 10:45 9.15 927 20000 (2016) 50 (2013) 3980 50 97 113 180 7460 8540 20000
2020-12-03 09:45 9.18 945 20000 (2016) 50 (2013) 3980 50 97 113 180 7460 8540 20000
2020-12-03 08:45 9.21 965 20000 (2016) 50 (2013) 3980 50 97 113 180 7460 8540 20000
2020-12-03 07:45 9.24 984 20000 (2016) 50 (2013) 3980 50 97 113 180 7460 8540 20000
2020-12-03 06:45 9.24 984 20000 (2016) 50 (2013) 3980 50 97 113 180 7460 8540 20000
2020-12-03 05:45 9.21 965 20000 (2016) 50 (2013) 3980 50 97 113 180 7460 8540 20000
2020-12-03 04:45 9.19 952 20000 (2016) 50 (2013) 3980 50 97 113 180 7460 8540 20000
2020-12-03 03:45 9.13 914 20000 (2016) 50 (2013) 3980 50 97 113 180 7460 8540 20000
2020-12-03 02:45 9.13 914 20000 (2016) 50 (2013) 3980 50 97 113 180 7460 8540 20000
2020-12-03 01:45 9.12 908 20000 (2016) 50 (2013) 3980 50 97 113 180 7460 8540 20000
2020-12-03 00:45 9.07 877 20000 (2016) 50 (2013) 3980 50 97 113 180 7460 8540 20000
2020-12-02 23:45 9.12 908 19000 (2016) 50 (2013) 3430 50 50 100 190 5470 7490 19000
2020-12-02 22:45 9.10 896 19000 (2016) 50 (2013) 3430 50 50 100 190 5470 7490 19000
2020-12-02 21:45 9.10 896 19000 (2016) 50 (2013) 3430 50 50 100 190 5470 7490 19000
2020-12-02 20:45 9.11 902 19000 (2016) 50 (2013) 3430 50 50 100 190 5470 7490 19000
2020-12-02 19:45 9.13 914 19000 (2016) 50 (2013) 3430 50 50 100 190 5470 7490 19000
2020-12-02 18:45 9.15 927 19000 (2016) 50 (2013) 3430 50 50 100 190 5470 7490 19000
2020-12-02 17:45 9.17 939 19000 (2016) 50 (2013) 3430 50 50 100 190 5470 7490 19000
2020-12-02 16:45 9.19 952 19000 (2016) 50 (2013) 3430 50 50 100 190 5470 7490 19000
2020-12-02 15:45 9.19 952 19000 (2016) 50 (2013) 3430 50 50 100 190 5470 7490 19000
2020-12-02 14:45 9.16 933 19000 (2016) 50 (2013) 3430 50 50 100 190 5470 7490 19000
2020-12-02 13:45 9.10 896 19000 (2016) 50 (2013) 3430 50 50 100 190 5470 7490 19000
2020-12-02 12:45 9.07 877 19000 (2016) 50 (2013) 3430 50 50 100 190 5470 7490 19000
2020-12-02 11:45 9.10 896 19000 (2016) 50 (2013) 3430 50 50 100 190 5470 7490 19000
2020-12-02 10:45 9.09 890 19000 (2016) 50 (2013) 3430 50 50 100 190 5470 7490 19000
2020-12-02 09:45 9.10 896 19000 (2016) 50 (2013) 3430 50 50 100 190 5470 7490 19000
2020-12-02 08:45 9.15 927 19000 (2016) 50 (2013) 3430 50 50 100 190 5470 7490 19000
2020-12-02 07:45 9.17 939 19000 (2016) 50 (2013) 3430 50 50 100 190 5470 7490 19000
2020-12-02 06:45 9.18 945 19000 (2016) 50 (2013) 3430 50 50 100 190 5470 7490 19000
2020-12-02 05:45 9.17 939 19000 (2016) 50 (2013) 3430 50 50 100 190 5470 7490 19000
2020-12-02 04:45 9.14 920 19000 (2016) 50 (2013) 3430 50 50 100 190 5470 7490 19000
2020-12-02 03:45 9.11 902 19000 (2016) 50 (2013) 3430 50 50 100 190 5470 7490 19000
2020-12-02 02:45 9.09 890 19000 (2016) 50 (2013) 3430 50 50 100 190 5470 7490 19000
2020-12-02 01:45 9.09 890 19000 (2016) 50 (2013) 3430 50 50 100 190 5470 7490 19000
2020-12-02 00:45 9.08 883 19000 (2016) 50 (2013) 3430 50 50 100 190 5470 7490 19000
2020-12-01 23:45 9.07 877 18000 (2016) 50 (2013) 3040 50 67 115 328 4130 6920 18000
2020-12-01 22:45 9.06 871 18000 (2016) 50 (2013) 3040 50 67 115 328 4130 6920 18000
2020-12-01 21:45 9.06 871 18000 (2016) 50 (2013) 3040 50 67 115 328 4130 6920 18000
2020-12-01 20:45 9.08 883 18000 (2016) 50 (2013) 3040 50 67 115 328 4130 6920 18000
2020-12-01 19:45 9.15 927 18000 (2016) 50 (2013) 3040 50 67 115 328 4130 6920 18000
2020-12-01 18:45 9.22 971 18000 (2016) 50 (2013) 3040 50 67 115 328 4130 6920 18000
2020-12-01 17:45 9.26 997 18000 (2016) 50 (2013) 3040 50 67 115 328 4130 6920 18000
2020-12-01 16:45 9.21 965 18000 (2016) 50 (2013) 3040 50 67 115 328 4130 6920 18000
2020-12-01 15:45 9.07 877 18000 (2016) 50 (2013) 3040 50 67 115 328 4130 6920 18000
2020-12-01 14:45 8.96 813 18000 (2016) 50 (2013) 3040 50 67 115 328 4130 6920 18000
2020-12-01 13:45 8.93 796 18000 (2016) 50 (2013) 3040 50 67 115 328 4130 6920 18000
2020-12-01 12:45 8.98 824 18000 (2016) 50 (2013) 3040 50 67 115 328 4130 6920 18000
2020-12-01 11:45 9.08 883 18000 (2016) 50 (2013) 3040 50 67 115 328 4130 6920 18000
2020-12-01 10:45 9.15 927 18000 (2016) 50 (2013) 3040 50 67 115 328 4130 6920 18000
2020-12-01 09:45 9.18 945 18000 (2016) 50 (2013) 3040 50 67 115 328 4130 6920 18000
2020-12-01 08:45 9.18 945 18000 (2016) 50 (2013) 3040 50 67 115 328 4130 6920 18000
2020-12-01 07:45 9.23 977 18000 (2016) 50 (2013) 3040 50 67 115 328 4130 6920 18000
2020-12-01 06:45 9.23 977 18000 (2016) 50 (2013) 3040 50 67 115 328 4130 6920 18000
2020-12-01 05:45 9.21 965 18000 (2016) 50 (2013) 3040 50 67 115 328 4130 6920 18000
2020-12-01 04:45 9.19 952 18000 (2016) 50 (2013) 3040 50 67 115 328 4130 6920 18000
2020-12-01 03:45 9.18 945 18000 (2016) 50 (2013) 3040 50 67 115 328 4130 6920 18000
2020-12-01 02:45 9.18 945 18000 (2016) 50 (2013) 3040 50 67 115 328 4130 6920 18000
2020-12-01 01:45 9.17 939 18000 (2016) 50 (2013) 3040 50 67 115 328 4130 6920 18000
2020-12-01 00:45 9.18 945 18000 (2016) 50 (2013) 3040 50 67 115 328 4130 6920 18000
2020-11-30 23:45 9.18 945 18000 (2016) 50 (2013) 2620 50 50 115 246 2250 4080 18000
2020-11-30 22:45 9.19 952 18000 (2016) 50 (2013) 2620 50 50 115 246 2250 4080 18000
2020-11-30 21:45 9.19 952 18000 (2016) 50 (2013) 2620 50 50 115 246 2250 4080 18000
2020-11-30 20:45 9.18 945 18000 (2016) 50 (2013) 2620 50 50 115 246 2250 4080 18000
2020-11-30 19:45 9.19 952 18000 (2016) 50 (2013) 2620 50 50 115 246 2250 4080 18000
2020-11-30 18:45 9.17 939 18000 (2016) 50 (2013) 2620 50 50 115 246 2250 4080 18000
2020-11-30 17:45 9.14 920 18000 (2016) 50 (2013) 2620 50 50 115 246 2250 4080 18000
2020-11-30 16:45 9.08 883 18000 (2016) 50 (2013) 2620 50 50 115 246 2250 4080 18000
2020-11-30 15:45 9.12 908 18000 (2016) 50 (2013) 2620 50 50 115 246 2250 4080 18000
2020-11-30 14:45 9.12 908 18000 (2016) 50 (2013) 2620 50 50 115 246 2250 4080 18000
2020-11-30 13:45 9.14 920 18000 (2016) 50 (2013) 2620 50 50 115 246 2250 4080 18000
2020-11-30 12:45 9.14 920 18000 (2016) 50 (2013) 2620 50 50 115 246 2250 4080 18000
2020-11-30 11:45 9.15 927 18000 (2016) 50 (2013) 2620 50 50 115 246 2250 4080 18000
2020-11-30 10:45 9.12 908 18000 (2016) 50 (2013) 2620 50 50 115 246 2250 4080 18000
2020-11-30 09:45 9.10 896 18000 (2016) 50 (2013) 2620 50 50 115 246 2250 4080 18000
2020-11-30 08:45 9.10 896 18000 (2016) 50 (2013) 2620 50 50 115 246 2250 4080 18000
2020-11-30 07:45 9.13 914 18000 (2016) 50 (2013) 2620 50 50 115 246 2250 4080 18000
2020-11-30 06:45 9.12 908 18000 (2016) 50 (2013) 2620 50 50 115 246 2250 4080 18000
2020-11-30 05:45 9.17 939 18000 (2016) 50 (2013) 2620 50 50 115 246 2250 4080 18000
2020-11-30 04:45 9.18 945 18000 (2016) 50 (2013) 2620 50 50 115 246 2250 4080 18000
2020-11-30 03:45 9.21 965 18000 (2016) 50 (2013) 2620 50 50 115 246 2250 4080 18000
2020-11-30 02:45 9.22 971 18000 (2016) 50 (2013) 2620 50 50 115 246 2250 4080 18000
2020-11-30 01:45 9.22 971 18000 (2016) 50 (2013) 2620 50 50 115 246 2250 4080 18000
2020-11-30 00:45 9.24 984 18000 (2016) 50 (2013) 2620 50 50 115 246 2250 4080 18000
2020-11-29 23:45 9.24 984 18000 (2016) 50 (2013) 2260 50 50 122 251 610 805 18000
2020-11-29 22:45 9.25 990 18000 (2016) 50 (2013) 2260 50 50 122 251 610 805 18000
2020-11-29 21:45 9.26 997 18000 (2016) 50 (2013) 2260 50 50 122 251 610 805 18000
2020-11-29 20:45 9.27 1000 18000 (2016) 50 (2013) 2260 50 50 122 251 610 805 18000
2020-11-29 19:45 9.29 1020 18000 (2016) 50 (2013) 2260 50 50 122 251 610 805 18000
2020-11-29 18:45 9.24 984 18000 (2016) 50 (2013) 2260 50 50 122 251 610 805 18000
2020-11-29 17:45 9.19 952 18000 (2016) 50 (2013) 2260 50 50 122 251 610 805 18000
2020-11-29 16:45 9.16 933 18000 (2016) 50 (2013) 2260 50 50 122 251 610 805 18000
2020-11-29 15:45 9.10 896 18000 (2016) 50 (2013) 2260 50 50 122 251 610 805 18000
2020-11-29 14:45 9.06 871 18000 (2016) 50 (2013) 2260 50 50 122 251 610 805 18000
2020-11-29 13:45 9.07 877 18000 (2016) 50 (2013) 2260 50 50 122 251 610 805 18000
2020-11-29 12:45 9.07 877 18000 (2016) 50 (2013) 2260 50 50 122 251 610 805 18000
2020-11-29 11:45 9.12 908 18000 (2016) 50 (2013) 2260 50 50 122 251 610 805 18000
2020-11-29 10:45 9.14 920 18000 (2016) 50 (2013) 2260 50 50 122 251 610 805 18000
2020-11-29 09:45 9.15 927 18000 (2016) 50 (2013) 2260 50 50 122 251 610 805 18000
2020-11-29 08:45 9.15 927 18000 (2016) 50 (2013) 2260 50 50 122 251 610 805 18000
2020-11-29 07:45 9.17 939 18000 (2016) 50 (2013) 2260 50 50 122 251 610 805 18000
2020-11-29 06:45 9.18 945 18000 (2016) 50 (2013) 2260 50 50 122 251 610 805 18000
2020-11-29 05:45 9.19 952 18000 (2016) 50 (2013) 2260 50 50 122 251 610 805 18000
2020-11-29 04:45 9.19 952 18000 (2016) 50 (2013) 2260 50 50 122 251 610 805 18000
2020-11-29 03:45 9.19 952 18000 (2016) 50 (2013) 2260 50 50 122 251 610 805 18000
2020-11-29 02:45 9.19 952 18000 (2016) 50 (2013) 2260 50 50 122 251 610 805 18000
2020-11-29 01:45 9.19 952 18000 (2016) 50 (2013) 2260 50 50 122 251 610 805 18000
2020-11-29 00:45 9.20 958 18000 (2016) 50 (2013) 2260 50 50 122 251 610 805 18000
2020-11-28 23:45 9.21 965 16600 (2016) 50 (2013) 2050 50 50 121 206 452 636 16600
2020-11-28 22:45 9.21 965 16600 (2016) 50 (2013) 2050 50 50 121 206 452 636 16600
2020-11-28 21:45 9.22 971 16600 (2016) 50 (2013) 2050 50 50 121 206 452 636 16600
2020-11-28 20:45 9.22 971 16600 (2016) 50 (2013) 2050 50 50 121 206 452 636 16600
2020-11-28 19:45 9.22 971 16600 (2016) 50 (2013) 2050 50 50 121 206 452 636 16600
2020-11-28 18:45 9.22 971 16600 (2016) 50 (2013) 2050 50 50 121 206 452 636 16600
2020-11-28 17:45 9.23 977 16600 (2016) 50 (2013) 2050 50 50 121 206 452 636 16600
2020-11-28 16:45 9.25 990 16600 (2016) 50 (2013) 2050 50 50 121 206 452 636 16600
2020-11-28 15:45 9.27 1000 16600 (2016) 50 (2013) 2050 50 50 121 206 452 636 16600
2020-11-28 14:45 9.29 1020 16600 (2016) 50 (2013) 2050 50 50 121 206 452 636 16600
2020-11-28 13:45 9.31 1030 16600 (2016) 50 (2013) 2050 50 50 121 206 452 636 16600
2020-11-28 12:45 9.33 1040 16600 (2016) 50 (2013) 2050 50 50 121 206 452 636 16600
2020-11-28 11:45 9.35 1060 16600 (2016) 50 (2013) 2050 50 50 121 206 452 636 16600
2020-11-28 10:45 9.37 1070 16600 (2016) 50 (2013) 2050 50 50 121 206 452 636 16600
2020-11-28 09:45 9.39 1080 16600 (2016) 50 (2013) 2050 50 50 121 206 452 636 16600
2020-11-28 08:45 9.41 1100 16600 (2016) 50 (2013) 2050 50 50 121 206 452 636 16600
2020-11-28 07:45 9.46 1130 16600 (2016) 50 (2013) 2050 50 50 121 206 452 636 16600
2020-11-28 06:45 9.48 1150 16600 (2016) 50 (2013) 2050 50 50 121 206 452 636 16600
2020-11-28 05:45 9.51 1170 16600 (2016) 50 (2013) 2050 50 50 121 206 452 636 16600
2020-11-28 04:45 9.54 1190 16600 (2016) 50 (2013) 2050 50 50 121 206 452 636 16600
2020-11-28 03:45 9.57 1210 16600 (2016) 50 (2013) 2050 50 50 121 206 452 636 16600
2020-11-28 02:45 9.59 1230 16600 (2016) 50 (2013) 2050 50 50 121 206 452 636 16600
2020-11-28 01:45 9.63 1260 16600 (2016) 50 (2013) 2050 50 50 121 206 452 636 16600
2020-11-28 00:45 9.65 1270 16600 (2016) 50 (2013) 2050 50 50 121 206 452 636 16600

A total of 2191 rows are displayed for years 2012 through 2020.